<?xml version='1.0' encoding='UTF-8'?>
<gpx version="1.1" creator="https://www.komoot.de" xmlns="http://www.topografix.com/GPX/1/1" xmlns:xsi="http://www.w3.org/2001/XMLSchema-instance" xsi:schemaLocation="http://www.topografix.com/GPX/1/1 http://www.topografix.com/GPX/1/1/gpx.xsd">
  <metadata>
    <name>Retour de Compiègne</name>
    <author>
      <link href="https://www.komoot.de">
        <text>komoot</text>
        <type>text/html</type>
      </link>
    </author>
  </metadata>
  <trk>
    <name>Retour de Compiègne</name>
    <trkseg>
      <trkpt lat="49.419621" lon="2.823722">
        <ele>35.681491</ele>
        <time>2023-11-09T10:24:19.578Z</time>
      </trkpt>
      <trkpt lat="49.419565" lon="2.823564">
        <ele>35.681491</ele>
        <time>2023-11-09T10:24:21.126Z</time>
      </trkpt>
      <trkpt lat="49.419310" lon="2.823032">
        <ele>35.681491</ele>
        <time>2023-11-09T10:24:26.601Z</time>
      </trkpt>
      <trkpt lat="49.419170" lon="2.822740">
        <ele>35.681491</ele>
        <time>2023-11-09T10:24:29.527Z</time>
      </trkpt>
      <trkpt lat="49.419133" lon="2.822714">
        <ele>35.681491</ele>
        <time>2023-11-09T10:24:30.087Z</time>
      </trkpt>
      <trkpt lat="49.419092" lon="2.822610">
        <ele>35.678799</ele>
        <time>2023-11-09T10:24:31.094Z</time>
      </trkpt>
      <trkpt lat="49.419037" lon="2.822550">
        <ele>35.624785</ele>
        <time>2023-11-09T10:24:31.913Z</time>
      </trkpt>
      <trkpt lat="49.418620" lon="2.822124">
        <ele>35.223787</ele>
        <time>2023-11-09T10:24:38.226Z</time>
      </trkpt>
      <trkpt lat="49.418593" lon="2.822101">
        <ele>35.199065</ele>
        <time>2023-11-09T10:24:38.634Z</time>
      </trkpt>
      <trkpt lat="49.418447" lon="2.821960">
        <ele>35.060973</ele>
        <time>2023-11-09T10:24:40.826Z</time>
      </trkpt>
      <trkpt lat="49.418372" lon="2.821345">
        <ele>34.734971</ele>
        <time>2023-11-09T10:24:45.827Z</time>
      </trkpt>
      <trkpt lat="49.418266" lon="2.820855">
        <ele>34.465932</ele>
        <time>2023-11-09T10:24:49.936Z</time>
      </trkpt>
      <trkpt lat="49.417974" lon="2.820184">
        <ele>34.186289</ele>
        <time>2023-11-09T10:24:56.645Z</time>
      </trkpt>
      <trkpt lat="49.417823" lon="2.819778">
        <ele>34.118193</ele>
        <time>2023-11-09T10:25:00.924Z</time>
      </trkpt>
      <trkpt lat="49.417656" lon="2.819301">
        <ele>34.039319</ele>
        <time>2023-11-09T10:25:05.962Z</time>
      </trkpt>
      <trkpt lat="49.417540" lon="2.819157">
        <ele>34.005946</ele>
        <time>2023-11-09T10:25:08.100Z</time>
      </trkpt>
      <trkpt lat="49.417493" lon="2.819107">
        <ele>33.993153</ele>
        <time>2023-11-09T10:25:08.926Z</time>
      </trkpt>
      <trkpt lat="49.417136" lon="2.818755">
        <ele>33.898222</ele>
        <time>2023-11-09T10:25:15.323Z</time>
      </trkpt>
      <trkpt lat="49.417063" lon="2.818690">
        <ele>33.879339</ele>
        <time>2023-11-09T10:25:16.549Z</time>
      </trkpt>
      <trkpt lat="49.416821" lon="2.818260">
        <ele>33.875849</ele>
        <time>2023-11-09T10:25:21.888Z</time>
      </trkpt>
      <trkpt lat="49.416757" lon="2.818113">
        <ele>33.898918</ele>
        <time>2023-11-09T10:25:23.576Z</time>
      </trkpt>
      <trkpt lat="49.416687" lon="2.817948">
        <ele>33.924608</ele>
        <time>2023-11-09T10:25:25.498Z</time>
      </trkpt>
      <trkpt lat="49.416489" lon="2.817599">
        <ele>33.985000</ele>
        <time>2023-11-09T10:25:30.144Z</time>
      </trkpt>
      <trkpt lat="49.416214" lon="2.817290">
        <ele>34.053289</ele>
        <time>2023-11-09T10:25:35.723Z</time>
      </trkpt>
      <trkpt lat="49.415992" lon="2.816990">
        <ele>34.112547</ele>
        <time>2023-11-09T10:25:40.750Z</time>
      </trkpt>
      <trkpt lat="49.415750" lon="2.816585">
        <ele>34.184265</ele>
        <time>2023-11-09T10:25:46.622Z</time>
      </trkpt>
      <trkpt lat="49.415398" lon="2.815922">
        <ele>34.175080</ele>
        <time>2023-11-09T10:25:54.967Z</time>
      </trkpt>
      <trkpt lat="49.415047" lon="2.815282">
        <ele>34.148182</ele>
        <time>2023-11-09T10:26:02.779Z</time>
      </trkpt>
      <trkpt lat="49.415024" lon="2.815210">
        <ele>34.145604</ele>
        <time>2023-11-09T10:26:03.485Z</time>
      </trkpt>
      <trkpt lat="49.414670" lon="2.814394">
        <ele>34.114088</ele>
        <time>2023-11-09T10:26:12.692Z</time>
      </trkpt>
      <trkpt lat="49.414019" lon="2.812888">
        <ele>33.761039</ele>
        <time>2023-11-09T10:26:29.007Z</time>
      </trkpt>
      <trkpt lat="49.413987" lon="2.812774">
        <ele>33.735311</ele>
        <time>2023-11-09T10:26:30.093Z</time>
      </trkpt>
      <trkpt lat="49.413922" lon="2.812594">
        <ele>33.692651</ele>
        <time>2023-11-09T10:26:31.901Z</time>
      </trkpt>
      <trkpt lat="49.413844" lon="2.812334">
        <ele>33.633321</ele>
        <time>2023-11-09T10:26:34.475Z</time>
      </trkpt>
      <trkpt lat="49.413706" lon="2.811891">
        <ele>33.528375</ele>
        <time>2023-11-09T10:26:38.856Z</time>
      </trkpt>
      <trkpt lat="49.413111" lon="2.809737">
        <ele>32.773358</ele>
        <time>2023-11-09T10:26:58.811Z</time>
      </trkpt>
      <trkpt lat="49.412768" lon="2.808543">
        <ele>32.766551</ele>
        <time>2023-11-09T10:27:10.387Z</time>
      </trkpt>
      <trkpt lat="49.412676" lon="2.808335">
        <ele>32.800146</ele>
        <time>2023-11-09T10:27:12.824Z</time>
      </trkpt>
      <trkpt lat="49.412540" lon="2.808173">
        <ele>32.835470</ele>
        <time>2023-11-09T10:27:15.427Z</time>
      </trkpt>
      <trkpt lat="49.412427" lon="2.808093">
        <ele>32.861012</ele>
        <time>2023-11-09T10:27:17.348Z</time>
      </trkpt>
      <trkpt lat="49.412180" lon="2.807914">
        <ele>32.917075</ele>
        <time>2023-11-09T10:27:21.694Z</time>
      </trkpt>
      <trkpt lat="49.411785" lon="2.807813">
        <ele>32.999283</ele>
        <time>2023-11-09T10:27:28.873Z</time>
      </trkpt>
      <trkpt lat="49.411547" lon="2.807771">
        <ele>33.174356</ele>
        <time>2023-11-09T10:27:33.312Z</time>
      </trkpt>
      <trkpt lat="49.411268" lon="2.807722">
        <ele>33.445764</ele>
        <time>2023-11-09T10:27:38.670Z</time>
      </trkpt>
      <trkpt lat="49.411215" lon="2.807711">
        <ele>33.497453</ele>
        <time>2023-11-09T10:27:39.723Z</time>
      </trkpt>
      <trkpt lat="49.411038" lon="2.807612">
        <ele>33.679499</ele>
        <time>2023-11-09T10:27:43.462Z</time>
      </trkpt>
      <trkpt lat="49.410992" lon="2.807490">
        <ele>33.768168</ele>
        <time>2023-11-09T10:27:45.314Z</time>
      </trkpt>
      <trkpt lat="49.410924" lon="2.807394">
        <ele>33.857407</ele>
        <time>2023-11-09T10:27:47.175Z</time>
      </trkpt>
      <trkpt lat="49.410805" lon="2.807307">
        <ele>33.984769</ele>
        <time>2023-11-09T10:27:49.769Z</time>
      </trkpt>
      <trkpt lat="49.410641" lon="2.807346">
        <ele>34.145161</ele>
        <time>2023-11-09T10:27:52.935Z</time>
      </trkpt>
      <trkpt lat="49.410567" lon="2.807400">
        <ele>34.224333</ele>
        <time>2023-11-09T10:27:54.479Z</time>
      </trkpt>
      <trkpt lat="49.410486" lon="2.807551">
        <ele>34.347399</ele>
        <time>2023-11-09T10:27:56.782Z</time>
      </trkpt>
      <trkpt lat="49.410388" lon="2.807627">
        <ele>34.453490</ele>
        <time>2023-11-09T10:27:58.725Z</time>
      </trkpt>
      <trkpt lat="49.410196" lon="2.807670">
        <ele>34.641017</ele>
        <time>2023-11-09T10:28:02.068Z</time>
      </trkpt>
      <trkpt lat="49.410158" lon="2.807628">
        <ele>34.686255</ele>
        <time>2023-11-09T10:28:02.859Z</time>
      </trkpt>
      <trkpt lat="49.409775" lon="2.807205">
        <ele>35.169290</ele>
        <time>2023-11-09T10:28:11.304Z</time>
      </trkpt>
      <trkpt lat="49.409584" lon="2.807030">
        <ele>35.399228</ele>
        <time>2023-11-09T10:28:15.678Z</time>
      </trkpt>
      <trkpt lat="49.409227" lon="2.806848">
        <ele>35.788165</ele>
        <time>2023-11-09T10:28:23.145Z</time>
      </trkpt>
      <trkpt lat="49.408969" lon="2.806761">
        <ele>36.061298</ele>
        <time>2023-11-09T10:28:28.059Z</time>
      </trkpt>
      <trkpt lat="49.408783" lon="2.806752">
        <ele>36.253728</ele>
        <time>2023-11-09T10:28:31.546Z</time>
      </trkpt>
      <trkpt lat="49.408663" lon="2.806753">
        <ele>36.377817</ele>
        <time>2023-11-09T10:28:33.872Z</time>
      </trkpt>
      <trkpt lat="49.408008" lon="2.806760">
        <ele>37.246801</ele>
        <time>2023-11-09T10:28:46.551Z</time>
      </trkpt>
      <trkpt lat="49.407742" lon="2.806752">
        <ele>37.641114</ele>
        <time>2023-11-09T10:28:51.847Z</time>
      </trkpt>
      <trkpt lat="49.407705" lon="2.806642">
        <ele>37.760529</ele>
        <time>2023-11-09T10:28:53.507Z</time>
      </trkpt>
      <trkpt lat="49.407644" lon="2.806613">
        <ele>37.855164</ele>
        <time>2023-11-09T10:28:54.823Z</time>
      </trkpt>
      <trkpt lat="49.407581" lon="2.806658">
        <ele>37.958128</ele>
        <time>2023-11-09T10:28:56.340Z</time>
      </trkpt>
      <trkpt lat="49.407553" lon="2.806773">
        <ele>38.076540</ele>
        <time>2023-11-09T10:28:58.066Z</time>
      </trkpt>
      <trkpt lat="49.407167" lon="2.806957">
        <ele>38.675516</ele>
        <time>2023-11-09T10:29:07.170Z</time>
      </trkpt>
      <trkpt lat="49.406730" lon="2.807320">
        <ele>39.396837</ele>
        <time>2023-11-09T10:29:17.937Z</time>
      </trkpt>
      <trkpt lat="49.406642" lon="2.807433">
        <ele>39.547771</ele>
        <time>2023-11-09T10:29:20.285Z</time>
      </trkpt>
      <trkpt lat="49.406446" lon="2.807686">
        <ele>39.884669</ele>
        <time>2023-11-09T10:29:25.383Z</time>
      </trkpt>
      <trkpt lat="49.406234" lon="2.807948">
        <ele>40.242732</ele>
        <time>2023-11-09T10:29:30.839Z</time>
      </trkpt>
      <trkpt lat="49.406151" lon="2.808052">
        <ele>40.383685</ele>
        <time>2023-11-09T10:29:33.014Z</time>
      </trkpt>
      <trkpt lat="49.405752" lon="2.808554">
        <ele>41.062390</ele>
        <time>2023-11-09T10:29:43.540Z</time>
      </trkpt>
      <trkpt lat="49.405718" lon="2.808603">
        <ele>41.123739</ele>
        <time>2023-11-09T10:29:44.471Z</time>
      </trkpt>
      <trkpt lat="49.405239" lon="2.809209">
        <ele>41.757253</ele>
        <time>2023-11-09T10:29:56.580Z</time>
      </trkpt>
      <trkpt lat="49.405208" lon="2.809255">
        <ele>41.778699</ele>
        <time>2023-11-09T10:29:57.360Z</time>
      </trkpt>
      <trkpt lat="49.404511" lon="2.810337">
        <ele>42.271743</ele>
        <time>2023-11-09T10:30:14.113Z</time>
      </trkpt>
      <trkpt lat="49.404460" lon="2.810296">
        <ele>42.300387</ele>
        <time>2023-11-09T10:30:14.952Z</time>
      </trkpt>
      <trkpt lat="49.404356" lon="2.810295">
        <ele>42.352145</ele>
        <time>2023-11-09T10:30:16.560Z</time>
      </trkpt>
      <trkpt lat="49.404096" lon="2.810231">
        <ele>42.483186</ele>
        <time>2023-11-09T10:30:20.577Z</time>
      </trkpt>
      <trkpt lat="49.403356" lon="2.809578">
        <ele>42.271472</ele>
        <time>2023-11-09T10:30:32.858Z</time>
      </trkpt>
      <trkpt lat="49.403239" lon="2.809475">
        <ele>42.222154</ele>
        <time>2023-11-09T10:30:34.704Z</time>
      </trkpt>
      <trkpt lat="49.402923" lon="2.809193">
        <ele>42.088500</ele>
        <time>2023-11-09T10:30:39.500Z</time>
      </trkpt>
      <trkpt lat="49.402780" lon="2.809064">
        <ele>42.027851</ele>
        <time>2023-11-09T10:30:41.719Z</time>
      </trkpt>
      <trkpt lat="49.402669" lon="2.808966">
        <ele>41.981028</ele>
        <time>2023-11-09T10:30:43.379Z</time>
      </trkpt>
      <trkpt lat="49.402296" lon="2.808636">
        <ele>41.690737</ele>
        <time>2023-11-09T10:30:48.959Z</time>
      </trkpt>
      <trkpt lat="49.401872" lon="2.808253">
        <ele>41.109675</ele>
        <time>2023-11-09T10:30:55.137Z</time>
      </trkpt>
      <trkpt lat="49.400997" lon="2.807470">
        <ele>39.913415</ele>
        <time>2023-11-09T10:31:07.069Z</time>
      </trkpt>
      <trkpt lat="49.400682" lon="2.807191">
        <ele>39.442166</ele>
        <time>2023-11-09T10:31:11.094Z</time>
      </trkpt>
      <trkpt lat="49.400589" lon="2.807109">
        <ele>39.296233</ele>
        <time>2023-11-09T10:31:12.295Z</time>
      </trkpt>
      <trkpt lat="49.400248" lon="2.806811">
        <ele>38.762318</ele>
        <time>2023-11-09T10:31:16.661Z</time>
      </trkpt>
      <trkpt lat="49.399472" lon="2.806103">
        <ele>37.534018</ele>
        <time>2023-11-09T10:31:27.028Z</time>
      </trkpt>
      <trkpt lat="49.398269" lon="2.805043">
        <ele>37.494904</ele>
        <time>2023-11-09T10:31:47.184Z</time>
      </trkpt>
      <trkpt lat="49.398204" lon="2.804988">
        <ele>37.506117</ele>
        <time>2023-11-09T10:31:48.458Z</time>
      </trkpt>
      <trkpt lat="49.397761" lon="2.804586">
        <ele>37.595597</ele>
        <time>2023-11-09T10:31:58.004Z</time>
      </trkpt>
      <trkpt lat="49.397344" lon="2.804250">
        <ele>38.114130</ele>
        <time>2023-11-09T10:32:06.625Z</time>
      </trkpt>
      <trkpt lat="49.397085" lon="2.804149">
        <ele>38.408398</ele>
        <time>2023-11-09T10:32:11.501Z</time>
      </trkpt>
      <trkpt lat="49.396429" lon="2.803957">
        <ele>39.143810</ele>
        <time>2023-11-09T10:32:23.913Z</time>
      </trkpt>
      <trkpt lat="49.395187" lon="2.803615">
        <ele>41.674218</ele>
        <time>2023-11-09T10:32:51.707Z</time>
      </trkpt>
      <trkpt lat="49.394730" lon="2.803485">
        <ele>42.787653</ele>
        <time>2023-11-09T10:33:04.425Z</time>
      </trkpt>
      <trkpt lat="49.394645" lon="2.803460">
        <ele>42.994983</ele>
        <time>2023-11-09T10:33:06.753Z</time>
      </trkpt>
      <trkpt lat="49.393566" lon="2.803165">
        <ele>45.685162</ele>
        <time>2023-11-09T10:33:35.882Z</time>
      </trkpt>
      <trkpt lat="49.393464" lon="2.803117">
        <ele>45.950172</ele>
        <time>2023-11-09T10:33:38.844Z</time>
      </trkpt>
      <trkpt lat="49.393343" lon="2.802949">
        <ele>46.355315</ele>
        <time>2023-11-09T10:33:43.230Z</time>
      </trkpt>
      <trkpt lat="49.393264" lon="2.802742">
        <ele>46.743305</ele>
        <time>2023-11-09T10:33:47.567Z</time>
      </trkpt>
      <trkpt lat="49.393197" lon="2.802540">
        <ele>47.109882</ele>
        <time>2023-11-09T10:33:51.176Z</time>
      </trkpt>
      <trkpt lat="49.393025" lon="2.802324">
        <ele>47.661740</ele>
        <time>2023-11-09T10:33:56.868Z</time>
      </trkpt>
      <trkpt lat="49.393009" lon="2.802251">
        <ele>47.786287</ele>
        <time>2023-11-09T10:33:57.870Z</time>
      </trkpt>
      <trkpt lat="49.392948" lon="2.802154">
        <ele>48.004374</ele>
        <time>2023-11-09T10:33:59.643Z</time>
      </trkpt>
      <trkpt lat="49.392638" lon="2.802072">
        <ele>48.347732</ele>
        <time>2023-11-09T10:34:05.696Z</time>
      </trkpt>
      <trkpt lat="49.392531" lon="2.802173">
        <ele>48.353164</ele>
        <time>2023-11-09T10:34:07.897Z</time>
      </trkpt>
      <trkpt lat="49.392387" lon="2.802297">
        <ele>48.360304</ele>
        <time>2023-11-09T10:34:10.593Z</time>
      </trkpt>
      <trkpt lat="49.392238" lon="2.802332">
        <ele>48.366824</ele>
        <time>2023-11-09T10:34:12.573Z</time>
      </trkpt>
      <trkpt lat="49.392151" lon="2.802409">
        <ele>48.371167</ele>
        <time>2023-11-09T10:34:14.148Z</time>
      </trkpt>
      <trkpt lat="49.391806" lon="2.802592">
        <ele>48.386954</ele>
        <time>2023-11-09T10:34:19.102Z</time>
      </trkpt>
      <trkpt lat="49.391664" lon="2.802627">
        <ele>48.393175</ele>
        <time>2023-11-09T10:34:20.972Z</time>
      </trkpt>
      <trkpt lat="49.391558" lon="2.802610">
        <ele>48.397785</ele>
        <time>2023-11-09T10:34:22.397Z</time>
      </trkpt>
      <trkpt lat="49.391168" lon="2.802503">
        <ele>48.414922</ele>
        <time>2023-11-09T10:34:27.884Z</time>
      </trkpt>
      <trkpt lat="49.389429" lon="2.802030">
        <ele>46.900499</ele>
        <time>2023-11-09T10:34:49.767Z</time>
      </trkpt>
      <trkpt lat="49.388180" lon="2.801684">
        <ele>44.953655</ele>
        <time>2023-11-09T10:35:04.874Z</time>
      </trkpt>
      <trkpt lat="49.385488" lon="2.800932">
        <ele>39.747580</ele>
        <time>2023-11-09T10:35:34.259Z</time>
      </trkpt>
      <trkpt lat="49.384090" lon="2.800541">
        <ele>38.504050</ele>
        <time>2023-11-09T10:35:51.512Z</time>
      </trkpt>
      <trkpt lat="49.381159" lon="2.799734">
        <ele>43.769752</ele>
        <time>2023-11-09T10:37:00.326Z</time>
      </trkpt>
      <trkpt lat="49.380502" lon="2.799554">
        <ele>45.081064</ele>
        <time>2023-11-09T10:37:16.033Z</time>
      </trkpt>
      <trkpt lat="49.376836" lon="2.798536">
        <ele>49.268089</ele>
        <time>2023-11-09T10:38:28.273Z</time>
      </trkpt>
      <trkpt lat="49.376544" lon="2.798371">
        <ele>49.167807</ele>
        <time>2023-11-09T10:38:33.295Z</time>
      </trkpt>
      <trkpt lat="49.376560" lon="2.798314">
        <ele>49.154782</ele>
        <time>2023-11-09T10:38:34.082Z</time>
      </trkpt>
      <trkpt lat="49.376472" lon="2.798145">
        <ele>49.109370</ele>
        <time>2023-11-09T10:38:36.193Z</time>
      </trkpt>
      <trkpt lat="49.376402" lon="2.797959">
        <ele>49.064287</ele>
        <time>2023-11-09T10:38:38.238Z</time>
      </trkpt>
      <trkpt lat="49.376339" lon="2.797933">
        <ele>49.043261</ele>
        <time>2023-11-09T10:38:39.157Z</time>
      </trkpt>
      <trkpt lat="49.376248" lon="2.797899">
        <ele>49.013076</ele>
        <time>2023-11-09T10:38:40.447Z</time>
      </trkpt>
      <trkpt lat="49.376206" lon="2.797887">
        <ele>48.999307</ele>
        <time>2023-11-09T10:38:41.039Z</time>
      </trkpt>
      <trkpt lat="49.376049" lon="2.798062">
        <ele>48.936783</ele>
        <time>2023-11-09T10:38:43.697Z</time>
      </trkpt>
      <trkpt lat="49.375975" lon="2.798126">
        <ele>48.909411</ele>
        <time>2023-11-09T10:38:44.805Z</time>
      </trkpt>
      <trkpt lat="49.375922" lon="2.798151">
        <ele>48.891541</ele>
        <time>2023-11-09T10:38:45.518Z</time>
      </trkpt>
      <trkpt lat="49.370281" lon="2.796606">
        <ele>42.147191</ele>
        <time>2023-11-09T10:39:52.235Z</time>
      </trkpt>
      <trkpt lat="49.366845" lon="2.795645">
        <ele>44.398869</ele>
        <time>2023-11-09T10:40:55.416Z</time>
      </trkpt>
      <trkpt lat="49.366611" lon="2.795592">
        <ele>44.604034</ele>
        <time>2023-11-09T10:41:00.281Z</time>
      </trkpt>
      <trkpt lat="49.361927" lon="2.794243">
        <ele>48.302470</ele>
        <time>2023-11-09T10:42:29.901Z</time>
      </trkpt>
      <trkpt lat="49.361553" lon="2.794168">
        <ele>48.309999</ele>
        <time>2023-11-09T10:42:34.356Z</time>
      </trkpt>
      <trkpt lat="49.361208" lon="2.794016">
        <ele>48.213722</ele>
        <time>2023-11-09T10:42:38.476Z</time>
      </trkpt>
      <trkpt lat="49.360929" lon="2.793781">
        <ele>47.550592</ele>
        <time>2023-11-09T10:42:42.093Z</time>
      </trkpt>
      <trkpt lat="49.360495" lon="2.793337">
        <ele>46.463833</ele>
        <time>2023-11-09T10:42:47.765Z</time>
      </trkpt>
      <trkpt lat="49.360197" lon="2.792994">
        <ele>45.687730</ele>
        <time>2023-11-09T10:42:51.683Z</time>
      </trkpt>
      <trkpt lat="49.360111" lon="2.793076">
        <ele>45.476774</ele>
        <time>2023-11-09T10:42:52.765Z</time>
      </trkpt>
      <trkpt lat="49.359613" lon="2.792474">
        <ele>44.321438</ele>
        <time>2023-11-09T10:42:59.471Z</time>
      </trkpt>
      <trkpt lat="49.359388" lon="2.792195">
        <ele>43.960735</ele>
        <time>2023-11-09T10:43:02.703Z</time>
      </trkpt>
      <trkpt lat="49.359043" lon="2.791774">
        <ele>43.411111</ele>
        <time>2023-11-09T10:43:07.999Z</time>
      </trkpt>
      <trkpt lat="49.358836" lon="2.791519">
        <ele>43.080119</ele>
        <time>2023-11-09T10:43:11.421Z</time>
      </trkpt>
      <trkpt lat="49.358779" lon="2.791447">
        <ele>42.988063</ele>
        <time>2023-11-09T10:43:12.385Z</time>
      </trkpt>
      <trkpt lat="49.358393" lon="2.790965">
        <ele>42.367535</ele>
        <time>2023-11-09T10:43:18.687Z</time>
      </trkpt>
      <trkpt lat="49.358194" lon="2.790711">
        <ele>42.118858</ele>
        <time>2023-11-09T10:43:21.906Z</time>
      </trkpt>
      <trkpt lat="49.358013" lon="2.790490">
        <ele>41.906719</ele>
        <time>2023-11-09T10:43:24.843Z</time>
      </trkpt>
      <trkpt lat="49.357790" lon="2.790225">
        <ele>41.648040</ele>
        <time>2023-11-09T10:43:28.485Z</time>
      </trkpt>
      <trkpt lat="49.357397" lon="2.789651">
        <ele>41.150463</ele>
        <time>2023-11-09T10:43:35.324Z</time>
      </trkpt>
      <trkpt lat="49.357002" lon="2.789194">
        <ele>40.696757</ele>
        <time>2023-11-09T10:43:41.244Z</time>
      </trkpt>
      <trkpt lat="49.356776" lon="2.788891">
        <ele>40.274970</ele>
        <time>2023-11-09T10:43:44.760Z</time>
      </trkpt>
      <trkpt lat="49.356417" lon="2.788460">
        <ele>39.615147</ele>
        <time>2023-11-09T10:43:50.047Z</time>
      </trkpt>
      <trkpt lat="49.355958" lon="2.787972">
        <ele>38.806799</ele>
        <time>2023-11-09T10:43:56.448Z</time>
      </trkpt>
      <trkpt lat="49.355145" lon="2.786982">
        <ele>37.414762</ele>
        <time>2023-11-09T10:44:08.286Z</time>
      </trkpt>
      <trkpt lat="49.354848" lon="2.786617">
        <ele>36.943268</ele>
        <time>2023-11-09T10:44:12.756Z</time>
      </trkpt>
      <trkpt lat="49.354792" lon="2.786492">
        <ele>36.820796</ele>
        <time>2023-11-09T10:44:13.926Z</time>
      </trkpt>
      <trkpt lat="49.354577" lon="2.786194">
        <ele>36.461807</ele>
        <time>2023-11-09T10:44:17.418Z</time>
      </trkpt>
      <trkpt lat="49.354212" lon="2.785729">
        <ele>35.873978</ele>
        <time>2023-11-09T10:44:23.247Z</time>
      </trkpt>
      <trkpt lat="49.353950" lon="2.785410">
        <ele>35.722972</ele>
        <time>2023-11-09T10:44:27.452Z</time>
      </trkpt>
      <trkpt lat="49.353504" lon="2.784971">
        <ele>35.519023</ele>
        <time>2023-11-09T10:44:34.274Z</time>
      </trkpt>
      <trkpt lat="49.352194" lon="2.783356">
        <ele>35.584304</ele>
        <time>2023-11-09T10:44:58.930Z</time>
      </trkpt>
      <trkpt lat="49.351956" lon="2.783065">
        <ele>35.768248</ele>
        <time>2023-11-09T10:45:04.238Z</time>
      </trkpt>
      <trkpt lat="49.351537" lon="2.782549">
        <ele>36.092990</ele>
        <time>2023-11-09T10:45:14.193Z</time>
      </trkpt>
      <trkpt lat="49.350972" lon="2.781857">
        <ele>36.954103</ele>
        <time>2023-11-09T10:45:29.047Z</time>
      </trkpt>
      <trkpt lat="49.350472" lon="2.781243">
        <ele>37.900944</ele>
        <time>2023-11-09T10:45:42.568Z</time>
      </trkpt>
      <trkpt lat="49.350301" lon="2.781034">
        <ele>38.224171</ele>
        <time>2023-11-09T10:45:47.317Z</time>
      </trkpt>
      <trkpt lat="49.350117" lon="2.780809">
        <ele>38.572038</ele>
        <time>2023-11-09T10:45:52.357Z</time>
      </trkpt>
      <trkpt lat="49.350050" lon="2.780728">
        <ele>38.698151</ele>
        <time>2023-11-09T10:45:54.178Z</time>
      </trkpt>
      <trkpt lat="49.349675" lon="2.780269">
        <ele>39.245251</ele>
        <time>2023-11-09T10:46:04.070Z</time>
      </trkpt>
      <trkpt lat="49.346964" lon="2.776929">
        <ele>42.545265</ele>
        <time>2023-11-09T10:47:07.526Z</time>
      </trkpt>
      <trkpt lat="49.346853" lon="2.776790">
        <ele>42.721766</ele>
        <time>2023-11-09T10:47:10.296Z</time>
      </trkpt>
      <trkpt lat="49.346783" lon="2.776705">
        <ele>42.831737</ele>
        <time>2023-11-09T10:47:12.054Z</time>
      </trkpt>
      <trkpt lat="49.346529" lon="2.776394">
        <ele>43.232060</ele>
        <time>2023-11-09T10:47:18.496Z</time>
      </trkpt>
      <trkpt lat="49.346066" lon="2.775828">
        <ele>43.961333</ele>
        <time>2023-11-09T10:47:30.595Z</time>
      </trkpt>
      <trkpt lat="49.345924" lon="2.775607">
        <ele>44.210491</ele>
        <time>2023-11-09T10:47:34.874Z</time>
      </trkpt>
      <trkpt lat="49.344836" lon="2.774233">
        <ele>45.364128</ele>
        <time>2023-11-09T10:48:02.248Z</time>
      </trkpt>
      <trkpt lat="49.344737" lon="2.774110">
        <ele>45.458539</ele>
        <time>2023-11-09T10:48:04.482Z</time>
      </trkpt>
      <trkpt lat="49.342288" lon="2.771136">
        <ele>45.104203</ele>
        <time>2023-11-09T10:48:47.935Z</time>
      </trkpt>
      <trkpt lat="49.341197" lon="2.769794">
        <ele>44.688394</ele>
        <time>2023-11-09T10:49:06.453Z</time>
      </trkpt>
      <trkpt lat="49.339396" lon="2.767570">
        <ele>44.763826</ele>
        <time>2023-11-09T10:49:40.907Z</time>
      </trkpt>
      <trkpt lat="49.338994" lon="2.767071">
        <ele>44.907165</ele>
        <time>2023-11-09T10:49:49.752Z</time>
      </trkpt>
      <trkpt lat="49.338878" lon="2.766933">
        <ele>44.947855</ele>
        <time>2023-11-09T10:49:52.429Z</time>
      </trkpt>
      <trkpt lat="49.337767" lon="2.765627">
        <ele>45.490857</ele>
        <time>2023-11-09T10:50:16.396Z</time>
      </trkpt>
      <trkpt lat="49.336704" lon="2.764308">
        <ele>45.532937</ele>
        <time>2023-11-09T10:50:37.033Z</time>
      </trkpt>
      <trkpt lat="49.334713" lon="2.761867">
        <ele>44.603828</ele>
        <time>2023-11-09T10:51:10.645Z</time>
      </trkpt>
      <trkpt lat="49.334167" lon="2.761195">
        <ele>44.552988</ele>
        <time>2023-11-09T10:51:20.498Z</time>
      </trkpt>
      <trkpt lat="49.331852" lon="2.758355">
        <ele>45.326591</ele>
        <time>2023-11-09T10:52:08.101Z</time>
      </trkpt>
      <trkpt lat="49.330206" lon="2.756331">
        <ele>45.855033</ele>
        <time>2023-11-09T10:52:43.120Z</time>
      </trkpt>
      <trkpt lat="49.328671" lon="2.754435">
        <ele>44.458983</ele>
        <time>2023-11-09T10:53:07.740Z</time>
      </trkpt>
      <trkpt lat="49.325663" lon="2.750755">
        <ele>40.286856</ele>
        <time>2023-11-09T10:53:54.829Z</time>
      </trkpt>
      <trkpt lat="49.325177" lon="2.750059">
        <ele>39.147027</ele>
        <time>2023-11-09T10:54:02.383Z</time>
      </trkpt>
      <trkpt lat="49.324868" lon="2.749471">
        <ele>38.302980</ele>
        <time>2023-11-09T10:54:07.630Z</time>
      </trkpt>
      <trkpt lat="49.324827" lon="2.749252">
        <ele>38.023853</ele>
        <time>2023-11-09T10:54:09.212Z</time>
      </trkpt>
      <trkpt lat="49.324829" lon="2.749029">
        <ele>37.688786</ele>
        <time>2023-11-09T10:54:10.748Z</time>
      </trkpt>
      <trkpt lat="49.324801" lon="2.748925">
        <ele>37.519730</ele>
        <time>2023-11-09T10:54:11.517Z</time>
      </trkpt>
      <trkpt lat="49.324755" lon="2.748837">
        <ele>37.350251</ele>
        <time>2023-11-09T10:54:12.287Z</time>
      </trkpt>
      <trkpt lat="49.324626" lon="2.748733">
        <ele>37.014339</ele>
        <time>2023-11-09T10:54:13.847Z</time>
      </trkpt>
      <trkpt lat="49.324533" lon="2.748583">
        <ele>36.703302</ele>
        <time>2023-11-09T10:54:15.246Z</time>
      </trkpt>
      <trkpt lat="49.324255" lon="2.747858">
        <ele>35.439531</ele>
        <time>2023-11-09T10:54:21.067Z</time>
      </trkpt>
      <trkpt lat="49.324089" lon="2.747117">
        <ele>34.262313</ele>
        <time>2023-11-09T10:54:26.664Z</time>
      </trkpt>
      <trkpt lat="49.323906" lon="2.746043">
        <ele>33.371952</ele>
        <time>2023-11-09T10:54:34.512Z</time>
      </trkpt>
      <trkpt lat="49.323882" lon="2.745747">
        <ele>33.176476</ele>
        <time>2023-11-09T10:54:36.724Z</time>
      </trkpt>
      <trkpt lat="49.323735" lon="2.744854">
        <ele>32.572883</ele>
        <time>2023-11-09T10:54:44.277Z</time>
      </trkpt>
      <trkpt lat="49.323595" lon="2.744198">
        <ele>32.187936</ele>
        <time>2023-11-09T10:54:51.446Z</time>
      </trkpt>
      <trkpt lat="49.323513" lon="2.744020">
        <ele>32.261724</ele>
        <time>2023-11-09T10:54:53.759Z</time>
      </trkpt>
      <trkpt lat="49.323278" lon="2.743288">
        <ele>32.537947</ele>
        <time>2023-11-09T10:55:03.450Z</time>
      </trkpt>
      <trkpt lat="49.322899" lon="2.742448">
        <ele>32.883787</ele>
        <time>2023-11-09T10:55:14.979Z</time>
      </trkpt>
      <trkpt lat="49.322550" lon="2.741843">
        <ele>33.048026</ele>
        <time>2023-11-09T10:55:23.945Z</time>
      </trkpt>
      <trkpt lat="49.322221" lon="2.741398">
        <ele>32.847832</ele>
        <time>2023-11-09T10:55:31.152Z</time>
      </trkpt>
      <trkpt lat="49.321956" lon="2.741081">
        <ele>32.694453</ele>
        <time>2023-11-09T10:55:35.940Z</time>
      </trkpt>
      <trkpt lat="49.321419" lon="2.740590">
        <ele>32.409117</ele>
        <time>2023-11-09T10:55:43.620Z</time>
      </trkpt>
      <trkpt lat="49.320780" lon="2.740187">
        <ele>31.932054</ele>
        <time>2023-11-09T10:55:51.519Z</time>
      </trkpt>
      <trkpt lat="49.320166" lon="2.739949">
        <ele>31.389480</ele>
        <time>2023-11-09T10:55:58.855Z</time>
      </trkpt>
      <trkpt lat="49.319555" lon="2.739852">
        <ele>30.863212</ele>
        <time>2023-11-09T10:56:06.869Z</time>
      </trkpt>
      <trkpt lat="49.319048" lon="2.739864">
        <ele>31.171182</ele>
        <time>2023-11-09T10:56:15.482Z</time>
      </trkpt>
      <trkpt lat="49.318198" lon="2.740058">
        <ele>32.207327</ele>
        <time>2023-11-09T10:56:33.669Z</time>
      </trkpt>
      <trkpt lat="49.317528" lon="2.740238">
        <ele>32.928757</ele>
        <time>2023-11-09T10:56:48.251Z</time>
      </trkpt>
      <trkpt lat="49.317295" lon="2.740224">
        <ele>32.981726</ele>
        <time>2023-11-09T10:56:53.256Z</time>
      </trkpt>
      <trkpt lat="49.317010" lon="2.740089">
        <ele>33.049484</ele>
        <time>2023-11-09T10:56:59.122Z</time>
      </trkpt>
      <trkpt lat="49.316849" lon="2.739929">
        <ele>33.093061</ele>
        <time>2023-11-09T10:57:02.574Z</time>
      </trkpt>
      <trkpt lat="49.315185" lon="2.737884">
        <ele>32.772639</ele>
        <time>2023-11-09T10:57:29.787Z</time>
      </trkpt>
      <trkpt lat="49.314352" lon="2.736861">
        <ele>32.814129</ele>
        <time>2023-11-09T10:57:44.877Z</time>
      </trkpt>
      <trkpt lat="49.313060" lon="2.735279">
        <ele>34.289922</ele>
        <time>2023-11-09T10:58:17.012Z</time>
      </trkpt>
      <trkpt lat="49.312861" lon="2.735031">
        <ele>34.633315</ele>
        <time>2023-11-09T10:58:22.405Z</time>
      </trkpt>
      <trkpt lat="49.310747" lon="2.732432">
        <ele>38.113063</ele>
        <time>2023-11-09T10:59:17.246Z</time>
      </trkpt>
      <trkpt lat="49.310332" lon="2.731946">
        <ele>38.650164</ele>
        <time>2023-11-09T10:59:27.070Z</time>
      </trkpt>
      <trkpt lat="49.309266" lon="2.730633">
        <ele>39.473319</ele>
        <time>2023-11-09T10:59:50.651Z</time>
      </trkpt>
      <trkpt lat="49.309091" lon="2.730423">
        <ele>39.607100</ele>
        <time>2023-11-09T10:59:54.118Z</time>
      </trkpt>
      <trkpt lat="49.308095" lon="2.729192">
        <ele>39.863911</ele>
        <time>2023-11-09T11:00:13.876Z</time>
      </trkpt>
      <trkpt lat="49.307982" lon="2.729100">
        <ele>39.888016</ele>
        <time>2023-11-09T11:00:15.832Z</time>
      </trkpt>
      <trkpt lat="49.307929" lon="2.729097">
        <ele>39.898009</ele>
        <time>2023-11-09T11:00:16.629Z</time>
      </trkpt>
      <trkpt lat="49.307543" lon="2.729215">
        <ele>39.983889</ele>
        <time>2023-11-09T11:00:22.604Z</time>
      </trkpt>
      <trkpt lat="49.307208" lon="2.729271">
        <ele>40.281811</ele>
        <time>2023-11-09T11:00:27.822Z</time>
      </trkpt>
      <trkpt lat="49.306733" lon="2.729109">
        <ele>40.712008</ele>
        <time>2023-11-09T11:00:35.979Z</time>
      </trkpt>
      <trkpt lat="49.306401" lon="2.728839">
        <ele>41.044234</ele>
        <time>2023-11-09T11:00:42.755Z</time>
      </trkpt>
      <trkpt lat="49.305887" lon="2.728355">
        <ele>41.633126</ele>
        <time>2023-11-09T11:00:55.201Z</time>
      </trkpt>
      <trkpt lat="49.305216" lon="2.727710">
        <ele>44.460262</ele>
        <time>2023-11-09T11:01:14.121Z</time>
      </trkpt>
      <trkpt lat="49.304674" lon="2.727382">
        <ele>46.540424</ele>
        <time>2023-11-09T11:01:31.462Z</time>
      </trkpt>
      <trkpt lat="49.304337" lon="2.727177">
        <ele>47.834717</ele>
        <time>2023-11-09T11:01:44.566Z</time>
      </trkpt>
      <trkpt lat="49.304232" lon="2.727111">
        <ele>48.588317</ele>
        <time>2023-11-09T11:01:49.033Z</time>
      </trkpt>
      <trkpt lat="49.303741" lon="2.726765">
        <ele>53.108662</ele>
        <time>2023-11-09T11:02:11.437Z</time>
      </trkpt>
      <trkpt lat="49.303290" lon="2.726438">
        <ele>57.281931</ele>
        <time>2023-11-09T11:02:36.152Z</time>
      </trkpt>
      <trkpt lat="49.303064" lon="2.726329">
        <ele>59.263837</ele>
        <time>2023-11-09T11:02:49.049Z</time>
      </trkpt>
      <trkpt lat="49.302833" lon="2.726419">
        <ele>61.257668</ele>
        <time>2023-11-09T11:03:02.705Z</time>
      </trkpt>
      <trkpt lat="49.302692" lon="2.726564">
        <ele>62.677857</ele>
        <time>2023-11-09T11:03:12.159Z</time>
      </trkpt>
      <trkpt lat="49.302377" lon="2.726956">
        <ele>66.692380</ele>
        <time>2023-11-09T11:03:35.352Z</time>
      </trkpt>
      <trkpt lat="49.302234" lon="2.727041">
        <ele>68.237051</ele>
        <time>2023-11-09T11:03:44.356Z</time>
      </trkpt>
      <trkpt lat="49.302149" lon="2.727052">
        <ele>69.096198</ele>
        <time>2023-11-09T11:03:49.050Z</time>
      </trkpt>
      <trkpt lat="49.301992" lon="2.727013">
        <ele>70.698084</ele>
        <time>2023-11-09T11:03:57.674Z</time>
      </trkpt>
      <trkpt lat="49.301847" lon="2.726900">
        <ele>72.336246</ele>
        <time>2023-11-09T11:04:06.671Z</time>
      </trkpt>
      <trkpt lat="49.301727" lon="2.726661">
        <ele>74.317297</ele>
        <time>2023-11-09T11:04:17.179Z</time>
      </trkpt>
      <trkpt lat="49.301704" lon="2.726487">
        <ele>75.483301</ele>
        <time>2023-11-09T11:04:23.712Z</time>
      </trkpt>
      <trkpt lat="49.301728" lon="2.726144">
        <ele>77.748916</ele>
        <time>2023-11-09T11:04:35.786Z</time>
      </trkpt>
      <trkpt lat="49.301783" lon="2.725995">
        <ele>78.873398</ele>
        <time>2023-11-09T11:04:42.167Z</time>
      </trkpt>
      <trkpt lat="49.302075" lon="2.725542">
        <ele>82.619965</ele>
        <time>2023-11-09T11:05:05.060Z</time>
      </trkpt>
      <trkpt lat="49.302201" lon="2.725245">
        <ele>84.415973</ele>
        <time>2023-11-09T11:05:17.194Z</time>
      </trkpt>
      <trkpt lat="49.302267" lon="2.724884">
        <ele>86.316368</ele>
        <time>2023-11-09T11:05:29.416Z</time>
      </trkpt>
      <trkpt lat="49.302279" lon="2.724473">
        <ele>88.401725</ele>
        <time>2023-11-09T11:05:42.304Z</time>
      </trkpt>
      <trkpt lat="49.302251" lon="2.724283">
        <ele>89.389083</ele>
        <time>2023-11-09T11:05:48.232Z</time>
      </trkpt>
      <trkpt lat="49.302199" lon="2.724123">
        <ele>90.295241</ele>
        <time>2023-11-09T11:05:53.653Z</time>
      </trkpt>
      <trkpt lat="49.302086" lon="2.723878">
        <ele>91.816352</ele>
        <time>2023-11-09T11:06:02.308Z</time>
      </trkpt>
      <trkpt lat="49.301270" lon="2.722387">
        <ele>97.876519</ele>
        <time>2023-11-09T11:06:47.228Z</time>
      </trkpt>
      <trkpt lat="49.301204" lon="2.722214">
        <ele>98.302848</ele>
        <time>2023-11-09T11:06:50.462Z</time>
      </trkpt>
      <trkpt lat="49.301168" lon="2.722027">
        <ele>98.717577</ele>
        <time>2023-11-09T11:06:53.553Z</time>
      </trkpt>
      <trkpt lat="49.301164" lon="2.721837">
        <ele>99.121927</ele>
        <time>2023-11-09T11:06:56.282Z</time>
      </trkpt>
      <trkpt lat="49.301225" lon="2.721504">
        <ele>99.857650</ele>
        <time>2023-11-09T11:07:01.020Z</time>
      </trkpt>
      <trkpt lat="49.301370" lon="2.721204">
        <ele>100.651940</ele>
        <time>2023-11-09T11:07:05.719Z</time>
      </trkpt>
      <trkpt lat="49.301602" lon="2.720886">
        <ele>101.173909</ele>
        <time>2023-11-09T11:07:11.356Z</time>
      </trkpt>
      <trkpt lat="49.301671" lon="2.720746">
        <ele>101.274804</ele>
        <time>2023-11-09T11:07:13.292Z</time>
      </trkpt>
      <trkpt lat="49.301743" lon="2.720454">
        <ele>101.454284</ele>
        <time>2023-11-09T11:07:16.523Z</time>
      </trkpt>
      <trkpt lat="49.301838" lon="2.719756">
        <ele>101.864231</ele>
        <time>2023-11-09T11:07:23.237Z</time>
      </trkpt>
      <trkpt lat="49.302160" lon="2.718923">
        <ele>102.420970</ele>
        <time>2023-11-09T11:07:34.965Z</time>
      </trkpt>
      <trkpt lat="49.302189" lon="2.718780">
        <ele>102.507068</ele>
        <time>2023-11-09T11:07:37.142Z</time>
      </trkpt>
      <trkpt lat="49.302205" lon="2.718471">
        <ele>102.812644</ele>
        <time>2023-11-09T11:07:41.849Z</time>
      </trkpt>
      <trkpt lat="49.302192" lon="2.718322">
        <ele>103.000852</ele>
        <time>2023-11-09T11:07:44.187Z</time>
      </trkpt>
      <trkpt lat="49.302122" lon="2.718075">
        <ele>103.338036</ele>
        <time>2023-11-09T11:07:48.507Z</time>
      </trkpt>
      <trkpt lat="49.302007" lon="2.717875">
        <ele>103.671881</ele>
        <time>2023-11-09T11:07:52.724Z</time>
      </trkpt>
      <trkpt lat="49.301933" lon="2.717796">
        <ele>103.844998</ele>
        <time>2023-11-09T11:07:54.857Z</time>
      </trkpt>
      <trkpt lat="49.301668" lon="2.717638">
        <ele>104.390904</ele>
        <time>2023-11-09T11:08:01.602Z</time>
      </trkpt>
      <trkpt lat="49.301488" lon="2.717647">
        <ele>104.736690</ele>
        <time>2023-11-09T11:08:05.716Z</time>
      </trkpt>
      <trkpt lat="49.301283" lon="2.717769">
        <ele>105.158892</ele>
        <time>2023-11-09T11:08:10.614Z</time>
      </trkpt>
      <trkpt lat="49.301101" lon="2.717993">
        <ele>105.606957</ele>
        <time>2023-11-09T11:08:15.838Z</time>
      </trkpt>
      <trkpt lat="49.300844" lon="2.718554">
        <ele>106.314131</ele>
        <time>2023-11-09T11:08:25.429Z</time>
      </trkpt>
      <trkpt lat="49.300592" lon="2.718973">
        <ele>106.779595</ele>
        <time>2023-11-09T11:08:33.151Z</time>
      </trkpt>
      <trkpt lat="49.300316" lon="2.719348">
        <ele>107.241367</ele>
        <time>2023-11-09T11:08:40.382Z</time>
      </trkpt>
      <trkpt lat="49.300082" lon="2.719599">
        <ele>107.598971</ele>
        <time>2023-11-09T11:08:45.923Z</time>
      </trkpt>
      <trkpt lat="49.299356" lon="2.720154">
        <ele>108.468225</ele>
        <time>2023-11-09T11:09:01.433Z</time>
      </trkpt>
      <trkpt lat="49.295636" lon="2.722713">
        <ele>110.379405</ele>
        <time>2023-11-09T11:10:11.615Z</time>
      </trkpt>
      <trkpt lat="49.295064" lon="2.723034">
        <ele>110.170545</ele>
        <time>2023-11-09T11:10:19.564Z</time>
      </trkpt>
      <trkpt lat="49.294816" lon="2.723135">
        <ele>110.082559</ele>
        <time>2023-11-09T11:10:22.660Z</time>
      </trkpt>
      <trkpt lat="49.294548" lon="2.723198">
        <ele>109.855260</ele>
        <time>2023-11-09T11:10:25.814Z</time>
      </trkpt>
      <trkpt lat="49.294213" lon="2.723175">
        <ele>109.198171</ele>
        <time>2023-11-09T11:10:29.599Z</time>
      </trkpt>
      <trkpt lat="49.293854" lon="2.723075">
        <ele>108.483198</ele>
        <time>2023-11-09T11:10:33.593Z</time>
      </trkpt>
      <trkpt lat="49.292948" lon="2.722631">
        <ele>106.619422</ele>
        <time>2023-11-09T11:10:43.653Z</time>
      </trkpt>
      <trkpt lat="49.292769" lon="2.722539">
        <ele>106.412563</ele>
        <time>2023-11-09T11:10:45.631Z</time>
      </trkpt>
      <trkpt lat="49.291111" lon="2.721687">
        <ele>105.524851</ele>
        <time>2023-11-09T11:11:07.733Z</time>
      </trkpt>
      <trkpt lat="49.289386" lon="2.720785">
        <ele>110.477187</ele>
        <time>2023-11-09T11:11:58.349Z</time>
      </trkpt>
      <trkpt lat="49.288831" lon="2.720431">
        <ele>112.256902</ele>
        <time>2023-11-09T11:12:16.554Z</time>
      </trkpt>
      <trkpt lat="49.288805" lon="2.720477">
        <ele>112.374446</ele>
        <time>2023-11-09T11:12:17.725Z</time>
      </trkpt>
      <trkpt lat="49.288684" lon="2.720552">
        <ele>112.760860</ele>
        <time>2023-11-09T11:12:21.439Z</time>
      </trkpt>
      <trkpt lat="49.288309" lon="2.720594">
        <ele>113.874080</ele>
        <time>2023-11-09T11:12:31.547Z</time>
      </trkpt>
      <trkpt lat="49.287540" lon="2.720616">
        <ele>115.648392</ele>
        <time>2023-11-09T11:12:49.596Z</time>
      </trkpt>
      <trkpt lat="49.287115" lon="2.720590">
        <ele>115.919011</ele>
        <time>2023-11-09T11:12:58.035Z</time>
      </trkpt>
      <trkpt lat="49.286773" lon="2.720539">
        <ele>116.137633</ele>
        <time>2023-11-09T11:13:04.020Z</time>
      </trkpt>
      <trkpt lat="49.285840" lon="2.720381">
        <ele>116.543048</ele>
        <time>2023-11-09T11:13:17.647Z</time>
      </trkpt>
      <trkpt lat="49.283465" lon="2.720043">
        <ele>114.345909</ele>
        <time>2023-11-09T11:13:46.578Z</time>
      </trkpt>
      <trkpt lat="49.283169" lon="2.720002">
        <ele>114.053409</ele>
        <time>2023-11-09T11:13:50.188Z</time>
      </trkpt>
      <trkpt lat="49.282266" lon="2.719877">
        <ele>113.177682</ele>
        <time>2023-11-09T11:14:01.425Z</time>
      </trkpt>
      <trkpt lat="49.281885" lon="2.719822">
        <ele>112.855264</ele>
        <time>2023-11-09T11:14:06.269Z</time>
      </trkpt>
      <trkpt lat="49.281584" lon="2.719732">
        <ele>112.596889</ele>
        <time>2023-11-09T11:14:10.186Z</time>
      </trkpt>
      <trkpt lat="49.279786" lon="2.718829">
        <ele>110.779186</ele>
        <time>2023-11-09T11:14:33.750Z</time>
      </trkpt>
      <trkpt lat="49.279400" lon="2.718673">
        <ele>110.343658</ele>
        <time>2023-11-09T11:14:38.490Z</time>
      </trkpt>
      <trkpt lat="49.278958" lon="2.718540">
        <ele>109.852219</ele>
        <time>2023-11-09T11:14:43.766Z</time>
      </trkpt>
      <trkpt lat="49.278285" lon="2.718431">
        <ele>108.995516</ele>
        <time>2023-11-09T11:14:51.601Z</time>
      </trkpt>
      <trkpt lat="49.277195" lon="2.718336">
        <ele>107.598492</ele>
        <time>2023-11-09T11:15:04.485Z</time>
      </trkpt>
      <trkpt lat="49.276926" lon="2.718274">
        <ele>107.363892</ele>
        <time>2023-11-09T11:15:07.815Z</time>
      </trkpt>
      <trkpt lat="49.276772" lon="2.718206">
        <ele>107.253176</ele>
        <time>2023-11-09T11:15:09.796Z</time>
      </trkpt>
      <trkpt lat="49.276646" lon="2.718191">
        <ele>107.165867</ele>
        <time>2023-11-09T11:15:11.377Z</time>
      </trkpt>
      <trkpt lat="49.276163" lon="2.718256">
        <ele>106.830906</ele>
        <time>2023-11-09T11:15:17.541Z</time>
      </trkpt>
      <trkpt lat="49.275705" lon="2.718168">
        <ele>106.512023</ele>
        <time>2023-11-09T11:15:23.606Z</time>
      </trkpt>
      <trkpt lat="49.274706" lon="2.717977">
        <ele>105.985195</ele>
        <time>2023-11-09T11:15:37.292Z</time>
      </trkpt>
      <trkpt lat="49.270095" lon="2.717013">
        <ele>103.880750</ele>
        <time>2023-11-09T11:16:39.645Z</time>
      </trkpt>
      <trkpt lat="49.269202" lon="2.716759">
        <ele>103.223686</ele>
        <time>2023-11-09T11:16:51.025Z</time>
      </trkpt>
      <trkpt lat="49.266355" lon="2.716124">
        <ele>101.218469</ele>
        <time>2023-11-09T11:17:27.663Z</time>
      </trkpt>
      <trkpt lat="49.265675" lon="2.715973">
        <ele>101.026196</ele>
        <time>2023-11-09T11:17:37.192Z</time>
      </trkpt>
      <trkpt lat="49.263158" lon="2.715460">
        <ele>100.636391</ele>
        <time>2023-11-09T11:18:13.421Z</time>
      </trkpt>
      <trkpt lat="49.263053" lon="2.715380">
        <ele>100.628529</ele>
        <time>2023-11-09T11:18:15.142Z</time>
      </trkpt>
      <trkpt lat="49.261813" lon="2.715819">
        <ele>100.808791</ele>
        <time>2023-11-09T11:18:35.365Z</time>
      </trkpt>
      <trkpt lat="49.261412" lon="2.715922">
        <ele>100.879828</ele>
        <time>2023-11-09T11:18:41.909Z</time>
      </trkpt>
      <trkpt lat="49.260965" lon="2.716072">
        <ele>100.735986</ele>
        <time>2023-11-09T11:18:48.889Z</time>
      </trkpt>
      <trkpt lat="49.260798" lon="2.716088">
        <ele>100.537052</ele>
        <time>2023-11-09T11:18:51.283Z</time>
      </trkpt>
      <trkpt lat="49.260686" lon="2.716010">
        <ele>100.390788</ele>
        <time>2023-11-09T11:18:52.911Z</time>
      </trkpt>
      <trkpt lat="49.260454" lon="2.715837">
        <ele>100.084036</ele>
        <time>2023-11-09T11:18:56.296Z</time>
      </trkpt>
      <trkpt lat="49.260335" lon="2.715785">
        <ele>99.936916</ele>
        <time>2023-11-09T11:18:57.801Z</time>
      </trkpt>
      <trkpt lat="49.260222" lon="2.715787">
        <ele>99.802562</ele>
        <time>2023-11-09T11:18:59.188Z</time>
      </trkpt>
      <trkpt lat="49.259750" lon="2.715928">
        <ele>99.230837</ele>
        <time>2023-11-09T11:19:04.779Z</time>
      </trkpt>
      <trkpt lat="49.259138" lon="2.716132">
        <ele>98.027455</ele>
        <time>2023-11-09T11:19:11.410Z</time>
      </trkpt>
      <trkpt lat="49.258207" lon="2.716453">
        <ele>95.194693</ele>
        <time>2023-11-09T11:19:21.047Z</time>
      </trkpt>
      <trkpt lat="49.257346" lon="2.716822">
        <ele>92.715090</ele>
        <time>2023-11-09T11:19:30.108Z</time>
      </trkpt>
      <trkpt lat="49.255508" lon="2.717422">
        <ele>88.653612</ele>
        <time>2023-11-09T11:19:50.427Z</time>
      </trkpt>
      <trkpt lat="49.255062" lon="2.717557">
        <ele>88.090660</ele>
        <time>2023-11-09T11:19:55.709Z</time>
      </trkpt>
      <trkpt lat="49.254004" lon="2.717783">
        <ele>86.929261</ele>
        <time>2023-11-09T11:20:08.891Z</time>
      </trkpt>
      <trkpt lat="49.242668" lon="2.720199">
        <ele>89.241886</ele>
        <time>2023-11-09T11:23:09.290Z</time>
      </trkpt>
      <trkpt lat="49.241660" lon="2.720420">
        <ele>89.405073</ele>
        <time>2023-11-09T11:23:25.393Z</time>
      </trkpt>
      <trkpt lat="49.241411" lon="2.720471">
        <ele>89.278320</ele>
        <time>2023-11-09T11:23:29.008Z</time>
      </trkpt>
      <trkpt lat="49.240682" lon="2.720617">
        <ele>88.876879</ele>
        <time>2023-11-09T11:23:38.819Z</time>
      </trkpt>
      <trkpt lat="49.240316" lon="2.720776">
        <ele>88.669150</ele>
        <time>2023-11-09T11:23:43.573Z</time>
      </trkpt>
      <trkpt lat="49.239938" lon="2.721571">
        <ele>88.419856</ele>
        <time>2023-11-09T11:23:51.394Z</time>
      </trkpt>
      <trkpt lat="49.239722" lon="2.722041">
        <ele>88.409348</ele>
        <time>2023-11-09T11:23:56.189Z</time>
      </trkpt>
      <trkpt lat="49.239464" lon="2.722742">
        <ele>88.394638</ele>
        <time>2023-11-09T11:24:03.718Z</time>
      </trkpt>
      <trkpt lat="49.239381" lon="2.722843">
        <ele>88.391669</ele>
        <time>2023-11-09T11:24:05.389Z</time>
      </trkpt>
      <trkpt lat="49.238904" lon="2.722989">
        <ele>88.378049</ele>
        <time>2023-11-09T11:24:13.725Z</time>
      </trkpt>
      <trkpt lat="49.238334" lon="2.722934">
        <ele>88.960838</ele>
        <time>2023-11-09T11:24:24.642Z</time>
      </trkpt>
      <trkpt lat="49.238114" lon="2.723308">
        <ele>89.378412</ele>
        <time>2023-11-09T11:24:31.355Z</time>
      </trkpt>
      <trkpt lat="49.237136" lon="2.724999">
        <ele>90.871143</ele>
        <time>2023-11-09T11:25:01.996Z</time>
      </trkpt>
      <trkpt lat="49.236852" lon="2.725576">
        <ele>91.084759</ele>
        <time>2023-11-09T11:25:10.207Z</time>
      </trkpt>
      <trkpt lat="49.236327" lon="2.726196">
        <ele>91.384925</ele>
        <time>2023-11-09T11:25:20.142Z</time>
      </trkpt>
      <trkpt lat="49.235881" lon="2.726761">
        <ele>90.988099</ele>
        <time>2023-11-09T11:25:27.613Z</time>
      </trkpt>
      <trkpt lat="49.235696" lon="2.727049">
        <ele>90.651391</ele>
        <time>2023-11-09T11:25:30.783Z</time>
      </trkpt>
      <trkpt lat="49.235602" lon="2.727333">
        <ele>90.386024</ele>
        <time>2023-11-09T11:25:33.243Z</time>
      </trkpt>
      <trkpt lat="49.235354" lon="2.728273">
        <ele>89.541063</ele>
        <time>2023-11-09T11:25:40.693Z</time>
      </trkpt>
      <trkpt lat="49.235300" lon="2.728387">
        <ele>89.423684</ele>
        <time>2023-11-09T11:25:41.713Z</time>
      </trkpt>
      <trkpt lat="49.235180" lon="2.728375">
        <ele>89.270189</ele>
        <time>2023-11-09T11:25:43.034Z</time>
      </trkpt>
      <trkpt lat="49.234808" lon="2.728120">
        <ele>88.747257</ele>
        <time>2023-11-09T11:25:47.606Z</time>
      </trkpt>
      <trkpt lat="49.234645" lon="2.728007">
        <ele>88.517432</ele>
        <time>2023-11-09T11:25:49.673Z</time>
      </trkpt>
      <trkpt lat="49.234387" lon="2.727892">
        <ele>88.172282</ele>
        <time>2023-11-09T11:25:52.813Z</time>
      </trkpt>
      <trkpt lat="49.234253" lon="2.727879">
        <ele>87.999814</ele>
        <time>2023-11-09T11:25:54.395Z</time>
      </trkpt>
      <trkpt lat="49.234195" lon="2.727870">
        <ele>87.924932</ele>
        <time>2023-11-09T11:25:55.090Z</time>
      </trkpt>
      <trkpt lat="49.234118" lon="2.727859">
        <ele>87.825597</ele>
        <time>2023-11-09T11:25:56.006Z</time>
      </trkpt>
      <trkpt lat="49.233518" lon="2.727768">
        <ele>87.051131</ele>
        <time>2023-11-09T11:26:03.364Z</time>
      </trkpt>
      <trkpt lat="49.233314" lon="2.727143">
        <ele>86.582932</ele>
        <time>2023-11-09T11:26:09.020Z</time>
      </trkpt>
      <trkpt lat="49.233179" lon="2.726885">
        <ele>86.386678</ele>
        <time>2023-11-09T11:26:11.671Z</time>
      </trkpt>
      <trkpt lat="49.233043" lon="2.726550">
        <ele>86.152522</ele>
        <time>2023-11-09T11:26:14.839Z</time>
      </trkpt>
      <trkpt lat="49.232953" lon="2.726206">
        <ele>85.932542</ele>
        <time>2023-11-09T11:26:17.835Z</time>
      </trkpt>
      <trkpt lat="49.232829" lon="2.725479">
        <ele>85.486511</ele>
        <time>2023-11-09T11:26:23.983Z</time>
      </trkpt>
      <trkpt lat="49.232743" lon="2.724956">
        <ele>85.207385</ele>
        <time>2023-11-09T11:26:28.418Z</time>
      </trkpt>
      <trkpt lat="49.232678" lon="2.724246">
        <ele>85.042843</ele>
        <time>2023-11-09T11:26:34.180Z</time>
      </trkpt>
      <trkpt lat="49.232641" lon="2.723524">
        <ele>84.876632</ele>
        <time>2023-11-09T11:26:40.273Z</time>
      </trkpt>
      <trkpt lat="49.232599" lon="2.722566">
        <ele>84.656272</ele>
        <time>2023-11-09T11:26:49.260Z</time>
      </trkpt>
      <trkpt lat="49.232552" lon="2.722383">
        <ele>84.611141</ele>
        <time>2023-11-09T11:26:51.441Z</time>
      </trkpt>
      <trkpt lat="49.232429" lon="2.722105">
        <ele>84.795893</ele>
        <time>2023-11-09T11:26:55.200Z</time>
      </trkpt>
      <trkpt lat="49.231267" lon="2.720075">
        <ele>86.511897</ele>
        <time>2023-11-09T11:27:30.039Z</time>
      </trkpt>
      <trkpt lat="49.230645" lon="2.719152">
        <ele>86.919560</ele>
        <time>2023-11-09T11:27:45.400Z</time>
      </trkpt>
      <trkpt lat="49.230356" lon="2.718819">
        <ele>87.089791</ele>
        <time>2023-11-09T11:27:50.982Z</time>
      </trkpt>
      <trkpt lat="49.229267" lon="2.717735">
        <ele>87.379365</ele>
        <time>2023-11-09T11:28:09.177Z</time>
      </trkpt>
      <trkpt lat="49.225092" lon="2.714164">
        <ele>88.282967</ele>
        <time>2023-11-09T11:29:24.094Z</time>
      </trkpt>
      <trkpt lat="49.225002" lon="2.714112">
        <ele>88.353687</ele>
        <time>2023-11-09T11:29:25.673Z</time>
      </trkpt>
      <trkpt lat="49.220377" lon="2.711561">
        <ele>92.026713</ele>
        <time>2023-11-09T11:30:54.221Z</time>
      </trkpt>
      <trkpt lat="49.220323" lon="2.711567">
        <ele>92.068410</ele>
        <time>2023-11-09T11:30:55.211Z</time>
      </trkpt>
      <trkpt lat="49.220281" lon="2.711537">
        <ele>92.104104</ele>
        <time>2023-11-09T11:30:56.035Z</time>
      </trkpt>
      <trkpt lat="49.220269" lon="2.711428">
        <ele>92.135607</ele>
        <time>2023-11-09T11:30:57.309Z</time>
      </trkpt>
      <trkpt lat="49.220242" lon="2.711412">
        <ele>92.145864</ele>
        <time>2023-11-09T11:30:57.816Z</time>
      </trkpt>
      <trkpt lat="49.220207" lon="2.711395">
        <ele>92.158871</ele>
        <time>2023-11-09T11:30:58.468Z</time>
      </trkpt>
      <trkpt lat="49.220160" lon="2.711403">
        <ele>92.175624</ele>
        <time>2023-11-09T11:30:59.541Z</time>
      </trkpt>
      <trkpt lat="49.219724" lon="2.711136">
        <ele>92.341975</ele>
        <time>2023-11-09T11:31:10.113Z</time>
      </trkpt>
      <trkpt lat="49.219105" lon="2.710936">
        <ele>92.566087</ele>
        <time>2023-11-09T11:31:23.739Z</time>
      </trkpt>
      <trkpt lat="49.218885" lon="2.710865">
        <ele>92.645735</ele>
        <time>2023-11-09T11:31:28.408Z</time>
      </trkpt>
      <trkpt lat="49.217634" lon="2.710029">
        <ele>92.777234</ele>
        <time>2023-11-09T11:31:55.550Z</time>
      </trkpt>
      <trkpt lat="49.216916" lon="2.709429">
        <ele>92.861522</ele>
        <time>2023-11-09T11:32:12.028Z</time>
      </trkpt>
      <trkpt lat="49.213137" lon="2.705825">
        <ele>97.716670</ele>
        <time>2023-11-09T11:33:57.346Z</time>
      </trkpt>
      <trkpt lat="49.212688" lon="2.705542">
        <ele>98.771369</ele>
        <time>2023-11-09T11:34:12.127Z</time>
      </trkpt>
      <trkpt lat="49.212399" lon="2.705313">
        <ele>99.478214</ele>
        <time>2023-11-09T11:34:22.862Z</time>
      </trkpt>
      <trkpt lat="49.210158" lon="2.704432">
        <ele>112.236076</ele>
        <time>2023-11-09T11:36:01.305Z</time>
      </trkpt>
      <trkpt lat="49.209430" lon="2.703888">
        <ele>117.540890</ele>
        <time>2023-11-09T11:36:40.976Z</time>
      </trkpt>
      <trkpt lat="49.208912" lon="2.703362">
        <ele>121.436847</ele>
        <time>2023-11-09T11:37:10.959Z</time>
      </trkpt>
      <trkpt lat="49.208670" lon="2.702441">
        <ele>124.542630</ele>
        <time>2023-11-09T11:37:40.092Z</time>
      </trkpt>
      <trkpt lat="49.208573" lon="2.701716">
        <ele>126.857964</ele>
        <time>2023-11-09T11:37:59.115Z</time>
      </trkpt>
      <trkpt lat="49.208614" lon="2.700920">
        <ele>129.356083</ele>
        <time>2023-11-09T11:38:16.662Z</time>
      </trkpt>
      <trkpt lat="49.208675" lon="2.700502">
        <ele>129.506324</ele>
        <time>2023-11-09T11:38:24.898Z</time>
      </trkpt>
      <trkpt lat="49.208291" lon="2.700120">
        <ele>129.371368</ele>
        <time>2023-11-09T11:38:36.444Z</time>
      </trkpt>
      <trkpt lat="49.208061" lon="2.699812">
        <ele>129.281314</ele>
        <time>2023-11-09T11:38:42.577Z</time>
      </trkpt>
      <trkpt lat="49.207889" lon="2.699319">
        <ele>129.173716</ele>
        <time>2023-11-09T11:38:48.737Z</time>
      </trkpt>
      <trkpt lat="49.207644" lon="2.699122">
        <ele>129.092164</ele>
        <time>2023-11-09T11:38:53.010Z</time>
      </trkpt>
      <trkpt lat="49.207317" lon="2.699738">
        <ele>127.138812</ele>
        <time>2023-11-09T11:39:00.472Z</time>
      </trkpt>
      <trkpt lat="49.207243" lon="2.699763">
        <ele>126.736821</ele>
        <time>2023-11-09T11:39:01.518Z</time>
      </trkpt>
      <trkpt lat="49.206148" lon="2.699776">
        <ele>120.928070</ele>
        <time>2023-11-09T11:39:15.973Z</time>
      </trkpt>
      <trkpt lat="49.205585" lon="2.700043">
        <ele>117.610803</ele>
        <time>2023-11-09T11:39:23.503Z</time>
      </trkpt>
      <trkpt lat="49.204570" lon="2.700120">
        <ele>111.616253</ele>
        <time>2023-11-09T11:39:36.686Z</time>
      </trkpt>
      <trkpt lat="49.202325" lon="2.700315">
        <ele>101.466018</ele>
        <time>2023-11-09T11:40:07.975Z</time>
      </trkpt>
      <trkpt lat="49.201525" lon="2.699935">
        <ele>98.750323</ele>
        <time>2023-11-09T11:40:20.049Z</time>
      </trkpt>
      <trkpt lat="49.200282" lon="2.699621">
        <ele>95.109507</ele>
        <time>2023-11-09T11:40:38.603Z</time>
      </trkpt>
      <trkpt lat="49.193592" lon="2.700207">
        <ele>83.857606</ele>
        <time>2023-11-09T11:42:27.354Z</time>
      </trkpt>
      <trkpt lat="49.193076" lon="2.699365">
        <ele>83.111489</ele>
        <time>2023-11-09T11:42:40.762Z</time>
      </trkpt>
      <trkpt lat="49.192843" lon="2.699104">
        <ele>82.879201</ele>
        <time>2023-11-09T11:42:45.940Z</time>
      </trkpt>
      <trkpt lat="49.192270" lon="2.698592">
        <ele>82.345427</ele>
        <time>2023-11-09T11:42:57.986Z</time>
      </trkpt>
      <trkpt lat="49.191889" lon="2.698257">
        <ele>82.026195</ele>
        <time>2023-11-09T11:43:05.988Z</time>
      </trkpt>
      <trkpt lat="49.191395" lon="2.697770">
        <ele>81.696066</ele>
        <time>2023-11-09T11:43:16.583Z</time>
      </trkpt>
      <trkpt lat="49.189567" lon="2.696131">
        <ele>80.856386</ele>
        <time>2023-11-09T11:43:55.825Z</time>
      </trkpt>
      <trkpt lat="49.184806" lon="2.691995">
        <ele>81.094463</ele>
        <time>2023-11-09T11:45:49.232Z</time>
      </trkpt>
      <trkpt lat="49.184070" lon="2.691350">
        <ele>81.001370</ele>
        <time>2023-11-09T11:46:06.309Z</time>
      </trkpt>
      <trkpt lat="49.179079" lon="2.686978">
        <ele>77.215040</ele>
        <time>2023-11-09T11:47:50.736Z</time>
      </trkpt>
      <trkpt lat="49.178847" lon="2.686847">
        <ele>76.933890</ele>
        <time>2023-11-09T11:47:54.890Z</time>
      </trkpt>
      <trkpt lat="49.176659" lon="2.686298">
        <ele>74.542535</ele>
        <time>2023-11-09T11:48:31.712Z</time>
      </trkpt>
      <trkpt lat="49.173430" lon="2.685426">
        <ele>72.531925</ele>
        <time>2023-11-09T11:49:16.732Z</time>
      </trkpt>
      <trkpt lat="49.173487" lon="2.684982">
        <ele>72.275407</ele>
        <time>2023-11-09T11:49:20.433Z</time>
      </trkpt>
      <trkpt lat="49.173589" lon="2.684180">
        <ele>71.812219</ele>
        <time>2023-11-09T11:49:26.698Z</time>
      </trkpt>
      <trkpt lat="49.173584" lon="2.684067">
        <ele>71.748011</ele>
        <time>2023-11-09T11:49:27.515Z</time>
      </trkpt>
      <trkpt lat="49.173322" lon="2.682812">
        <ele>70.587594</ele>
        <time>2023-11-09T11:49:36.926Z</time>
      </trkpt>
      <trkpt lat="49.173159" lon="2.682029">
        <ele>69.859434</ele>
        <time>2023-11-09T11:49:42.910Z</time>
      </trkpt>
      <trkpt lat="49.173058" lon="2.681579">
        <ele>69.437833</ele>
        <time>2023-11-09T11:49:53.382Z</time>
      </trkpt>
      <trkpt lat="49.172784" lon="2.680399">
        <ele>71.131884</ele>
        <time>2023-11-09T11:50:08.386Z</time>
      </trkpt>
      <trkpt lat="49.172108" lon="2.677377">
        <ele>76.946774</ele>
        <time>2023-11-09T11:51:13.157Z</time>
      </trkpt>
      <trkpt lat="49.172077" lon="2.677240">
        <ele>77.233240</ele>
        <time>2023-11-09T11:51:15.904Z</time>
      </trkpt>
      <trkpt lat="49.171367" lon="2.676418">
        <ele>79.340306</ele>
        <time>2023-11-09T11:51:36.179Z</time>
      </trkpt>
      <trkpt lat="49.169367" lon="2.673903">
        <ele>78.628660</ele>
        <time>2023-11-09T11:52:10.388Z</time>
      </trkpt>
      <trkpt lat="49.167710" lon="2.671818">
        <ele>76.848594</ele>
        <time>2023-11-09T11:52:37.146Z</time>
      </trkpt>
      <trkpt lat="49.167157" lon="2.671178">
        <ele>76.182898</ele>
        <time>2023-11-09T11:52:45.529Z</time>
      </trkpt>
      <trkpt lat="49.163806" lon="2.667299">
        <ele>72.323609</ele>
        <time>2023-11-09T11:53:36.743Z</time>
      </trkpt>
      <trkpt lat="49.160799" lon="2.665372">
        <ele>72.203800</ele>
        <time>2023-11-09T11:54:26.483Z</time>
      </trkpt>
      <trkpt lat="49.159648" lon="2.664565">
        <ele>72.374097</ele>
        <time>2023-11-09T11:54:45.798Z</time>
      </trkpt>
      <trkpt lat="49.158459" lon="2.663833">
        <ele>72.926362</ele>
        <time>2023-11-09T11:55:06.537Z</time>
      </trkpt>
      <trkpt lat="49.158310" lon="2.663695">
        <ele>73.003086</ele>
        <time>2023-11-09T11:55:09.662Z</time>
      </trkpt>
      <trkpt lat="49.158145" lon="2.663432">
        <ele>73.108060</ele>
        <time>2023-11-09T11:55:13.799Z</time>
      </trkpt>
      <trkpt lat="49.157317" lon="2.663017">
        <ele>73.749437</ele>
        <time>2023-11-09T11:55:29.487Z</time>
      </trkpt>
      <trkpt lat="49.154269" lon="2.660968">
        <ele>76.654161</ele>
        <time>2023-11-09T11:56:29.712Z</time>
      </trkpt>
      <trkpt lat="49.151864" lon="2.659260">
        <ele>79.760518</ele>
        <time>2023-11-09T11:57:22.576Z</time>
      </trkpt>
      <trkpt lat="49.150905" lon="2.658628">
        <ele>81.763375</ele>
        <time>2023-11-09T11:57:42.455Z</time>
      </trkpt>
      <trkpt lat="49.150005" lon="2.658007">
        <ele>84.262585</ele>
        <time>2023-11-09T11:58:06.793Z</time>
      </trkpt>
      <trkpt lat="49.149500" lon="2.657659">
        <ele>86.634531</ele>
        <time>2023-11-09T11:58:24.658Z</time>
      </trkpt>
      <trkpt lat="49.146604" lon="2.655638">
        <ele>104.658296</ele>
        <time>2023-11-09T12:00:32.248Z</time>
      </trkpt>
      <trkpt lat="49.142296" lon="2.652588">
        <ele>112.788376</ele>
        <time>2023-11-09T12:02:14.597Z</time>
      </trkpt>
      <trkpt lat="49.140541" lon="2.651386">
        <ele>112.409565</ele>
        <time>2023-11-09T12:02:39.386Z</time>
      </trkpt>
      <trkpt lat="49.138399" lon="2.649904">
        <ele>110.274678</ele>
        <time>2023-11-09T12:03:07.857Z</time>
      </trkpt>
      <trkpt lat="49.138349" lon="2.649872">
        <ele>110.222831</ele>
        <time>2023-11-09T12:03:08.514Z</time>
      </trkpt>
      <trkpt lat="49.134345" lon="2.647099">
        <ele>109.264017</ele>
        <time>2023-11-09T12:04:10.303Z</time>
      </trkpt>
      <trkpt lat="49.133166" lon="2.646280">
        <ele>109.279340</ele>
        <time>2023-11-09T12:04:30.495Z</time>
      </trkpt>
      <trkpt lat="49.132970" lon="2.646097">
        <ele>109.286816</ele>
        <time>2023-11-09T12:04:34.140Z</time>
      </trkpt>
      <trkpt lat="49.132666" lon="2.645565">
        <ele>109.301859</ele>
        <time>2023-11-09T12:04:41.315Z</time>
      </trkpt>
      <trkpt lat="49.131767" lon="2.644163">
        <ele>109.261375</ele>
        <time>2023-11-09T12:04:59.949Z</time>
      </trkpt>
      <trkpt lat="49.128853" lon="2.639490">
        <ele>108.288459</ele>
        <time>2023-11-09T12:05:59.922Z</time>
      </trkpt>
      <trkpt lat="49.128308" lon="2.638654">
        <ele>107.913505</ele>
        <time>2023-11-09T12:06:09.589Z</time>
      </trkpt>
      <trkpt lat="49.127522" lon="2.637383">
        <ele>106.799850</ele>
        <time>2023-11-09T12:06:23.453Z</time>
      </trkpt>
      <trkpt lat="49.116955" lon="2.620407">
        <ele>94.217529</ele>
        <time>2023-11-09T12:09:35.715Z</time>
      </trkpt>
      <trkpt lat="49.116790" lon="2.620136">
        <ele>94.107017</ele>
        <time>2023-11-09T12:09:38.729Z</time>
      </trkpt>
      <trkpt lat="49.116659" lon="2.619915">
        <ele>94.017992</ele>
        <time>2023-11-09T12:09:41.263Z</time>
      </trkpt>
      <trkpt lat="49.116464" lon="2.619861">
        <ele>93.927588</ele>
        <time>2023-11-09T12:09:43.776Z</time>
      </trkpt>
      <trkpt lat="49.116292" lon="2.619411">
        <ele>93.771993</ele>
        <time>2023-11-09T12:09:48.330Z</time>
      </trkpt>
      <trkpt lat="49.116071" lon="2.619002">
        <ele>93.613635</ele>
        <time>2023-11-09T12:09:53.132Z</time>
      </trkpt>
      <trkpt lat="49.112445" lon="2.613138">
        <ele>96.249193</ele>
        <time>2023-11-09T12:11:24.398Z</time>
      </trkpt>
      <trkpt lat="49.112164" lon="2.612756">
        <ele>96.255801</ele>
        <time>2023-11-09T12:11:29.837Z</time>
      </trkpt>
      <trkpt lat="49.111494" lon="2.612006">
        <ele>95.574689</ele>
        <time>2023-11-09T12:11:40.382Z</time>
      </trkpt>
      <trkpt lat="49.111409" lon="2.611906">
        <ele>95.486715</ele>
        <time>2023-11-09T12:11:41.638Z</time>
      </trkpt>
      <trkpt lat="49.111039" lon="2.611471">
        <ele>95.103864</ele>
        <time>2023-11-09T12:11:47.021Z</time>
      </trkpt>
      <trkpt lat="49.110867" lon="2.611217">
        <ele>94.907697</ele>
        <time>2023-11-09T12:11:49.814Z</time>
      </trkpt>
      <trkpt lat="49.110704" lon="2.610911">
        <ele>94.968788</ele>
        <time>2023-11-09T12:11:52.934Z</time>
      </trkpt>
      <trkpt lat="49.110565" lon="2.610497">
        <ele>95.095215</ele>
        <time>2023-11-09T12:11:56.830Z</time>
      </trkpt>
      <trkpt lat="49.110497" lon="2.609986">
        <ele>95.236904</ele>
        <time>2023-11-09T12:12:01.586Z</time>
      </trkpt>
      <trkpt lat="49.110517" lon="2.609376">
        <ele>95.402862</ele>
        <time>2023-11-09T12:12:07.951Z</time>
      </trkpt>
      <trkpt lat="49.110666" lon="2.607234">
        <ele>98.299084</ele>
        <time>2023-11-09T12:12:41.958Z</time>
      </trkpt>
      <trkpt lat="49.110678" lon="2.607052">
        <ele>98.663928</ele>
        <time>2023-11-09T12:12:45.844Z</time>
      </trkpt>
      <trkpt lat="49.111121" lon="2.604536">
        <ele>103.445746</ele>
        <time>2023-11-09T12:13:36.649Z</time>
      </trkpt>
      <trkpt lat="49.111205" lon="2.604099">
        <ele>104.217454</ele>
        <time>2023-11-09T12:13:43.827Z</time>
      </trkpt>
      <trkpt lat="49.111291" lon="2.603512">
        <ele>105.236660</ele>
        <time>2023-11-09T12:13:52.235Z</time>
      </trkpt>
      <trkpt lat="49.111339" lon="2.602797">
        <ele>105.754264</ele>
        <time>2023-11-09T12:14:00.825Z</time>
      </trkpt>
      <trkpt lat="49.111331" lon="2.602323">
        <ele>105.747866</ele>
        <time>2023-11-09T12:14:05.777Z</time>
      </trkpt>
      <trkpt lat="49.111194" lon="2.602068">
        <ele>105.743414</ele>
        <time>2023-11-09T12:14:08.820Z</time>
      </trkpt>
      <trkpt lat="49.110997" lon="2.601827">
        <ele>105.738211</ele>
        <time>2023-11-09T12:14:12.162Z</time>
      </trkpt>
      <trkpt lat="49.108614" lon="2.599600">
        <ele>104.645788</ele>
        <time>2023-11-09T12:14:49.038Z</time>
      </trkpt>
      <trkpt lat="49.108118" lon="2.599120">
        <ele>104.224695</ele>
        <time>2023-11-09T12:14:56.837Z</time>
      </trkpt>
      <trkpt lat="49.107281" lon="2.598190">
        <ele>103.482505</ele>
        <time>2023-11-09T12:15:09.707Z</time>
      </trkpt>
      <trkpt lat="49.107262" lon="2.598162">
        <ele>103.463604</ele>
        <time>2023-11-09T12:15:10.024Z</time>
      </trkpt>
      <trkpt lat="49.106919" lon="2.597639">
        <ele>103.116647</ele>
        <time>2023-11-09T12:15:16.028Z</time>
      </trkpt>
      <trkpt lat="49.106687" lon="2.597012">
        <ele>102.779099</ele>
        <time>2023-11-09T12:15:21.992Z</time>
      </trkpt>
      <trkpt lat="49.106685" lon="2.597007">
        <ele>102.776353</ele>
        <time>2023-11-09T12:15:22.045Z</time>
      </trkpt>
      <trkpt lat="49.106495" lon="2.596286">
        <ele>102.412090</ele>
        <time>2023-11-09T12:15:28.623Z</time>
      </trkpt>
      <trkpt lat="49.106196" lon="2.594674">
        <ele>101.961665</ele>
        <time>2023-11-09T12:15:43.563Z</time>
      </trkpt>
      <trkpt lat="49.106026" lon="2.593548">
        <ele>101.714520</ele>
        <time>2023-11-09T12:15:54.420Z</time>
      </trkpt>
      <trkpt lat="49.105901" lon="2.592318">
        <ele>101.318150</ele>
        <time>2023-11-09T12:16:05.111Z</time>
      </trkpt>
      <trkpt lat="49.105705" lon="2.590620">
        <ele>100.717290</ele>
        <time>2023-11-09T12:16:19.532Z</time>
      </trkpt>
      <trkpt lat="49.105589" lon="2.590053">
        <ele>100.861856</ele>
        <time>2023-11-09T12:16:24.956Z</time>
      </trkpt>
      <trkpt lat="49.105568" lon="2.589914">
        <ele>100.905422</ele>
        <time>2023-11-09T12:16:26.242Z</time>
      </trkpt>
      <trkpt lat="49.105447" lon="2.589067">
        <ele>101.170182</ele>
        <time>2023-11-09T12:16:35.357Z</time>
      </trkpt>
      <trkpt lat="49.105386" lon="2.588847">
        <ele>101.243147</ele>
        <time>2023-11-09T12:16:38.071Z</time>
      </trkpt>
      <trkpt lat="49.105234" lon="2.588533">
        <ele>101.362410</ele>
        <time>2023-11-09T12:16:42.921Z</time>
      </trkpt>
      <trkpt lat="49.105113" lon="2.588349">
        <ele>101.442059</ele>
        <time>2023-11-09T12:16:46.215Z</time>
      </trkpt>
      <trkpt lat="49.104792" lon="2.588048">
        <ele>101.828861</ele>
        <time>2023-11-09T12:16:53.948Z</time>
      </trkpt>
      <trkpt lat="49.104724" lon="2.587945">
        <ele>101.989869</ele>
        <time>2023-11-09T12:16:55.949Z</time>
      </trkpt>
      <trkpt lat="49.104082" lon="2.586933">
        <ele>103.540945</ele>
        <time>2023-11-09T12:17:16.044Z</time>
      </trkpt>
      <trkpt lat="49.103878" lon="2.586492">
        <ele>104.135301</ele>
        <time>2023-11-09T12:17:23.734Z</time>
      </trkpt>
      <trkpt lat="49.103710" lon="2.585940">
        <ele>104.835743</ele>
        <time>2023-11-09T12:17:32.677Z</time>
      </trkpt>
      <trkpt lat="49.103577" lon="2.585635">
        <ele>105.289251</ele>
        <time>2023-11-09T12:17:38.084Z</time>
      </trkpt>
      <trkpt lat="49.103233" lon="2.585125">
        <ele>106.195429</ele>
        <time>2023-11-09T12:17:48.733Z</time>
      </trkpt>
      <trkpt lat="49.103026" lon="2.584984">
        <ele>106.623855</ele>
        <time>2023-11-09T12:17:54.802Z</time>
      </trkpt>
      <trkpt lat="49.102730" lon="2.584770">
        <ele>107.242880</ele>
        <time>2023-11-09T12:18:03.609Z</time>
      </trkpt>
      <trkpt lat="49.102002" lon="2.584243">
        <ele>108.948346</ele>
        <time>2023-11-09T12:18:26.755Z</time>
      </trkpt>
      <trkpt lat="49.101825" lon="2.584310">
        <ele>109.371233</ele>
        <time>2023-11-09T12:18:32.315Z</time>
      </trkpt>
      <trkpt lat="49.101466" lon="2.584384">
        <ele>110.211314</ele>
        <time>2023-11-09T12:18:43.541Z</time>
      </trkpt>
      <trkpt lat="49.100457" lon="2.584458">
        <ele>112.452325</ele>
        <time>2023-11-09T12:19:13.662Z</time>
      </trkpt>
      <trkpt lat="49.100318" lon="2.584467">
        <ele>112.697328</ele>
        <time>2023-11-09T12:19:17.603Z</time>
      </trkpt>
      <trkpt lat="49.099751" lon="2.584859">
        <ele>113.793366</ele>
        <time>2023-11-09T12:19:34.593Z</time>
      </trkpt>
      <trkpt lat="49.099484" lon="2.584950">
        <ele>114.275127</ele>
        <time>2023-11-09T12:19:41.938Z</time>
      </trkpt>
      <trkpt lat="49.099245" lon="2.585032">
        <ele>114.706502</ele>
        <time>2023-11-09T12:19:48.317Z</time>
      </trkpt>
      <trkpt lat="49.099046" lon="2.585168">
        <ele>115.090432</ele>
        <time>2023-11-09T12:19:54.031Z</time>
      </trkpt>
      <trkpt lat="49.098627" lon="2.585563">
        <ele>115.912522</ele>
        <time>2023-11-09T12:20:06.308Z</time>
      </trkpt>
      <trkpt lat="49.098504" lon="2.585703">
        <ele>116.164190</ele>
        <time>2023-11-09T12:20:10.282Z</time>
      </trkpt>
      <trkpt lat="49.097897" lon="2.586803">
        <ele>117.709483</ele>
        <time>2023-11-09T12:20:34.803Z</time>
      </trkpt>
      <trkpt lat="49.097406" lon="2.587694">
        <ele>119.600359</ele>
        <time>2023-11-09T12:20:57.491Z</time>
      </trkpt>
      <trkpt lat="49.096700" lon="2.588571">
        <ele>122.438100</ele>
        <time>2023-11-09T12:21:26.898Z</time>
      </trkpt>
      <trkpt lat="49.095973" lon="2.589125">
        <ele>125.930196</ele>
        <time>2023-11-09T12:21:56.105Z</time>
      </trkpt>
      <trkpt lat="49.095321" lon="2.589507">
        <ele>129.983261</ele>
        <time>2023-11-09T12:22:24.929Z</time>
      </trkpt>
      <trkpt lat="49.094622" lon="2.589820">
        <ele>134.210990</ele>
        <time>2023-11-09T12:23:00.996Z</time>
      </trkpt>
      <trkpt lat="49.094258" lon="2.589909">
        <ele>136.902873</ele>
        <time>2023-11-09T12:23:19.820Z</time>
      </trkpt>
      <trkpt lat="49.093838" lon="2.589945">
        <ele>140.001298</ele>
        <time>2023-11-09T12:23:41.121Z</time>
      </trkpt>
      <trkpt lat="49.093253" lon="2.590212">
        <ele>144.498505</ele>
        <time>2023-11-09T12:24:11.980Z</time>
      </trkpt>
      <trkpt lat="49.092330" lon="2.590927">
        <ele>150.761048</ele>
        <time>2023-11-09T12:25:01.536Z</time>
      </trkpt>
      <trkpt lat="49.092234" lon="2.590869">
        <ele>151.295365</ele>
        <time>2023-11-09T12:25:06.058Z</time>
      </trkpt>
      <trkpt lat="49.090889" lon="2.588769">
        <ele>159.223154</ele>
        <time>2023-11-09T12:26:15.979Z</time>
      </trkpt>
      <trkpt lat="49.090767" lon="2.588632">
        <ele>159.645410</ele>
        <time>2023-11-09T12:26:20.682Z</time>
      </trkpt>
      <trkpt lat="49.090620" lon="2.588535">
        <ele>160.091928</ele>
        <time>2023-11-09T12:26:25.591Z</time>
      </trkpt>
      <trkpt lat="49.090359" lon="2.588424">
        <ele>160.847382</ele>
        <time>2023-11-09T12:26:33.443Z</time>
      </trkpt>
      <trkpt lat="49.089262" lon="2.588214">
        <ele>161.464384</ele>
        <time>2023-11-09T12:26:59.576Z</time>
      </trkpt>
      <trkpt lat="49.088519" lon="2.587928">
        <ele>161.043821</ele>
        <time>2023-11-09T12:27:12.846Z</time>
      </trkpt>
      <trkpt lat="49.087344" lon="2.587872">
        <ele>157.619331</ele>
        <time>2023-11-09T12:27:30.391Z</time>
      </trkpt>
      <trkpt lat="49.087134" lon="2.587883">
        <ele>156.841913</ele>
        <time>2023-11-09T12:27:33.343Z</time>
      </trkpt>
      <trkpt lat="49.086812" lon="2.587955">
        <ele>155.637867</ele>
        <time>2023-11-09T12:27:37.796Z</time>
      </trkpt>
      <trkpt lat="49.085079" lon="2.589186">
        <ele>147.191176</ele>
        <time>2023-11-09T12:28:03.541Z</time>
      </trkpt>
      <trkpt lat="49.083775" lon="2.589993">
        <ele>143.905752</ele>
        <time>2023-11-09T12:28:24.403Z</time>
      </trkpt>
      <trkpt lat="49.081892" lon="2.591021">
        <ele>143.304747</ele>
        <time>2023-11-09T12:29:07.896Z</time>
      </trkpt>
      <trkpt lat="49.081685" lon="2.591044">
        <ele>143.395824</ele>
        <time>2023-11-09T12:29:13.113Z</time>
      </trkpt>
      <trkpt lat="49.081462" lon="2.590998">
        <ele>143.494571</ele>
        <time>2023-11-09T12:29:18.574Z</time>
      </trkpt>
      <trkpt lat="49.080544" lon="2.590466">
        <ele>143.371304</ele>
        <time>2023-11-09T12:29:39.492Z</time>
      </trkpt>
      <trkpt lat="49.080186" lon="2.590341">
        <ele>143.319508</ele>
        <time>2023-11-09T12:29:46.378Z</time>
      </trkpt>
      <trkpt lat="49.079935" lon="2.590263">
        <ele>143.283382</ele>
        <time>2023-11-09T12:29:50.941Z</time>
      </trkpt>
      <trkpt lat="49.079739" lon="2.590156">
        <ele>143.254024</ele>
        <time>2023-11-09T12:29:54.598Z</time>
      </trkpt>
      <trkpt lat="49.079382" lon="2.589881">
        <ele>142.690597</ele>
        <time>2023-11-09T12:30:01.483Z</time>
      </trkpt>
      <trkpt lat="49.078684" lon="2.589527">
        <ele>141.626784</ele>
        <time>2023-11-09T12:30:13.722Z</time>
      </trkpt>
      <trkpt lat="49.077537" lon="2.589264">
        <ele>139.203124</ele>
        <time>2023-11-09T12:30:32.218Z</time>
      </trkpt>
      <trkpt lat="49.077440" lon="2.589242">
        <ele>138.910484</ele>
        <time>2023-11-09T12:30:33.750Z</time>
      </trkpt>
      <trkpt lat="49.077196" lon="2.588898">
        <ele>137.919355</ele>
        <time>2023-11-09T12:30:38.835Z</time>
      </trkpt>
      <trkpt lat="49.075964" lon="2.587036">
        <ele>131.502265</ele>
        <time>2023-11-09T12:31:03.224Z</time>
      </trkpt>
      <trkpt lat="49.075844" lon="2.586739">
        <ele>130.485827</ele>
        <time>2023-11-09T12:31:06.291Z</time>
      </trkpt>
      <trkpt lat="49.075382" lon="2.584641">
        <ele>124.532427</ele>
        <time>2023-11-09T12:31:26.044Z</time>
      </trkpt>
      <trkpt lat="49.075257" lon="2.583938">
        <ele>122.733295</ele>
        <time>2023-11-09T12:31:32.726Z</time>
      </trkpt>
      <trkpt lat="49.074839" lon="2.580927">
        <ele>117.603555</ele>
        <time>2023-11-09T12:32:03.461Z</time>
      </trkpt>
      <trkpt lat="49.074781" lon="2.580599">
        <ele>117.150558</ele>
        <time>2023-11-09T12:32:07.196Z</time>
      </trkpt>
      <trkpt lat="49.074112" lon="2.577981">
        <ele>116.040264</ele>
        <time>2023-11-09T12:32:41.541Z</time>
      </trkpt>
      <trkpt lat="49.073386" lon="2.576738">
        <ele>116.503826</ele>
        <time>2023-11-09T12:33:05.154Z</time>
      </trkpt>
      <trkpt lat="49.073123" lon="2.576394">
        <ele>116.685571</ele>
        <time>2023-11-09T12:33:13.165Z</time>
      </trkpt>
      <trkpt lat="49.073009" lon="2.576290">
        <ele>116.755262</ele>
        <time>2023-11-09T12:33:16.221Z</time>
      </trkpt>
      <trkpt lat="49.072970" lon="2.576137">
        <ele>116.811700</ele>
        <time>2023-11-09T12:33:18.805Z</time>
      </trkpt>
      <trkpt lat="49.072836" lon="2.575833">
        <ele>116.941750</ele>
        <time>2023-11-09T12:33:24.610Z</time>
      </trkpt>
      <trkpt lat="49.072674" lon="2.575564">
        <ele>117.164467</ele>
        <time>2023-11-09T12:33:30.508Z</time>
      </trkpt>
      <trkpt lat="49.072083" lon="2.574636">
        <ele>117.953340</ele>
        <time>2023-11-09T12:33:50.548Z</time>
      </trkpt>
      <trkpt lat="49.072079" lon="2.574631">
        <ele>117.958150</ele>
        <time>2023-11-09T12:33:50.676Z</time>
      </trkpt>
      <trkpt lat="49.071629" lon="2.574032">
        <ele>118.513676</ele>
        <time>2023-11-09T12:34:05.587Z</time>
      </trkpt>
      <trkpt lat="49.071437" lon="2.573817">
        <ele>118.669016</ele>
        <time>2023-11-09T12:34:11.298Z</time>
      </trkpt>
      <trkpt lat="49.070873" lon="2.573148">
        <ele>118.993407</ele>
        <time>2023-11-09T12:34:27.842Z</time>
      </trkpt>
      <trkpt lat="49.070520" lon="2.572764">
        <ele>119.190270</ele>
        <time>2023-11-09T12:34:37.321Z</time>
      </trkpt>
      <trkpt lat="49.070498" lon="2.572701">
        <ele>119.211511</ele>
        <time>2023-11-09T12:34:38.300Z</time>
      </trkpt>
      <trkpt lat="49.070164" lon="2.571134">
        <ele>118.853069</ele>
        <time>2023-11-09T12:34:59.755Z</time>
      </trkpt>
      <trkpt lat="49.070023" lon="2.570610">
        <ele>118.508999</ele>
        <time>2023-11-09T12:35:06.409Z</time>
      </trkpt>
      <trkpt lat="49.069747" lon="2.569966">
        <ele>118.041580</ele>
        <time>2023-11-09T12:35:14.763Z</time>
      </trkpt>
      <trkpt lat="49.069679" lon="2.569806">
        <ele>117.925740</ele>
        <time>2023-11-09T12:35:16.785Z</time>
      </trkpt>
      <trkpt lat="49.069494" lon="2.569362">
        <ele>117.382172</ele>
        <time>2023-11-09T12:35:22.236Z</time>
      </trkpt>
      <trkpt lat="49.069100" lon="2.568468">
        <ele>115.744399</ele>
        <time>2023-11-09T12:35:33.114Z</time>
      </trkpt>
      <trkpt lat="49.069049" lon="2.568361">
        <ele>115.543265</ele>
        <time>2023-11-09T12:35:34.423Z</time>
      </trkpt>
      <trkpt lat="49.068982" lon="2.568208">
        <ele>115.263529</ele>
        <time>2023-11-09T12:35:36.234Z</time>
      </trkpt>
      <trkpt lat="49.068888" lon="2.567760">
        <ele>114.548475</ele>
        <time>2023-11-09T12:35:40.842Z</time>
      </trkpt>
      <trkpt lat="49.068831" lon="2.567532">
        <ele>114.177528</ele>
        <time>2023-11-09T12:35:43.226Z</time>
      </trkpt>
      <trkpt lat="49.068902" lon="2.567318">
        <ele>113.812905</ele>
        <time>2023-11-09T12:35:44.871Z</time>
      </trkpt>
      <trkpt lat="49.069248" lon="2.566518">
        <ele>112.815946</ele>
        <time>2023-11-09T12:35:51.682Z</time>
      </trkpt>
      <trkpt lat="49.069132" lon="2.565917">
        <ele>112.220954</ele>
        <time>2023-11-09T12:35:56.438Z</time>
      </trkpt>
      <trkpt lat="49.068929" lon="2.565600">
        <ele>111.799991</ele>
        <time>2023-11-09T12:36:00.101Z</time>
      </trkpt>
      <trkpt lat="49.068744" lon="2.565237">
        <ele>111.363246</ele>
        <time>2023-11-09T12:36:03.962Z</time>
      </trkpt>
      <trkpt lat="49.068463" lon="2.564454">
        <ele>110.608410</ele>
        <time>2023-11-09T12:36:11.029Z</time>
      </trkpt>
      <trkpt lat="49.068233" lon="2.563738">
        <ele>110.004391</ele>
        <time>2023-11-09T12:36:17.406Z</time>
      </trkpt>
      <trkpt lat="49.068072" lon="2.563245">
        <ele>109.587145</ele>
        <time>2023-11-09T12:36:21.824Z</time>
      </trkpt>
      <trkpt lat="49.067940" lon="2.562824">
        <ele>109.233618</ele>
        <time>2023-11-09T12:36:25.479Z</time>
      </trkpt>
      <trkpt lat="49.067825" lon="2.562230">
        <ele>108.704431</ele>
        <time>2023-11-09T12:36:30.256Z</time>
      </trkpt>
      <trkpt lat="49.067694" lon="2.560752">
        <ele>107.056927</ele>
        <time>2023-11-09T12:36:40.998Z</time>
      </trkpt>
      <trkpt lat="49.067597" lon="2.560166">
        <ele>106.389277</ele>
        <time>2023-11-09T12:36:45.478Z</time>
      </trkpt>
      <trkpt lat="49.067326" lon="2.559448">
        <ele>105.608809</ele>
        <time>2023-11-09T12:36:51.791Z</time>
      </trkpt>
      <trkpt lat="49.067062" lon="2.559043">
        <ele>105.196551</ele>
        <time>2023-11-09T12:36:56.102Z</time>
      </trkpt>
      <trkpt lat="49.066889" lon="2.558882">
        <ele>104.973383</ele>
        <time>2023-11-09T12:36:58.441Z</time>
      </trkpt>
      <trkpt lat="49.066572" lon="2.558734">
        <ele>104.608271</ele>
        <time>2023-11-09T12:37:02.363Z</time>
      </trkpt>
      <trkpt lat="49.065541" lon="2.558252">
        <ele>103.816818</ele>
        <time>2023-11-09T12:37:16.463Z</time>
      </trkpt>
      <trkpt lat="49.065226" lon="2.558145">
        <ele>103.766703</ele>
        <time>2023-11-09T12:37:20.985Z</time>
      </trkpt>
      <trkpt lat="49.064901" lon="2.558048">
        <ele>103.715275</ele>
        <time>2023-11-09T12:37:25.793Z</time>
      </trkpt>
      <trkpt lat="49.064759" lon="2.557961">
        <ele>103.691513</ele>
        <time>2023-11-09T12:37:28.093Z</time>
      </trkpt>
      <trkpt lat="49.064631" lon="2.557832">
        <ele>103.667692</ele>
        <time>2023-11-09T12:37:30.429Z</time>
      </trkpt>
      <trkpt lat="49.064297" lon="2.557228">
        <ele>103.564611</ele>
        <time>2023-11-09T12:37:38.664Z</time>
      </trkpt>
      <trkpt lat="49.063725" lon="2.555979">
        <ele>103.179178</ele>
        <time>2023-11-09T12:37:53.193Z</time>
      </trkpt>
      <trkpt lat="49.063412" lon="2.555595">
        <ele>103.024152</ele>
        <time>2023-11-09T12:37:58.198Z</time>
      </trkpt>
      <trkpt lat="49.063201" lon="2.555419">
        <ele>102.931328</ele>
        <time>2023-11-09T12:38:01.108Z</time>
      </trkpt>
      <trkpt lat="49.062030" lon="2.554621">
        <ele>101.921415</ele>
        <time>2023-11-09T12:38:16.607Z</time>
      </trkpt>
      <trkpt lat="49.061440" lon="2.554155">
        <ele>101.568120</ele>
        <time>2023-11-09T12:38:25.525Z</time>
      </trkpt>
      <trkpt lat="49.061031" lon="2.553669">
        <ele>102.225055</ele>
        <time>2023-11-09T12:38:33.187Z</time>
      </trkpt>
      <trkpt lat="49.060731" lon="2.553126">
        <ele>102.814875</ele>
        <time>2023-11-09T12:38:41.118Z</time>
      </trkpt>
      <trkpt lat="49.060646" lon="2.552915">
        <ele>103.020563</ele>
        <time>2023-11-09T12:38:44.368Z</time>
      </trkpt>
      <trkpt lat="49.060554" lon="2.552594">
        <ele>103.311517</ele>
        <time>2023-11-09T12:38:49.702Z</time>
      </trkpt>
      <trkpt lat="49.060494" lon="2.552245">
        <ele>103.611151</ele>
        <time>2023-11-09T12:38:56.071Z</time>
      </trkpt>
      <trkpt lat="49.060488" lon="2.551755">
        <ele>104.797169</ele>
        <time>2023-11-09T12:39:05.662Z</time>
      </trkpt>
      <trkpt lat="49.060515" lon="2.550881">
        <ele>107.529071</ele>
        <time>2023-11-09T12:39:24.831Z</time>
      </trkpt>
      <trkpt lat="49.060555" lon="2.549104">
        <ele>112.949122</ele>
        <time>2023-11-09T12:40:07.760Z</time>
      </trkpt>
      <trkpt lat="49.060565" lon="2.547364">
        <ele>117.459438</ele>
        <time>2023-11-09T12:40:46.832Z</time>
      </trkpt>
      <trkpt lat="49.060540" lon="2.545568">
        <ele>119.354037</ele>
        <time>2023-11-09T12:41:11.868Z</time>
      </trkpt>
      <trkpt lat="49.060518" lon="2.544935">
        <ele>119.313073</ele>
        <time>2023-11-09T12:41:16.930Z</time>
      </trkpt>
      <trkpt lat="49.060419" lon="2.544268">
        <ele>119.268877</ele>
        <time>2023-11-09T12:41:22.085Z</time>
      </trkpt>
      <trkpt lat="49.060376" lon="2.544010">
        <ele>119.251673</ele>
        <time>2023-11-09T12:41:24.059Z</time>
      </trkpt>
      <trkpt lat="49.060324" lon="2.543725">
        <ele>119.110296</ele>
        <time>2023-11-09T12:41:26.360Z</time>
      </trkpt>
      <trkpt lat="49.060259" lon="2.543368">
        <ele>118.826719</ele>
        <time>2023-11-09T12:41:29.143Z</time>
      </trkpt>
      <trkpt lat="49.060273" lon="2.543152">
        <ele>118.660599</ele>
        <time>2023-11-09T12:41:30.858Z</time>
      </trkpt>
      <trkpt lat="49.060273" lon="2.543084">
        <ele>118.608556</ele>
        <time>2023-11-09T12:41:31.356Z</time>
      </trkpt>
      <trkpt lat="49.060247" lon="2.543030">
        <ele>118.557270</ele>
        <time>2023-11-09T12:41:31.862Z</time>
      </trkpt>
      <trkpt lat="49.060198" lon="2.542819">
        <ele>118.385942</ele>
        <time>2023-11-09T12:41:33.576Z</time>
      </trkpt>
      <trkpt lat="49.060152" lon="2.542228">
        <ele>117.930446</ele>
        <time>2023-11-09T12:41:38.234Z</time>
      </trkpt>
      <trkpt lat="49.060089" lon="2.541322">
        <ele>117.233154</ele>
        <time>2023-11-09T12:41:45.385Z</time>
      </trkpt>
      <trkpt lat="49.060037" lon="2.540832">
        <ele>117.152047</ele>
        <time>2023-11-09T12:41:49.493Z</time>
      </trkpt>
      <trkpt lat="49.060010" lon="2.540673">
        <ele>117.155953</ele>
        <time>2023-11-09T12:41:50.991Z</time>
      </trkpt>
      <trkpt lat="49.059962" lon="2.540377">
        <ele>117.163203</ele>
        <time>2023-11-09T12:41:54.196Z</time>
      </trkpt>
      <trkpt lat="49.059892" lon="2.539938">
        <ele>117.173946</ele>
        <time>2023-11-09T12:41:59.097Z</time>
      </trkpt>
      <trkpt lat="49.059874" lon="2.539818">
        <ele>117.176873</ele>
        <time>2023-11-09T12:42:00.467Z</time>
      </trkpt>
      <trkpt lat="49.059840" lon="2.539358">
        <ele>117.187880</ele>
        <time>2023-11-09T12:42:05.561Z</time>
      </trkpt>
      <trkpt lat="49.059814" lon="2.538998">
        <ele>117.196492</ele>
        <time>2023-11-09T12:42:09.387Z</time>
      </trkpt>
      <trkpt lat="49.059808" lon="2.538919">
        <ele>117.198383</ele>
        <time>2023-11-09T12:42:10.226Z</time>
      </trkpt>
      <trkpt lat="49.059818" lon="2.538789">
        <ele>117.201495</ele>
        <time>2023-11-09T12:42:11.596Z</time>
      </trkpt>
      <trkpt lat="49.059885" lon="2.538275">
        <ele>117.144768</ele>
        <time>2023-11-09T12:42:16.951Z</time>
      </trkpt>
      <trkpt lat="49.059960" lon="2.537761">
        <ele>117.003846</ele>
        <time>2023-11-09T12:42:21.970Z</time>
      </trkpt>
      <trkpt lat="49.059964" lon="2.537649">
        <ele>116.973829</ele>
        <time>2023-11-09T12:42:23.011Z</time>
      </trkpt>
      <trkpt lat="49.059858" lon="2.536697">
        <ele>116.715408</ele>
        <time>2023-11-09T12:42:31.238Z</time>
      </trkpt>
      <trkpt lat="49.059874" lon="2.536494">
        <ele>116.660691</ele>
        <time>2023-11-09T12:42:32.991Z</time>
      </trkpt>
      <trkpt lat="49.059938" lon="2.535953">
        <ele>116.513572</ele>
        <time>2023-11-09T12:42:37.564Z</time>
      </trkpt>
      <trkpt lat="49.060220" lon="2.533455">
        <ele>115.339453</ele>
        <time>2023-11-09T12:42:58.323Z</time>
      </trkpt>
      <trkpt lat="49.060250" lon="2.533079">
        <ele>115.172363</ele>
        <time>2023-11-09T12:43:01.596Z</time>
      </trkpt>
      <trkpt lat="49.060263" lon="2.532954">
        <ele>115.195015</ele>
        <time>2023-11-09T12:43:02.719Z</time>
      </trkpt>
      <trkpt lat="49.060263" lon="2.532815">
        <ele>115.219893</ele>
        <time>2023-11-09T12:43:03.946Z</time>
      </trkpt>
      <trkpt lat="49.060324" lon="2.532573">
        <ele>115.266299</ele>
        <time>2023-11-09T12:43:06.344Z</time>
      </trkpt>
      <trkpt lat="49.060428" lon="2.532359">
        <ele>115.313984</ele>
        <time>2023-11-09T12:43:08.864Z</time>
      </trkpt>
      <trkpt lat="49.060860" lon="2.531741">
        <ele>115.475712</ele>
        <time>2023-11-09T12:43:18.434Z</time>
      </trkpt>
      <trkpt lat="49.061402" lon="2.530874">
        <ele>115.725275</ele>
        <time>2023-11-09T12:43:32.649Z</time>
      </trkpt>
      <trkpt lat="49.061670" lon="2.530497">
        <ele>115.940973</ele>
        <time>2023-11-09T12:43:39.410Z</time>
      </trkpt>
      <trkpt lat="49.062219" lon="2.529825">
        <ele>116.357458</ele>
        <time>2023-11-09T12:43:51.767Z</time>
      </trkpt>
      <trkpt lat="49.062391" lon="2.529494">
        <ele>116.521271</ele>
        <time>2023-11-09T12:43:56.308Z</time>
      </trkpt>
      <trkpt lat="49.062510" lon="2.529125">
        <ele>116.680748</ele>
        <time>2023-11-09T12:44:00.615Z</time>
      </trkpt>
      <trkpt lat="49.062594" lon="2.528718">
        <ele>116.730718</ele>
        <time>2023-11-09T12:44:05.002Z</time>
      </trkpt>
      <trkpt lat="49.062629" lon="2.528367">
        <ele>116.737739</ele>
        <time>2023-11-09T12:44:08.564Z</time>
      </trkpt>
      <trkpt lat="49.062604" lon="2.527292">
        <ele>116.759012</ele>
        <time>2023-11-09T12:44:19.480Z</time>
      </trkpt>
      <trkpt lat="49.062608" lon="2.526835">
        <ele>116.768050</ele>
        <time>2023-11-09T12:44:23.767Z</time>
      </trkpt>
      <trkpt lat="49.062630" lon="2.526766">
        <ele>116.769568</ele>
        <time>2023-11-09T12:44:24.449Z</time>
      </trkpt>
      <trkpt lat="49.062622" lon="2.526687">
        <ele>116.771149</ele>
        <time>2023-11-09T12:44:25.156Z</time>
      </trkpt>
      <trkpt lat="49.062687" lon="2.526172">
        <ele>116.782387</ele>
        <time>2023-11-09T12:44:29.792Z</time>
      </trkpt>
      <trkpt lat="49.062722" lon="2.525908">
        <ele>116.789408</ele>
        <time>2023-11-09T12:44:32.199Z</time>
      </trkpt>
      <trkpt lat="49.062730" lon="2.525587">
        <ele>116.797782</ele>
        <time>2023-11-09T12:44:35.106Z</time>
      </trkpt>
      <trkpt lat="49.062643" lon="2.525224">
        <ele>116.807857</ele>
        <time>2023-11-09T12:44:38.854Z</time>
      </trkpt>
      <trkpt lat="49.062470" lon="2.524980">
        <ele>116.817229</ele>
        <time>2023-11-09T12:44:42.449Z</time>
      </trkpt>
      <trkpt lat="49.061879" lon="2.524508">
        <ele>116.843765</ele>
        <time>2023-11-09T12:44:53.209Z</time>
      </trkpt>
      <trkpt lat="49.061778" lon="2.524335">
        <ele>116.849805</ele>
        <time>2023-11-09T12:44:55.646Z</time>
      </trkpt>
      <trkpt lat="49.061706" lon="2.524068">
        <ele>116.935615</ele>
        <time>2023-11-09T12:44:58.572Z</time>
      </trkpt>
      <trkpt lat="49.061691" lon="2.523966">
        <ele>116.968906</ele>
        <time>2023-11-09T12:44:59.561Z</time>
      </trkpt>
      <trkpt lat="49.061692" lon="2.523784">
        <ele>117.026869</ele>
        <time>2023-11-09T12:45:01.413Z</time>
      </trkpt>
      <trkpt lat="49.061738" lon="2.523537">
        <ele>117.108646</ele>
        <time>2023-11-09T12:45:04.109Z</time>
      </trkpt>
      <trkpt lat="49.061911" lon="2.523178">
        <ele>117.250565</ele>
        <time>2023-11-09T12:45:09.014Z</time>
      </trkpt>
      <trkpt lat="49.061963" lon="2.523116">
        <ele>117.282637</ele>
        <time>2023-11-09T12:45:10.185Z</time>
      </trkpt>
      <trkpt lat="49.062078" lon="2.522985">
        <ele>117.352383</ele>
        <time>2023-11-09T12:45:12.706Z</time>
      </trkpt>
      <trkpt lat="49.062177" lon="2.522912">
        <ele>117.405822</ele>
        <time>2023-11-09T12:45:14.884Z</time>
      </trkpt>
      <trkpt lat="49.062298" lon="2.522865">
        <ele>117.466506</ele>
        <time>2023-11-09T12:45:17.189Z</time>
      </trkpt>
      <trkpt lat="49.062380" lon="2.522731">
        <ele>117.524896</ele>
        <time>2023-11-09T12:45:19.328Z</time>
      </trkpt>
      <trkpt lat="49.062401" lon="2.522550">
        <ele>117.583434</ele>
        <time>2023-11-09T12:45:21.676Z</time>
      </trkpt>
      <trkpt lat="49.062384" lon="2.522451">
        <ele>117.616027</ele>
        <time>2023-11-09T12:45:22.858Z</time>
      </trkpt>
      <trkpt lat="49.062402" lon="2.522249">
        <ele>117.680948</ele>
        <time>2023-11-09T12:45:25.778Z</time>
      </trkpt>
      <trkpt lat="49.062450" lon="2.522113">
        <ele>117.720916</ele>
        <time>2023-11-09T12:45:28.068Z</time>
      </trkpt>
      <trkpt lat="49.062554" lon="2.522013">
        <ele>117.682251</ele>
        <time>2023-11-09T12:45:30.757Z</time>
      </trkpt>
      <trkpt lat="49.062663" lon="2.521990">
        <ele>117.647639</ele>
        <time>2023-11-09T12:45:32.899Z</time>
      </trkpt>
      <trkpt lat="49.063060" lon="2.522013">
        <ele>117.522672</ele>
        <time>2023-11-09T12:45:40.322Z</time>
      </trkpt>
      <trkpt lat="49.063089" lon="2.522050">
        <ele>117.510782</ele>
        <time>2023-11-09T12:45:40.806Z</time>
      </trkpt>
      <trkpt lat="49.063198" lon="2.522060">
        <ele>117.476435</ele>
        <time>2023-11-09T12:45:42.338Z</time>
      </trkpt>
      <trkpt lat="49.063254" lon="2.521988">
        <ele>117.453402</ele>
        <time>2023-11-09T12:45:43.277Z</time>
      </trkpt>
      <trkpt lat="49.063417" lon="2.521694">
        <ele>117.374027</ele>
        <time>2023-11-09T12:45:46.530Z</time>
      </trkpt>
      <trkpt lat="49.063743" lon="2.521094">
        <ele>117.213381</ele>
        <time>2023-11-09T12:45:53.200Z</time>
      </trkpt>
      <trkpt lat="49.063852" lon="2.520867">
        <ele>117.168066</ele>
        <time>2023-11-09T12:45:55.687Z</time>
      </trkpt>
      <trkpt lat="49.064020" lon="2.520508">
        <ele>117.416672</ele>
        <time>2023-11-09T12:45:59.412Z</time>
      </trkpt>
      <trkpt lat="49.064165" lon="2.520212">
        <ele>117.624941</ele>
        <time>2023-11-09T12:46:02.508Z</time>
      </trkpt>
      <trkpt lat="49.070057" lon="2.508230">
        <ele>125.854539</ele>
        <time>2023-11-09T12:49:05.845Z</time>
      </trkpt>
      <trkpt lat="49.071695" lon="2.504892">
        <ele>126.468409</ele>
        <time>2023-11-09T12:49:46.742Z</time>
      </trkpt>
      <trkpt lat="49.071787" lon="2.504622">
        <ele>126.543618</ele>
        <time>2023-11-09T12:49:49.674Z</time>
      </trkpt>
      <trkpt lat="49.071799" lon="2.504188">
        <ele>126.650965</ele>
        <time>2023-11-09T12:49:54.004Z</time>
      </trkpt>
      <trkpt lat="49.071437" lon="2.499293">
        <ele>129.278115</ele>
        <time>2023-11-09T12:50:52.111Z</time>
      </trkpt>
      <trkpt lat="49.071480" lon="2.499067">
        <ele>129.493949</ele>
        <time>2023-11-09T12:50:55.321Z</time>
      </trkpt>
      <trkpt lat="49.071504" lon="2.499017">
        <ele>129.550797</ele>
        <time>2023-11-09T12:50:56.173Z</time>
      </trkpt>
      <trkpt lat="49.071587" lon="2.498979">
        <ele>129.672106</ele>
        <time>2023-11-09T12:50:57.988Z</time>
      </trkpt>
      <trkpt lat="49.071747" lon="2.498989">
        <ele>129.896284</ele>
        <time>2023-11-09T12:51:01.377Z</time>
      </trkpt>
      <trkpt lat="49.072203" lon="2.499063">
        <ele>130.538253</ele>
        <time>2023-11-09T12:51:11.324Z</time>
      </trkpt>
      <trkpt lat="49.072797" lon="2.499052">
        <ele>131.431196</ele>
        <time>2023-11-09T12:51:24.678Z</time>
      </trkpt>
      <trkpt lat="49.072957" lon="2.499021">
        <ele>131.689034</ele>
        <time>2023-11-09T12:51:28.391Z</time>
      </trkpt>
      <trkpt lat="49.073148" lon="2.498873">
        <ele>132.031466</ele>
        <time>2023-11-09T12:51:33.146Z</time>
      </trkpt>
      <trkpt lat="49.073934" lon="2.498069">
        <ele>133.544044</ele>
        <time>2023-11-09T12:51:53.249Z</time>
      </trkpt>
      <trkpt lat="49.074146" lon="2.498026">
        <ele>133.837073</ele>
        <time>2023-11-09T12:51:57.534Z</time>
      </trkpt>
      <trkpt lat="49.074143" lon="2.497934">
        <ele>133.868602</ele>
        <time>2023-11-09T12:51:58.688Z</time>
      </trkpt>
      <trkpt lat="49.074086" lon="2.496024">
        <ele>134.523044</ele>
        <time>2023-11-09T12:52:20.329Z</time>
      </trkpt>
      <trkpt lat="49.074018" lon="2.495784">
        <ele>134.612547</ele>
        <time>2023-11-09T12:52:22.946Z</time>
      </trkpt>
      <trkpt lat="49.073174" lon="2.494104">
        <ele>134.254519</ele>
        <time>2023-11-09T12:52:42.090Z</time>
      </trkpt>
      <trkpt lat="49.070162" lon="2.485919">
        <ele>129.382121</ele>
        <time>2023-11-09T12:53:59.645Z</time>
      </trkpt>
      <trkpt lat="49.070064" lon="2.485383">
        <ele>128.818269</ele>
        <time>2023-11-09T12:54:03.811Z</time>
      </trkpt>
      <trkpt lat="49.069936" lon="2.482294">
        <ele>125.654333</ele>
        <time>2023-11-09T12:54:26.646Z</time>
      </trkpt>
      <trkpt lat="49.069911" lon="2.482193">
        <ele>125.541990</ele>
        <time>2023-11-09T12:54:27.463Z</time>
      </trkpt>
      <trkpt lat="49.069837" lon="2.482079">
        <ele>125.375006</ele>
        <time>2023-11-09T12:54:28.612Z</time>
      </trkpt>
      <trkpt lat="49.069892" lon="2.481912">
        <ele>125.180519</ele>
        <time>2023-11-09T12:54:30.017Z</time>
      </trkpt>
      <trkpt lat="49.069903" lon="2.481775">
        <ele>125.036902</ele>
        <time>2023-11-09T12:54:31.044Z</time>
      </trkpt>
      <trkpt lat="49.069878" lon="2.481529">
        <ele>124.777874</ele>
        <time>2023-11-09T12:54:32.823Z</time>
      </trkpt>
      <trkpt lat="49.069790" lon="2.481067">
        <ele>124.277250</ele>
        <time>2023-11-09T12:54:36.349Z</time>
      </trkpt>
      <trkpt lat="49.069464" lon="2.480227">
        <ele>123.934591</ele>
        <time>2023-11-09T12:54:43.997Z</time>
      </trkpt>
      <trkpt lat="49.068995" lon="2.479723">
        <ele>124.052973</ele>
        <time>2023-11-09T12:54:51.908Z</time>
      </trkpt>
      <trkpt lat="49.068916" lon="2.479628">
        <ele>124.073731</ele>
        <time>2023-11-09T12:54:53.516Z</time>
      </trkpt>
      <trkpt lat="49.068877" lon="2.479508">
        <ele>124.091844</ele>
        <time>2023-11-09T12:54:55.040Z</time>
      </trkpt>
      <trkpt lat="49.068663" lon="2.478007">
        <ele>125.009185</ele>
        <time>2023-11-09T12:55:15.824Z</time>
      </trkpt>
      <trkpt lat="49.068597" lon="2.477815">
        <ele>125.330863</ele>
        <time>2023-11-09T12:55:19.116Z</time>
      </trkpt>
      <trkpt lat="49.068532" lon="2.477721">
        <ele>125.533629</ele>
        <time>2023-11-09T12:55:21.396Z</time>
      </trkpt>
      <trkpt lat="49.068257" lon="2.477487">
        <ele>126.246595</ele>
        <time>2023-11-09T12:55:29.377Z</time>
      </trkpt>
      <trkpt lat="49.067971" lon="2.476910">
        <ele>127.320024</ele>
        <time>2023-11-09T12:55:41.894Z</time>
      </trkpt>
      <trkpt lat="49.067702" lon="2.476338">
        <ele>128.337644</ele>
        <time>2023-11-09T12:55:53.270Z</time>
      </trkpt>
      <trkpt lat="49.067950" lon="2.475042">
        <ele>129.485509</ele>
        <time>2023-11-09T12:56:13.226Z</time>
      </trkpt>
      <trkpt lat="49.067988" lon="2.474447">
        <ele>129.993760</ele>
        <time>2023-11-09T12:56:20.259Z</time>
      </trkpt>
      <trkpt lat="49.067954" lon="2.472938">
        <ele>130.853566</ele>
        <time>2023-11-09T12:56:36.262Z</time>
      </trkpt>
      <trkpt lat="49.067864" lon="2.472271">
        <ele>131.050291</ele>
        <time>2023-11-09T12:56:43.468Z</time>
      </trkpt>
      <trkpt lat="49.067866" lon="2.472041">
        <ele>131.116739</ele>
        <time>2023-11-09T12:56:46.022Z</time>
      </trkpt>
      <trkpt lat="49.067967" lon="2.471831">
        <ele>131.191995</ele>
        <time>2023-11-09T12:56:48.989Z</time>
      </trkpt>
      <trkpt lat="49.067888" lon="2.471747">
        <ele>131.234447</ele>
        <time>2023-11-09T12:56:50.630Z</time>
      </trkpt>
      <trkpt lat="49.067804" lon="2.471493">
        <ele>131.316640</ele>
        <time>2023-11-09T12:56:53.807Z</time>
      </trkpt>
      <trkpt lat="49.067837" lon="2.471409">
        <ele>131.344934</ele>
        <time>2023-11-09T12:56:54.958Z</time>
      </trkpt>
      <trkpt lat="49.067829" lon="2.471197">
        <ele>131.406277</ele>
        <time>2023-11-09T12:56:57.287Z</time>
      </trkpt>
      <trkpt lat="49.067776" lon="2.469358">
        <ele>131.962888</ele>
        <time>2023-11-09T12:57:16.560Z</time>
      </trkpt>
      <trkpt lat="49.067725" lon="2.468613">
        <ele>132.189826</ele>
        <time>2023-11-09T12:57:24.579Z</time>
      </trkpt>
      <trkpt lat="49.067633" lon="2.468087">
        <ele>132.674524</ele>
        <time>2023-11-09T12:57:30.719Z</time>
      </trkpt>
      <trkpt lat="49.067254" lon="2.466347">
        <ele>135.108966</ele>
        <time>2023-11-09T12:57:56.670Z</time>
      </trkpt>
      <trkpt lat="49.067216" lon="2.465906">
        <ele>135.699507</ele>
        <time>2023-11-09T12:58:04.675Z</time>
      </trkpt>
      <trkpt lat="49.067217" lon="2.464713">
        <ele>139.066155</ele>
        <time>2023-11-09T12:58:29.556Z</time>
      </trkpt>
      <trkpt lat="49.067175" lon="2.464480">
        <ele>139.801963</ele>
        <time>2023-11-09T12:58:35.010Z</time>
      </trkpt>
      <trkpt lat="49.067083" lon="2.464202">
        <ele>140.750282</ele>
        <time>2023-11-09T12:58:42.072Z</time>
      </trkpt>
      <trkpt lat="49.066789" lon="2.463488">
        <ele>143.318011</ele>
        <time>2023-11-09T12:59:02.034Z</time>
      </trkpt>
      <trkpt lat="49.066596" lon="2.462833">
        <ele>145.579466</ele>
        <time>2023-11-09T12:59:18.868Z</time>
      </trkpt>
      <trkpt lat="49.066483" lon="2.462385">
        <ele>147.129114</ele>
        <time>2023-11-09T12:59:30.070Z</time>
      </trkpt>
      <trkpt lat="49.066436" lon="2.462087">
        <ele>148.118563</ele>
        <time>2023-11-09T12:59:37.122Z</time>
      </trkpt>
      <trkpt lat="49.066380" lon="2.461111">
        <ele>151.281235</ele>
        <time>2023-11-09T12:59:59.248Z</time>
      </trkpt>
      <trkpt lat="49.066394" lon="2.460852">
        <ele>152.120151</ele>
        <time>2023-11-09T13:00:04.973Z</time>
      </trkpt>
      <trkpt lat="49.066355" lon="2.460595">
        <ele>152.971733</ele>
        <time>2023-11-09T13:00:10.651Z</time>
      </trkpt>
      <trkpt lat="49.066288" lon="2.459313">
        <ele>156.159869</ele>
        <time>2023-11-09T13:00:38.222Z</time>
      </trkpt>
      <trkpt lat="49.066314" lon="2.457597">
        <ele>159.926667</ele>
        <time>2023-11-09T13:01:10.208Z</time>
      </trkpt>
      <trkpt lat="49.066316" lon="2.457519">
        <ele>159.954492</ele>
        <time>2023-11-09T13:01:11.363Z</time>
      </trkpt>
      <trkpt lat="49.066320" lon="2.456564">
        <ele>160.294916</ele>
        <time>2023-11-09T13:01:24.368Z</time>
      </trkpt>
      <trkpt lat="49.066288" lon="2.454930">
        <ele>160.552870</ele>
        <time>2023-11-09T13:01:38.861Z</time>
      </trkpt>
      <trkpt lat="49.066229" lon="2.453689">
        <ele>157.937158</ele>
        <time>2023-11-09T13:01:47.348Z</time>
      </trkpt>
      <trkpt lat="49.066235" lon="2.453324">
        <ele>157.169606</ele>
        <time>2023-11-09T13:01:49.732Z</time>
      </trkpt>
      <trkpt lat="49.066192" lon="2.453016">
        <ele>156.507586</ele>
        <time>2023-11-09T13:01:51.770Z</time>
      </trkpt>
      <trkpt lat="49.066068" lon="2.449954">
        <ele>147.307895</ele>
        <time>2023-11-09T13:02:10.719Z</time>
      </trkpt>
      <trkpt lat="49.066070" lon="2.449534">
        <ele>145.961820</ele>
        <time>2023-11-09T13:02:13.297Z</time>
      </trkpt>
      <trkpt lat="49.066229" lon="2.448819">
        <ele>143.817135</ele>
        <time>2023-11-09T13:02:17.947Z</time>
      </trkpt>
      <trkpt lat="49.066833" lon="2.446507">
        <ele>137.266794</ele>
        <time>2023-11-09T13:02:33.819Z</time>
      </trkpt>
      <trkpt lat="49.067467" lon="2.443735">
        <ele>131.779673</ele>
        <time>2023-11-09T13:02:54.143Z</time>
      </trkpt>
      <trkpt lat="49.067542" lon="2.443041">
        <ele>130.530472</ele>
        <time>2023-11-09T13:02:58.928Z</time>
      </trkpt>
      <trkpt lat="49.067617" lon="2.441384">
        <ele>128.008414</ele>
        <time>2023-11-09T13:03:10.130Z</time>
      </trkpt>
      <trkpt lat="49.067665" lon="2.440345">
        <ele>127.388161</ele>
        <time>2023-11-09T13:03:17.633Z</time>
      </trkpt>
      <trkpt lat="49.067707" lon="2.439969">
        <ele>127.161024</ele>
        <time>2023-11-09T13:03:20.603Z</time>
      </trkpt>
      <trkpt lat="49.068630" lon="2.434982">
        <ele>129.430198</ele>
        <time>2023-11-09T13:04:27.065Z</time>
      </trkpt>
      <trkpt lat="49.068631" lon="2.434896">
        <ele>129.475053</ele>
        <time>2023-11-09T13:04:28.123Z</time>
      </trkpt>
      <trkpt lat="49.068559" lon="2.434732">
        <ele>129.578002</ele>
        <time>2023-11-09T13:04:30.453Z</time>
      </trkpt>
      <trkpt lat="49.066245" lon="2.431723">
        <ele>131.068188</ele>
        <time>2023-11-09T13:05:17.784Z</time>
      </trkpt>
      <trkpt lat="49.065992" lon="2.431217">
        <ele>131.515890</ele>
        <time>2023-11-09T13:05:25.767Z</time>
      </trkpt>
      <trkpt lat="49.065969" lon="2.431168">
        <ele>131.558287</ele>
        <time>2023-11-09T13:05:26.552Z</time>
      </trkpt>
      <trkpt lat="49.065956" lon="2.431138">
        <ele>131.583586</ele>
        <time>2023-11-09T13:05:27.029Z</time>
      </trkpt>
      <trkpt lat="49.065921" lon="2.430961">
        <ele>131.713629</ele>
        <time>2023-11-09T13:05:29.486Z</time>
      </trkpt>
      <trkpt lat="49.065939" lon="2.430718">
        <ele>131.885637</ele>
        <time>2023-11-09T13:05:32.849Z</time>
      </trkpt>
      <trkpt lat="49.066150" lon="2.429923">
        <ele>132.567180</ele>
        <time>2023-11-09T13:05:45.133Z</time>
      </trkpt>
      <trkpt lat="49.066317" lon="2.428885">
        <ele>133.772799</ele>
        <time>2023-11-09T13:06:01.596Z</time>
      </trkpt>
      <trkpt lat="49.066737" lon="2.426694">
        <ele>135.765788</ele>
        <time>2023-11-09T13:06:33.233Z</time>
      </trkpt>
      <trkpt lat="49.066883" lon="2.425884">
        <ele>136.095017</ele>
        <time>2023-11-09T13:06:41.932Z</time>
      </trkpt>
      <trkpt lat="49.066922" lon="2.425406">
        <ele>136.283790</ele>
        <time>2023-11-09T13:06:46.690Z</time>
      </trkpt>
      <trkpt lat="49.066929" lon="2.424601">
        <ele>136.536028</ele>
        <time>2023-11-09T13:06:54.788Z</time>
      </trkpt>
      <trkpt lat="49.066952" lon="2.424288">
        <ele>136.543788</ele>
        <time>2023-11-09T13:06:57.750Z</time>
      </trkpt>
      <trkpt lat="49.067104" lon="2.423315">
        <ele>136.568432</ele>
        <time>2023-11-09T13:07:07.636Z</time>
      </trkpt>
      <trkpt lat="49.067127" lon="2.423169">
        <ele>136.572132</ele>
        <time>2023-11-09T13:07:09.181Z</time>
      </trkpt>
      <trkpt lat="49.067355" lon="2.421737">
        <ele>136.423010</ele>
        <time>2023-11-09T13:07:23.970Z</time>
      </trkpt>
      <trkpt lat="49.067624" lon="2.420052">
        <ele>135.587208</ele>
        <time>2023-11-09T13:07:38.785Z</time>
      </trkpt>
      <trkpt lat="49.067726" lon="2.419591">
        <ele>135.352714</ele>
        <time>2023-11-09T13:07:42.461Z</time>
      </trkpt>
      <trkpt lat="49.067862" lon="2.419135">
        <ele>134.883920</ele>
        <time>2023-11-09T13:07:46.116Z</time>
      </trkpt>
      <trkpt lat="49.067991" lon="2.418808">
        <ele>134.446719</ele>
        <time>2023-11-09T13:07:48.892Z</time>
      </trkpt>
      <trkpt lat="49.068162" lon="2.418440">
        <ele>133.929961</ele>
        <time>2023-11-09T13:07:52.150Z</time>
      </trkpt>
      <trkpt lat="49.068554" lon="2.417779">
        <ele>132.908755</ele>
        <time>2023-11-09T13:07:58.603Z</time>
      </trkpt>
      <trkpt lat="49.068830" lon="2.417387">
        <ele>132.249653</ele>
        <time>2023-11-09T13:08:02.837Z</time>
      </trkpt>
      <trkpt lat="49.068985" lon="2.417112">
        <ele>131.937378</ele>
        <time>2023-11-09T13:08:05.586Z</time>
      </trkpt>
      <trkpt lat="49.069203" lon="2.416643">
        <ele>131.507081</ele>
        <time>2023-11-09T13:08:10.024Z</time>
      </trkpt>
      <trkpt lat="49.069351" lon="2.416255">
        <ele>131.171127</ele>
        <time>2023-11-09T13:08:13.565Z</time>
      </trkpt>
      <trkpt lat="49.069467" lon="2.415840">
        <ele>130.833511</ele>
        <time>2023-11-09T13:08:17.188Z</time>
      </trkpt>
      <trkpt lat="49.069583" lon="2.415149">
        <ele>130.299752</ele>
        <time>2023-11-09T13:08:22.942Z</time>
      </trkpt>
      <trkpt lat="49.069682" lon="2.414331">
        <ele>129.726705</ele>
        <time>2023-11-09T13:08:29.717Z</time>
      </trkpt>
      <trkpt lat="49.069789" lon="2.413162">
        <ele>128.952473</ele>
        <time>2023-11-09T13:08:39.258Z</time>
      </trkpt>
      <trkpt lat="49.069799" lon="2.412846">
        <ele>128.744958</ele>
        <time>2023-11-09T13:08:41.762Z</time>
      </trkpt>
      <trkpt lat="49.070073" lon="2.410256">
        <ele>127.130696</ele>
        <time>2023-11-09T13:09:02.533Z</time>
      </trkpt>
      <trkpt lat="49.070143" lon="2.409750">
        <ele>126.820346</ele>
        <time>2023-11-09T13:09:06.814Z</time>
      </trkpt>
      <trkpt lat="49.070217" lon="2.409393">
        <ele>126.622500</ele>
        <time>2023-11-09T13:09:10.000Z</time>
      </trkpt>
      <trkpt lat="49.070539" lon="2.408428">
        <ele>126.492843</ele>
        <time>2023-11-09T13:09:19.717Z</time>
      </trkpt>
      <trkpt lat="49.070940" lon="2.407262">
        <ele>126.335178</ele>
        <time>2023-11-09T13:09:32.349Z</time>
      </trkpt>
      <trkpt lat="49.071027" lon="2.406890">
        <ele>126.316149</ele>
        <time>2023-11-09T13:09:36.253Z</time>
      </trkpt>
      <trkpt lat="49.071087" lon="2.406465">
        <ele>126.380798</ele>
        <time>2023-11-09T13:09:40.685Z</time>
      </trkpt>
      <trkpt lat="49.071106" lon="2.406053">
        <ele>126.442215</ele>
        <time>2023-11-09T13:09:45.045Z</time>
      </trkpt>
      <trkpt lat="49.071096" lon="2.405658">
        <ele>126.500996</ele>
        <time>2023-11-09T13:09:49.266Z</time>
      </trkpt>
      <trkpt lat="49.070968" lon="2.404456">
        <ele>126.682082</ele>
        <time>2023-11-09T13:10:02.038Z</time>
      </trkpt>
      <trkpt lat="49.070935" lon="2.404176">
        <ele>126.702553</ele>
        <time>2023-11-09T13:10:04.886Z</time>
      </trkpt>
      <trkpt lat="49.070893" lon="2.403623">
        <ele>126.669703</ele>
        <time>2023-11-09T13:10:10.337Z</time>
      </trkpt>
      <trkpt lat="49.070922" lon="2.402885">
        <ele>126.626077</ele>
        <time>2023-11-09T13:10:17.503Z</time>
      </trkpt>
      <trkpt lat="49.071757" lon="2.396102">
        <ele>125.709197</ele>
        <time>2023-11-09T13:11:20.215Z</time>
      </trkpt>
      <trkpt lat="49.071848" lon="2.394804">
        <ele>126.085245</ele>
        <time>2023-11-09T13:11:34.639Z</time>
      </trkpt>
      <trkpt lat="49.071842" lon="2.394046">
        <ele>126.303616</ele>
        <time>2023-11-09T13:11:43.250Z</time>
      </trkpt>
      <trkpt lat="49.071838" lon="2.393956">
        <ele>126.329602</ele>
        <time>2023-11-09T13:11:44.248Z</time>
      </trkpt>
      <trkpt lat="49.071752" lon="2.392952">
        <ele>126.504716</ele>
        <time>2023-11-09T13:11:55.534Z</time>
      </trkpt>
      <trkpt lat="49.071645" lon="2.392270">
        <ele>126.538865</ele>
        <time>2023-11-09T13:12:02.836Z</time>
      </trkpt>
      <trkpt lat="49.071532" lon="2.391738">
        <ele>126.566099</ele>
        <time>2023-11-09T13:12:08.422Z</time>
      </trkpt>
      <trkpt lat="49.071272" lon="2.390811">
        <ele>126.611607</ele>
        <time>2023-11-09T13:12:17.889Z</time>
      </trkpt>
      <trkpt lat="49.070629" lon="2.389049">
        <ele>126.010513</ele>
        <time>2023-11-09T13:12:35.283Z</time>
      </trkpt>
      <trkpt lat="49.070513" lon="2.388597">
        <ele>125.865838</ele>
        <time>2023-11-09T13:12:39.531Z</time>
      </trkpt>
      <trkpt lat="49.070461" lon="2.388201">
        <ele>125.695495</ele>
        <time>2023-11-09T13:12:43.125Z</time>
      </trkpt>
      <trkpt lat="49.070288" lon="2.388240">
        <ele>125.537983</ele>
        <time>2023-11-09T13:13:02.120Z</time>
      </trkpt>
      <trkpt lat="49.070163" lon="2.388105">
        <ele>125.400063</ele>
        <time>2023-11-09T13:13:18.945Z</time>
      </trkpt>
      <trkpt lat="49.070011" lon="2.387747">
        <ele>125.148328</ele>
        <time>2023-11-09T13:13:49.338Z</time>
      </trkpt>
      <trkpt lat="49.069690" lon="2.386836">
        <ele>124.537940</ele>
        <time>2023-11-09T13:15:02.174Z</time>
      </trkpt>
      <trkpt lat="49.069599" lon="2.386670">
        <ele>124.410217</ele>
        <time>2023-11-09T13:15:17.384Z</time>
      </trkpt>
      <trkpt lat="49.069066" lon="2.386383">
        <ele>123.733592</ele>
        <time>2023-11-09T13:16:17.198Z</time>
      </trkpt>
      <trkpt lat="49.068823" lon="2.386347">
        <ele>123.379848</ele>
        <time>2023-11-09T13:16:21.194Z</time>
      </trkpt>
      <trkpt lat="49.067675" lon="2.386417">
        <ele>121.715148</ele>
        <time>2023-11-09T13:16:40.001Z</time>
      </trkpt>
      <trkpt lat="49.067254" lon="2.386259">
        <ele>121.391939</ele>
        <time>2023-11-09T13:16:47.309Z</time>
      </trkpt>
      <trkpt lat="49.066822" lon="2.385937">
        <ele>121.134861</ele>
        <time>2023-11-09T13:16:55.797Z</time>
      </trkpt>
      <trkpt lat="49.065731" lon="2.385560">
        <ele>120.604209</ele>
        <time>2023-11-09T13:17:18.236Z</time>
      </trkpt>
      <trkpt lat="49.063858" lon="2.385002">
        <ele>120.340903</ele>
        <time>2023-11-09T13:17:57.030Z</time>
      </trkpt>
      <trkpt lat="49.060674" lon="2.383678">
        <ele>117.307458</ele>
        <time>2023-11-09T13:18:53.778Z</time>
      </trkpt>
      <trkpt lat="49.060804" lon="2.382573">
        <ele>117.248030</ele>
        <time>2023-11-09T13:19:08.053Z</time>
      </trkpt>
      <trkpt lat="49.061041" lon="2.380977">
        <ele>117.235904</ele>
        <time>2023-11-09T13:19:30.947Z</time>
      </trkpt>
      <trkpt lat="49.061119" lon="2.379346">
        <ele>117.438939</ele>
        <time>2023-11-09T13:19:54.065Z</time>
      </trkpt>
      <trkpt lat="49.061091" lon="2.378642">
        <ele>117.530468</ele>
        <time>2023-11-09T13:20:03.597Z</time>
      </trkpt>
      <trkpt lat="49.060816" lon="2.377286">
        <ele>117.459292</ele>
        <time>2023-11-09T13:20:22.212Z</time>
      </trkpt>
      <trkpt lat="49.060377" lon="2.374916">
        <ele>116.833492</ele>
        <time>2023-11-09T13:20:53.063Z</time>
      </trkpt>
      <trkpt lat="49.060349" lon="2.373911">
        <ele>116.267164</ele>
        <time>2023-11-09T13:21:04.920Z</time>
      </trkpt>
      <trkpt lat="49.060338" lon="2.372820">
        <ele>115.638884</ele>
        <time>2023-11-09T13:21:17.336Z</time>
      </trkpt>
      <trkpt lat="49.060318" lon="2.370644">
        <ele>112.743697</ele>
        <time>2023-11-09T13:21:39.591Z</time>
      </trkpt>
      <trkpt lat="49.060359" lon="2.369717">
        <ele>111.612608</ele>
        <time>2023-11-09T13:21:48.914Z</time>
      </trkpt>
      <trkpt lat="49.060310" lon="2.368909">
        <ele>110.758055</ele>
        <time>2023-11-09T13:21:57.104Z</time>
      </trkpt>
      <trkpt lat="49.059818" lon="2.366307">
        <ele>109.183834</ele>
        <time>2023-11-09T13:22:27.547Z</time>
      </trkpt>
      <trkpt lat="49.059196" lon="2.362321">
        <ele>110.780303</ele>
        <time>2023-11-09T13:23:31.801Z</time>
      </trkpt>
      <trkpt lat="49.059181" lon="2.360727">
        <ele>111.448786</ele>
        <time>2023-11-09T13:23:56.771Z</time>
      </trkpt>
      <trkpt lat="49.059127" lon="2.358704">
        <ele>111.801568</ele>
        <time>2023-11-09T13:24:25.470Z</time>
      </trkpt>
      <trkpt lat="49.059162" lon="2.357159">
        <ele>111.350936</ele>
        <time>2023-11-09T13:24:44.289Z</time>
      </trkpt>
      <trkpt lat="49.059013" lon="2.353082">
        <ele>108.588710</ele>
        <time>2023-11-09T13:25:29.509Z</time>
      </trkpt>
      <trkpt lat="49.059045" lon="2.352926">
        <ele>108.492870</ele>
        <time>2023-11-09T13:25:31.368Z</time>
      </trkpt>
      <trkpt lat="49.059120" lon="2.352743">
        <ele>108.366320</ele>
        <time>2023-11-09T13:25:33.844Z</time>
      </trkpt>
      <trkpt lat="49.058814" lon="2.351824">
        <ele>107.761936</ele>
        <time>2023-11-09T13:25:42.318Z</time>
      </trkpt>
      <trkpt lat="49.058380" lon="2.350256">
        <ele>106.779407</ele>
        <time>2023-11-09T13:25:57.015Z</time>
      </trkpt>
      <trkpt lat="49.058360" lon="2.350043">
        <ele>106.656158</ele>
        <time>2023-11-09T13:25:58.947Z</time>
      </trkpt>
      <trkpt lat="49.058289" lon="2.349301">
        <ele>106.226643</ele>
        <time>2023-11-09T13:26:05.452Z</time>
      </trkpt>
      <trkpt lat="49.058249" lon="2.348102">
        <ele>104.930857</ele>
        <time>2023-11-09T13:26:14.411Z</time>
      </trkpt>
      <trkpt lat="49.058188" lon="2.347671">
        <ele>104.201877</ele>
        <time>2023-11-09T13:26:17.406Z</time>
      </trkpt>
      <trkpt lat="49.058026" lon="2.346941">
        <ele>102.927676</ele>
        <time>2023-11-09T13:26:22.730Z</time>
      </trkpt>
      <trkpt lat="49.057879" lon="2.345689">
        <ele>100.747085</ele>
        <time>2023-11-09T13:26:31.287Z</time>
      </trkpt>
      <trkpt lat="49.057893" lon="2.345467">
        <ele>100.320880</ele>
        <time>2023-11-09T13:26:32.706Z</time>
      </trkpt>
      <trkpt lat="49.057564" lon="2.345413">
        <ele>99.355898</ele>
        <time>2023-11-09T13:26:35.915Z</time>
      </trkpt>
      <trkpt lat="49.057347" lon="2.345290">
        <ele>98.680826</ele>
        <time>2023-11-09T13:26:38.200Z</time>
      </trkpt>
      <trkpt lat="49.057223" lon="2.345215">
        <ele>98.291841</ele>
        <time>2023-11-09T13:26:39.509Z</time>
      </trkpt>
      <trkpt lat="49.056988" lon="2.345085">
        <ele>97.562880</ele>
        <time>2023-11-09T13:26:42.095Z</time>
      </trkpt>
      <trkpt lat="49.056923" lon="2.345042">
        <ele>97.356278</ele>
        <time>2023-11-09T13:26:42.836Z</time>
      </trkpt>
      <trkpt lat="49.056882" lon="2.345015">
        <ele>97.226053</ele>
        <time>2023-11-09T13:26:43.288Z</time>
      </trkpt>
      <trkpt lat="49.056798" lon="2.344853">
        <ele>96.831269</ele>
        <time>2023-11-09T13:26:44.748Z</time>
      </trkpt>
      <trkpt lat="49.056708" lon="2.344507">
        <ele>96.119858</ele>
        <time>2023-11-09T13:26:47.507Z</time>
      </trkpt>
      <trkpt lat="49.056633" lon="2.344196">
        <ele>96.024950</ele>
        <time>2023-11-09T13:26:50.238Z</time>
      </trkpt>
      <trkpt lat="49.056556" lon="2.343866">
        <ele>95.964661</ele>
        <time>2023-11-09T13:26:53.055Z</time>
      </trkpt>
      <trkpt lat="49.056415" lon="2.343307">
        <ele>95.861570</ele>
        <time>2023-11-09T13:26:58.192Z</time>
      </trkpt>
      <trkpt lat="49.056281" lon="2.343077">
        <ele>95.808603</ele>
        <time>2023-11-09T13:27:01.006Z</time>
      </trkpt>
      <trkpt lat="49.055456" lon="2.342560">
        <ele>95.690436</ele>
        <time>2023-11-09T13:27:15.780Z</time>
      </trkpt>
      <trkpt lat="49.054938" lon="2.342161">
        <ele>96.099954</ele>
        <time>2023-11-09T13:27:27.522Z</time>
      </trkpt>
      <trkpt lat="49.054803" lon="2.342031">
        <ele>96.212616</ele>
        <time>2023-11-09T13:27:30.599Z</time>
      </trkpt>
      <trkpt lat="49.051845" lon="2.339168">
        <ele>97.459407</ele>
        <time>2023-11-09T13:28:28.400Z</time>
      </trkpt>
      <trkpt lat="49.051598" lon="2.338869">
        <ele>97.404734</ele>
        <time>2023-11-09T13:28:33.079Z</time>
      </trkpt>
      <trkpt lat="49.051534" lon="2.338754">
        <ele>97.387589</ele>
        <time>2023-11-09T13:28:34.562Z</time>
      </trkpt>
      <trkpt lat="49.051037" lon="2.337865">
        <ele>96.895052</ele>
        <time>2023-11-09T13:28:44.455Z</time>
      </trkpt>
      <trkpt lat="49.051008" lon="2.337809">
        <ele>96.772222</ele>
        <time>2023-11-09T13:28:45.002Z</time>
      </trkpt>
      <trkpt lat="49.050539" lon="2.336869">
        <ele>94.739047</ele>
        <time>2023-11-09T13:28:53.403Z</time>
      </trkpt>
      <trkpt lat="49.050298" lon="2.335784">
        <ele>92.767427</ele>
        <time>2023-11-09T13:29:00.781Z</time>
      </trkpt>
      <trkpt lat="49.050273" lon="2.335650">
        <ele>92.528403</ele>
        <time>2023-11-09T13:29:01.680Z</time>
      </trkpt>
      <trkpt lat="49.050218" lon="2.335517">
        <ele>92.264664</ele>
        <time>2023-11-09T13:29:02.699Z</time>
      </trkpt>
      <trkpt lat="49.049785" lon="2.334869">
        <ele>90.712683</ele>
        <time>2023-11-09T13:29:08.717Z</time>
      </trkpt>
      <trkpt lat="49.049564" lon="2.334576">
        <ele>89.963511</ele>
        <time>2023-11-09T13:29:11.657Z</time>
      </trkpt>
      <trkpt lat="49.049266" lon="2.334242">
        <ele>89.017343</ele>
        <time>2023-11-09T13:29:15.626Z</time>
      </trkpt>
      <trkpt lat="49.048845" lon="2.333782">
        <ele>88.069675</ele>
        <time>2023-11-09T13:29:21.847Z</time>
      </trkpt>
      <trkpt lat="49.048615" lon="2.333354">
        <ele>88.476537</ele>
        <time>2023-11-09T13:29:27.498Z</time>
      </trkpt>
      <trkpt lat="49.048646" lon="2.333246">
        <ele>88.563209</ele>
        <time>2023-11-09T13:29:28.748Z</time>
      </trkpt>
      <trkpt lat="49.048614" lon="2.333124">
        <ele>88.659808</ele>
        <time>2023-11-09T13:29:30.268Z</time>
      </trkpt>
      <trkpt lat="49.048523" lon="2.333081">
        <ele>88.766656</ele>
        <time>2023-11-09T13:29:32.297Z</time>
      </trkpt>
      <trkpt lat="49.048466" lon="2.333126">
        <ele>88.838638</ele>
        <time>2023-11-09T13:29:33.781Z</time>
      </trkpt>
      <trkpt lat="49.048311" lon="2.333114">
        <ele>89.012709</ele>
        <time>2023-11-09T13:29:37.069Z</time>
      </trkpt>
      <trkpt lat="49.047761" lon="2.332279">
        <ele>89.882949</ele>
        <time>2023-11-09T13:29:55.126Z</time>
      </trkpt>
      <trkpt lat="49.047666" lon="2.332148">
        <ele>90.039150</ele>
        <time>2023-11-09T13:29:58.258Z</time>
      </trkpt>
      <trkpt lat="49.047536" lon="2.331875">
        <ele>90.344419</ele>
        <time>2023-11-09T13:30:03.342Z</time>
      </trkpt>
      <trkpt lat="49.047513" lon="2.331777">
        <ele>90.438587</ele>
        <time>2023-11-09T13:30:04.987Z</time>
      </trkpt>
      <trkpt lat="49.047485" lon="2.331679">
        <ele>90.535300</ele>
        <time>2023-11-09T13:30:06.658Z</time>
      </trkpt>
      <trkpt lat="49.047437" lon="2.331637">
        <ele>90.611674</ele>
        <time>2023-11-09T13:30:08.036Z</time>
      </trkpt>
      <trkpt lat="49.047455" lon="2.331542">
        <ele>90.701135</ele>
        <time>2023-11-09T13:30:15.633Z</time>
      </trkpt>
      <trkpt lat="49.047323" lon="2.331494">
        <ele>90.888429</ele>
        <time>2023-11-09T13:30:18.800Z</time>
      </trkpt>
      <trkpt lat="49.046634" lon="2.330553">
        <ele>92.164775</ele>
        <time>2023-11-09T13:30:36.532Z</time>
      </trkpt>
      <trkpt lat="49.045914" lon="2.329064">
        <ele>93.215834</ele>
        <time>2023-11-09T13:30:57.385Z</time>
      </trkpt>
      <trkpt lat="49.045819" lon="2.328881">
        <ele>93.331985</ele>
        <time>2023-11-09T13:31:00.036Z</time>
      </trkpt>
      <trkpt lat="49.045749" lon="2.328714">
        <ele>93.430615</ele>
        <time>2023-11-09T13:31:02.283Z</time>
      </trkpt>
      <trkpt lat="49.045267" lon="2.327411">
        <ele>94.509080</ele>
        <time>2023-11-09T13:31:20.559Z</time>
      </trkpt>
      <trkpt lat="49.044270" lon="2.324271">
        <ele>97.842232</ele>
        <time>2023-11-09T13:32:09.823Z</time>
      </trkpt>
      <trkpt lat="49.044030" lon="2.323784">
        <ele>98.415630</ele>
        <time>2023-11-09T13:32:17.737Z</time>
      </trkpt>
      <trkpt lat="49.043965" lon="2.323627">
        <ele>98.590387</ele>
        <time>2023-11-09T13:32:20.177Z</time>
      </trkpt>
      <trkpt lat="49.043787" lon="2.323227">
        <ele>99.045380</ele>
        <time>2023-11-09T13:32:26.335Z</time>
      </trkpt>
      <trkpt lat="49.043506" lon="2.322398">
        <ele>99.654402</ele>
        <time>2023-11-09T13:32:37.719Z</time>
      </trkpt>
      <trkpt lat="49.043385" lon="2.322033">
        <ele>99.920437</ele>
        <time>2023-11-09T13:32:42.622Z</time>
      </trkpt>
      <trkpt lat="49.043115" lon="2.321385">
        <ele>100.419849</ele>
        <time>2023-11-09T13:32:52.182Z</time>
      </trkpt>
      <trkpt lat="49.043064" lon="2.321294">
        <ele>100.497722</ele>
        <time>2023-11-09T13:32:53.624Z</time>
      </trkpt>
      <trkpt lat="49.042796" lon="2.320922">
        <ele>100.867536</ele>
        <time>2023-11-09T13:33:00.182Z</time>
      </trkpt>
      <trkpt lat="49.042769" lon="2.320829">
        <ele>100.966641</ele>
        <time>2023-11-09T13:33:01.422Z</time>
      </trkpt>
      <trkpt lat="49.042321" lon="2.320269">
        <ele>101.827559</ele>
        <time>2023-11-09T13:33:12.905Z</time>
      </trkpt>
      <trkpt lat="49.042318" lon="2.320228">
        <ele>101.867756</ele>
        <time>2023-11-09T13:33:13.468Z</time>
      </trkpt>
      <trkpt lat="49.042325" lon="2.320143">
        <ele>101.951228</ele>
        <time>2023-11-09T13:33:14.662Z</time>
      </trkpt>
      <trkpt lat="49.042372" lon="2.320053">
        <ele>102.063348</ele>
        <time>2023-11-09T13:33:16.226Z</time>
      </trkpt>
      <trkpt lat="49.042372" lon="2.319999">
        <ele>102.115963</ele>
        <time>2023-11-09T13:33:16.985Z</time>
      </trkpt>
      <trkpt lat="49.042371" lon="2.319899">
        <ele>102.213411</ele>
        <time>2023-11-09T13:33:18.383Z</time>
      </trkpt>
      <trkpt lat="49.042371" lon="2.319847">
        <ele>102.264077</ele>
        <time>2023-11-09T13:33:19.128Z</time>
      </trkpt>
      <trkpt lat="49.042217" lon="2.319758">
        <ele>102.508864</ele>
        <time>2023-11-09T13:33:22.584Z</time>
      </trkpt>
      <trkpt lat="49.042053" lon="2.319857">
        <ele>102.771032</ele>
        <time>2023-11-09T13:33:26.383Z</time>
      </trkpt>
      <trkpt lat="49.042035" lon="2.319857">
        <ele>102.797788</ele>
        <time>2023-11-09T13:33:26.806Z</time>
      </trkpt>
      <trkpt lat="49.041918" lon="2.319828">
        <ele>102.973982</ele>
        <time>2023-11-09T13:33:29.325Z</time>
      </trkpt>
      <trkpt lat="49.041490" lon="2.319320">
        <ele>103.797998</ele>
        <time>2023-11-09T13:33:41.523Z</time>
      </trkpt>
      <trkpt lat="49.041351" lon="2.319099">
        <ele>104.116269</ele>
        <time>2023-11-09T13:33:46.048Z</time>
      </trkpt>
      <trkpt lat="49.041075" lon="2.318453">
        <ele>104.917568</ele>
        <time>2023-11-09T13:33:56.986Z</time>
      </trkpt>
      <trkpt lat="49.040757" lon="2.317393">
        <ele>106.128966</ele>
        <time>2023-11-09T13:34:13.046Z</time>
      </trkpt>
      <trkpt lat="49.040651" lon="2.317165">
        <ele>106.400494</ele>
        <time>2023-11-09T13:34:16.757Z</time>
      </trkpt>
      <trkpt lat="49.039457" lon="2.315243">
        <ele>108.252624</ele>
        <time>2023-11-09T13:34:49.204Z</time>
      </trkpt>
      <trkpt lat="49.039034" lon="2.314616">
        <ele>109.278900</ele>
        <time>2023-11-09T13:35:00.620Z</time>
      </trkpt>
      <trkpt lat="49.038876" lon="2.314368">
        <ele>109.680484</ele>
        <time>2023-11-09T13:35:05.234Z</time>
      </trkpt>
      <trkpt lat="49.038819" lon="2.314325">
        <ele>109.793126</ele>
        <time>2023-11-09T13:35:06.545Z</time>
      </trkpt>
      <trkpt lat="49.037541" lon="2.312324">
        <ele>113.948448</ele>
        <time>2023-11-09T13:35:50.420Z</time>
      </trkpt>
      <trkpt lat="49.037423" lon="2.312238">
        <ele>114.314512</ele>
        <time>2023-11-09T13:35:53.876Z</time>
      </trkpt>
      <trkpt lat="49.037152" lon="2.312062">
        <ele>115.138972</ele>
        <time>2023-11-09T13:36:01.536Z</time>
      </trkpt>
      <trkpt lat="49.036898" lon="2.311962">
        <ele>115.873255</ele>
        <time>2023-11-09T13:36:08.367Z</time>
      </trkpt>
      <trkpt lat="49.034984" lon="2.311357">
        <ele>124.509012</ele>
        <time>2023-11-09T13:37:09.831Z</time>
      </trkpt>
      <trkpt lat="49.033675" lon="2.310935">
        <ele>134.956160</ele>
        <time>2023-11-09T13:38:13.193Z</time>
      </trkpt>
      <trkpt lat="49.033096" lon="2.310584">
        <ele>139.831077</ele>
        <time>2023-11-09T13:38:45.728Z</time>
      </trkpt>
      <trkpt lat="49.032459" lon="2.309909">
        <ele>145.219695</ele>
        <time>2023-11-09T13:39:22.942Z</time>
      </trkpt>
      <trkpt lat="49.031525" lon="2.308474">
        <ele>152.837690</ele>
        <time>2023-11-09T13:40:12.562Z</time>
      </trkpt>
      <trkpt lat="49.031208" lon="2.308228">
        <ele>153.880925</ele>
        <time>2023-11-09T13:40:22.358Z</time>
      </trkpt>
      <trkpt lat="49.031070" lon="2.308178">
        <ele>154.296961</ele>
        <time>2023-11-09T13:40:25.932Z</time>
      </trkpt>
      <trkpt lat="49.030877" lon="2.308163">
        <ele>154.863790</ele>
        <time>2023-11-09T13:40:30.742Z</time>
      </trkpt>
      <trkpt lat="49.030686" lon="2.308196">
        <ele>155.427601</ele>
        <time>2023-11-09T13:40:35.167Z</time>
      </trkpt>
      <trkpt lat="49.030532" lon="2.308271">
        <ele>155.901773</ele>
        <time>2023-11-09T13:40:38.735Z</time>
      </trkpt>
      <trkpt lat="49.030353" lon="2.308460">
        <ele>156.540340</ele>
        <time>2023-11-09T13:40:43.133Z</time>
      </trkpt>
      <trkpt lat="49.029586" lon="2.309306">
        <ele>156.690996</ele>
        <time>2023-11-09T13:40:59.016Z</time>
      </trkpt>
      <trkpt lat="49.029172" lon="2.309839">
        <ele>156.517137</ele>
        <time>2023-11-09T13:41:05.883Z</time>
      </trkpt>
      <trkpt lat="49.028820" lon="2.310133">
        <ele>156.388351</ele>
        <time>2023-11-09T13:41:10.595Z</time>
      </trkpt>
      <trkpt lat="49.028560" lon="2.310423">
        <ele>155.704403</ele>
        <time>2023-11-09T13:41:14.283Z</time>
      </trkpt>
      <trkpt lat="49.028103" lon="2.311429">
        <ele>153.743384</ele>
        <time>2023-11-09T13:41:23.038Z</time>
      </trkpt>
      <trkpt lat="49.027874" lon="2.311719">
        <ele>153.015991</ele>
        <time>2023-11-09T13:41:26.154Z</time>
      </trkpt>
      <trkpt lat="49.027525" lon="2.311941">
        <ele>152.091911</ele>
        <time>2023-11-09T13:41:29.946Z</time>
      </trkpt>
      <trkpt lat="49.027389" lon="2.311986">
        <ele>151.556520</ele>
        <time>2023-11-09T13:41:31.321Z</time>
      </trkpt>
      <trkpt lat="49.027147" lon="2.312000">
        <ele>150.452094</ele>
        <time>2023-11-09T13:41:33.702Z</time>
      </trkpt>
      <trkpt lat="49.026865" lon="2.311959">
        <ele>149.160212</ele>
        <time>2023-11-09T13:41:36.463Z</time>
      </trkpt>
      <trkpt lat="49.026620" lon="2.311863">
        <ele>148.006609</ele>
        <time>2023-11-09T13:41:38.897Z</time>
      </trkpt>
      <trkpt lat="49.026598" lon="2.311774">
        <ele>147.722186</ele>
        <time>2023-11-09T13:41:39.748Z</time>
      </trkpt>
      <trkpt lat="49.026497" lon="2.311689">
        <ele>147.196101</ele>
        <time>2023-11-09T13:41:41.323Z</time>
      </trkpt>
      <trkpt lat="49.026230" lon="2.311323">
        <ele>145.558872</ele>
        <time>2023-11-09T13:41:46.178Z</time>
      </trkpt>
      <trkpt lat="49.026132" lon="2.311116">
        <ele>144.795387</ele>
        <time>2023-11-09T13:41:48.410Z</time>
      </trkpt>
      <trkpt lat="49.025977" lon="2.310586">
        <ele>142.956088</ele>
        <time>2023-11-09T13:41:53.453Z</time>
      </trkpt>
      <trkpt lat="49.025768" lon="2.308740">
        <ele>136.539630</ele>
        <time>2023-11-09T13:42:09.821Z</time>
      </trkpt>
      <trkpt lat="49.025214" lon="2.303916">
        <ele>121.099202</ele>
        <time>2023-11-09T13:42:53.901Z</time>
      </trkpt>
      <trkpt lat="49.025177" lon="2.303392">
        <ele>119.354817</ele>
        <time>2023-11-09T13:42:58.504Z</time>
      </trkpt>
      <trkpt lat="49.025443" lon="2.299687">
        <ele>106.386418</ele>
        <time>2023-11-09T13:43:30.783Z</time>
      </trkpt>
      <trkpt lat="49.025456" lon="2.299196">
        <ele>105.413719</ele>
        <time>2023-11-09T13:43:35.282Z</time>
      </trkpt>
      <trkpt lat="49.025433" lon="2.298780">
        <ele>104.587347</ele>
        <time>2023-11-09T13:43:39.205Z</time>
      </trkpt>
      <trkpt lat="49.025305" lon="2.298191">
        <ele>103.359091</ele>
        <time>2023-11-09T13:43:45.234Z</time>
      </trkpt>
      <trkpt lat="49.025217" lon="2.297889">
        <ele>102.704929</ele>
        <time>2023-11-09T13:43:48.663Z</time>
      </trkpt>
      <trkpt lat="49.025068" lon="2.297497">
        <ele>101.808043</ele>
        <time>2023-11-09T13:43:53.616Z</time>
      </trkpt>
      <trkpt lat="49.024979" lon="2.297317">
        <ele>101.549321</ele>
        <time>2023-11-09T13:43:56.279Z</time>
      </trkpt>
      <trkpt lat="49.024600" lon="2.296728">
        <ele>101.687607</ele>
        <time>2023-11-09T13:44:06.857Z</time>
      </trkpt>
      <trkpt lat="49.024384" lon="2.296491">
        <ele>101.755609</ele>
        <time>2023-11-09T13:44:12.557Z</time>
      </trkpt>
      <trkpt lat="49.023813" lon="2.296010">
        <ele>101.922313</ele>
        <time>2023-11-09T13:44:27.369Z</time>
      </trkpt>
      <trkpt lat="49.023156" lon="2.295456">
        <ele>102.254321</ele>
        <time>2023-11-09T13:44:46.149Z</time>
      </trkpt>
      <trkpt lat="49.023115" lon="2.295476">
        <ele>102.278187</ele>
        <time>2023-11-09T13:44:47.311Z</time>
      </trkpt>
      <trkpt lat="49.023065" lon="2.295434">
        <ele>102.309836</ele>
        <time>2023-11-09T13:44:48.389Z</time>
      </trkpt>
      <trkpt lat="49.022624" lon="2.295066">
        <ele>102.588554</ele>
        <time>2023-11-09T13:44:58.305Z</time>
      </trkpt>
      <trkpt lat="49.022022" lon="2.294429">
        <ele>102.981250</ele>
        <time>2023-11-09T13:45:09.517Z</time>
      </trkpt>
      <trkpt lat="49.021648" lon="2.294005">
        <ele>102.159279</ele>
        <time>2023-11-09T13:45:15.169Z</time>
      </trkpt>
      <trkpt lat="49.021503" lon="2.293803">
        <ele>101.812879</ele>
        <time>2023-11-09T13:45:17.360Z</time>
      </trkpt>
      <trkpt lat="49.021393" lon="2.293552">
        <ele>101.463702</ele>
        <time>2023-11-09T13:45:19.563Z</time>
      </trkpt>
      <trkpt lat="49.021149" lon="2.292747">
        <ele>100.437960</ele>
        <time>2023-11-09T13:45:25.762Z</time>
      </trkpt>
      <trkpt lat="49.021070" lon="2.292558">
        <ele>100.178724</ele>
        <time>2023-11-09T13:45:27.347Z</time>
      </trkpt>
      <trkpt lat="49.020896" lon="2.292255">
        <ele>99.657825</ele>
        <time>2023-11-09T13:45:30.118Z</time>
      </trkpt>
      <trkpt lat="49.020728" lon="2.292067">
        <ele>99.099920</ele>
        <time>2023-11-09T13:45:32.308Z</time>
      </trkpt>
      <trkpt lat="49.020511" lon="2.291956">
        <ele>98.487130</ele>
        <time>2023-11-09T13:45:34.738Z</time>
      </trkpt>
      <trkpt lat="49.019956" lon="2.291801">
        <ele>96.976515</ele>
        <time>2023-11-09T13:45:40.650Z</time>
      </trkpt>
      <trkpt lat="49.019119" lon="2.291348">
        <ele>94.592816</ele>
        <time>2023-11-09T13:45:49.872Z</time>
      </trkpt>
      <trkpt lat="49.018796" lon="2.291087">
        <ele>93.600025</ele>
        <time>2023-11-09T13:45:53.602Z</time>
      </trkpt>
      <trkpt lat="49.018524" lon="2.290821">
        <ele>92.722431</ele>
        <time>2023-11-09T13:45:56.935Z</time>
      </trkpt>
      <trkpt lat="49.018186" lon="2.290366">
        <ele>91.497918</ele>
        <time>2023-11-09T13:46:01.659Z</time>
      </trkpt>
      <trkpt lat="49.017840" lon="2.289765">
        <ele>90.078953</ele>
        <time>2023-11-09T13:46:07.211Z</time>
      </trkpt>
      <trkpt lat="49.017740" lon="2.289605">
        <ele>89.732573</ele>
        <time>2023-11-09T13:46:08.745Z</time>
      </trkpt>
      <trkpt lat="49.017573" lon="2.289435">
        <ele>89.252742</ele>
        <time>2023-11-09T13:46:10.825Z</time>
      </trkpt>
      <trkpt lat="49.017440" lon="2.289353">
        <ele>88.909922</ele>
        <time>2023-11-09T13:46:12.329Z</time>
      </trkpt>
      <trkpt lat="49.016854" lon="2.289112">
        <ele>87.459550</ele>
        <time>2023-11-09T13:46:18.749Z</time>
      </trkpt>
      <trkpt lat="49.016422" lon="2.288902">
        <ele>86.376032</ele>
        <time>2023-11-09T13:46:23.685Z</time>
      </trkpt>
      <trkpt lat="49.015436" lon="2.288214">
        <ele>84.245140</ele>
        <time>2023-11-09T13:46:35.481Z</time>
      </trkpt>
      <trkpt lat="49.015256" lon="2.288055">
        <ele>83.860429</ele>
        <time>2023-11-09T13:46:37.647Z</time>
      </trkpt>
      <trkpt lat="49.015128" lon="2.287934">
        <ele>83.581909</ele>
        <time>2023-11-09T13:46:39.223Z</time>
      </trkpt>
      <trkpt lat="49.014364" lon="2.286990">
        <ele>82.651011</ele>
        <time>2023-11-09T13:46:50.862Z</time>
      </trkpt>
      <trkpt lat="49.014264" lon="2.286767">
        <ele>82.721227</ele>
        <time>2023-11-09T13:46:53.937Z</time>
      </trkpt>
      <trkpt lat="49.014279" lon="2.286662">
        <ele>82.749159</ele>
        <time>2023-11-09T13:46:54.971Z</time>
      </trkpt>
      <trkpt lat="49.014257" lon="2.286598">
        <ele>82.767940</ele>
        <time>2023-11-09T13:46:55.818Z</time>
      </trkpt>
      <trkpt lat="49.014421" lon="2.286227">
        <ele>82.884230</ele>
        <time>2023-11-09T13:47:00.900Z</time>
      </trkpt>
      <trkpt lat="49.014755" lon="2.285401">
        <ele>83.136450</ele>
        <time>2023-11-09T13:47:13.103Z</time>
      </trkpt>
      <trkpt lat="49.014878" lon="2.285156">
        <ele>83.229597</ele>
        <time>2023-11-09T13:47:17.077Z</time>
      </trkpt>
      <trkpt lat="49.015023" lon="2.285030">
        <ele>83.386061</ele>
        <time>2023-11-09T13:47:20.897Z</time>
      </trkpt>
      <trkpt lat="49.014142" lon="2.284460">
        <ele>84.283281</ele>
        <time>2023-11-09T13:47:46.886Z</time>
      </trkpt>
      <trkpt lat="49.013644" lon="2.284292">
        <ele>84.761446</ele>
        <time>2023-11-09T13:47:58.146Z</time>
      </trkpt>
      <trkpt lat="49.012979" lon="2.283891">
        <ele>84.099062</ele>
        <time>2023-11-09T13:48:10.451Z</time>
      </trkpt>
      <trkpt lat="49.012836" lon="2.283848">
        <ele>83.897497</ele>
        <time>2023-11-09T13:48:12.869Z</time>
      </trkpt>
      <trkpt lat="49.012550" lon="2.283874">
        <ele>83.501283</ele>
        <time>2023-11-09T13:48:17.589Z</time>
      </trkpt>
      <trkpt lat="49.012207" lon="2.283883">
        <ele>83.026875</ele>
        <time>2023-11-09T13:48:23.180Z</time>
      </trkpt>
      <trkpt lat="49.011761" lon="2.283780">
        <ele>82.401789</ele>
        <time>2023-11-09T13:48:30.351Z</time>
      </trkpt>
      <trkpt lat="49.011123" lon="2.283533">
        <ele>81.100560</ele>
        <time>2023-11-09T13:48:40.476Z</time>
      </trkpt>
      <trkpt lat="49.010823" lon="2.283392">
        <ele>80.479978</ele>
        <time>2023-11-09T13:48:43.815Z</time>
      </trkpt>
      <trkpt lat="49.010660" lon="2.283278">
        <ele>80.125472</ele>
        <time>2023-11-09T13:48:45.767Z</time>
      </trkpt>
      <trkpt lat="49.010267" lon="2.282986">
        <ele>79.261239</ele>
        <time>2023-11-09T13:48:50.596Z</time>
      </trkpt>
      <trkpt lat="49.010216" lon="2.282946">
        <ele>79.147863</ele>
        <time>2023-11-09T13:48:51.222Z</time>
      </trkpt>
      <trkpt lat="49.009520" lon="2.282439">
        <ele>77.971030</ele>
        <time>2023-11-09T13:49:00.391Z</time>
      </trkpt>
      <trkpt lat="49.008793" lon="2.282081">
        <ele>76.888978</ele>
        <time>2023-11-09T13:49:09.591Z</time>
      </trkpt>
      <trkpt lat="49.008715" lon="2.282046">
        <ele>76.773819</ele>
        <time>2023-11-09T13:49:10.520Z</time>
      </trkpt>
      <trkpt lat="49.008624" lon="2.282003">
        <ele>76.638884</ele>
        <time>2023-11-09T13:49:11.591Z</time>
      </trkpt>
      <trkpt lat="49.008001" lon="2.281700">
        <ele>75.313898</ele>
        <time>2023-11-09T13:49:18.890Z</time>
      </trkpt>
      <trkpt lat="49.007595" lon="2.281431">
        <ele>74.263320</ele>
        <time>2023-11-09T13:49:23.686Z</time>
      </trkpt>
      <trkpt lat="49.007501" lon="2.281214">
        <ele>73.858501</ele>
        <time>2023-11-09T13:49:25.526Z</time>
      </trkpt>
      <trkpt lat="49.007323" lon="2.281238">
        <ele>73.434425</ele>
        <time>2023-11-09T13:49:27.393Z</time>
      </trkpt>
      <trkpt lat="49.007059" lon="2.281289">
        <ele>72.802894</ele>
        <time>2023-11-09T13:49:30.183Z</time>
      </trkpt>
      <trkpt lat="49.006766" lon="2.281510">
        <ele>72.025926</ele>
        <time>2023-11-09T13:49:33.549Z</time>
      </trkpt>
      <trkpt lat="49.006440" lon="2.281667">
        <ele>71.086241</ele>
        <time>2023-11-09T13:49:37.008Z</time>
      </trkpt>
      <trkpt lat="49.006229" lon="2.281683">
        <ele>70.505574</ele>
        <time>2023-11-09T13:49:39.145Z</time>
      </trkpt>
      <trkpt lat="49.005563" lon="2.281588">
        <ele>68.667026</ele>
        <time>2023-11-09T13:49:45.924Z</time>
      </trkpt>
      <trkpt lat="49.005063" lon="2.281528">
        <ele>67.288486</ele>
        <time>2023-11-09T13:49:51.163Z</time>
      </trkpt>
      <trkpt lat="49.004476" lon="2.281650">
        <ele>66.546120</ele>
        <time>2023-11-09T13:49:58.132Z</time>
      </trkpt>
      <trkpt lat="49.004327" lon="2.281678">
        <ele>66.389026</ele>
        <time>2023-11-09T13:50:00.058Z</time>
      </trkpt>
      <trkpt lat="49.004203" lon="2.281683">
        <ele>66.259227</ele>
        <time>2023-11-09T13:50:01.771Z</time>
      </trkpt>
      <trkpt lat="49.003833" lon="2.281443">
        <ele>65.838465</ele>
        <time>2023-11-09T13:50:07.084Z</time>
      </trkpt>
      <trkpt lat="49.003650" lon="2.281251">
        <ele>65.606001</ele>
        <time>2023-11-09T13:50:09.859Z</time>
      </trkpt>
      <trkpt lat="49.003639" lon="2.281194">
        <ele>65.565215</ele>
        <time>2023-11-09T13:50:10.359Z</time>
      </trkpt>
      <trkpt lat="49.003589" lon="2.281106">
        <ele>65.485300</ele>
        <time>2023-11-09T13:50:11.386Z</time>
      </trkpt>
      <trkpt lat="49.003531" lon="2.281073">
        <ele>65.420519</ele>
        <time>2023-11-09T13:50:12.225Z</time>
      </trkpt>
      <trkpt lat="49.003470" lon="2.281082">
        <ele>65.356390</ele>
        <time>2023-11-09T13:50:12.957Z</time>
      </trkpt>
      <trkpt lat="49.003236" lon="2.280924">
        <ele>65.009014</ele>
        <time>2023-11-09T13:50:16.157Z</time>
      </trkpt>
      <trkpt lat="49.002900" lon="2.280605">
        <ele>64.320325</ele>
        <time>2023-11-09T13:50:21.037Z</time>
      </trkpt>
      <trkpt lat="49.001429" lon="2.279366">
        <ele>61.342219</ele>
        <time>2023-11-09T13:50:39.335Z</time>
      </trkpt>
      <trkpt lat="49.001133" lon="2.279119">
        <ele>60.708594</ele>
        <time>2023-11-09T13:50:42.852Z</time>
      </trkpt>
      <trkpt lat="49.001075" lon="2.279014">
        <ele>60.539508</ele>
        <time>2023-11-09T13:50:43.819Z</time>
      </trkpt>
      <trkpt lat="49.000913" lon="2.278781">
        <ele>60.121289</ele>
        <time>2023-11-09T13:50:46.233Z</time>
      </trkpt>
      <trkpt lat="49.000738" lon="2.278596">
        <ele>59.721404</ele>
        <time>2023-11-09T13:50:48.600Z</time>
      </trkpt>
      <trkpt lat="49.000468" lon="2.278313">
        <ele>59.106138</ele>
        <time>2023-11-09T13:50:52.354Z</time>
      </trkpt>
      <trkpt lat="49.000039" lon="2.278007">
        <ele>58.620935</ele>
        <time>2023-11-09T13:50:58.121Z</time>
      </trkpt>
      <trkpt lat="48.999823" lon="2.277850">
        <ele>58.545794</ele>
        <time>2023-11-09T13:51:01.256Z</time>
      </trkpt>
      <trkpt lat="48.999351" lon="2.277620">
        <ele>58.390195</ele>
        <time>2023-11-09T13:51:08.261Z</time>
      </trkpt>
      <trkpt lat="48.999045" lon="2.277514">
        <ele>58.291660</ele>
        <time>2023-11-09T13:51:13.000Z</time>
      </trkpt>
      <trkpt lat="48.998310" lon="2.277231">
        <ele>58.059952</ele>
        <time>2023-11-09T13:51:24.762Z</time>
      </trkpt>
      <trkpt lat="48.997974" lon="2.277152">
        <ele>57.961280</ele>
        <time>2023-11-09T13:51:29.709Z</time>
      </trkpt>
      <trkpt lat="48.997544" lon="2.277058">
        <ele>57.835201</ele>
        <time>2023-11-09T13:51:36.014Z</time>
      </trkpt>
      <trkpt lat="48.997322" lon="2.276970">
        <ele>57.768625</ele>
        <time>2023-11-09T13:51:39.170Z</time>
      </trkpt>
      <trkpt lat="48.996760" lon="2.276707">
        <ele>57.514727</ele>
        <time>2023-11-09T13:51:46.759Z</time>
      </trkpt>
      <trkpt lat="48.996713" lon="2.276683">
        <ele>57.431040</ele>
        <time>2023-11-09T13:51:47.361Z</time>
      </trkpt>
      <trkpt lat="48.996089" lon="2.276382">
        <ele>56.326005</ele>
        <time>2023-11-09T13:51:55.212Z</time>
      </trkpt>
      <trkpt lat="48.995635" lon="2.276110">
        <ele>55.502399</ele>
        <time>2023-11-09T13:52:00.735Z</time>
      </trkpt>
      <trkpt lat="48.995631" lon="2.276107">
        <ele>55.494872</ele>
        <time>2023-11-09T13:52:00.783Z</time>
      </trkpt>
      <trkpt lat="48.995276" lon="2.275832">
        <ele>54.822533</ele>
        <time>2023-11-09T13:52:05.013Z</time>
      </trkpt>
      <trkpt lat="48.995191" lon="2.275769">
        <ele>54.662954</ele>
        <time>2023-11-09T13:52:05.986Z</time>
      </trkpt>
      <trkpt lat="48.995117" lon="2.275605">
        <ele>54.426368</ele>
        <time>2023-11-09T13:52:07.318Z</time>
      </trkpt>
      <trkpt lat="48.995096" lon="2.275452">
        <ele>54.232727</ele>
        <time>2023-11-09T13:52:08.821Z</time>
      </trkpt>
      <trkpt lat="48.994990" lon="2.275343">
        <ele>53.991297</ele>
        <time>2023-11-09T13:52:10.131Z</time>
      </trkpt>
      <trkpt lat="48.994862" lon="2.275253">
        <ele>53.725144</ele>
        <time>2023-11-09T13:52:11.605Z</time>
      </trkpt>
      <trkpt lat="48.994766" lon="2.275253">
        <ele>53.543888</ele>
        <time>2023-11-09T13:52:12.600Z</time>
      </trkpt>
      <trkpt lat="48.994714" lon="2.275295">
        <ele>53.432773</ele>
        <time>2023-11-09T13:52:13.203Z</time>
      </trkpt>
      <trkpt lat="48.994507" lon="2.275259">
        <ele>53.039403</ele>
        <time>2023-11-09T13:52:15.438Z</time>
      </trkpt>
      <trkpt lat="48.993873" lon="2.274800">
        <ele>51.714166</ele>
        <time>2023-11-09T13:52:23.377Z</time>
      </trkpt>
      <trkpt lat="48.993768" lon="2.274693">
        <ele>51.475684</ele>
        <time>2023-11-09T13:52:24.909Z</time>
      </trkpt>
      <trkpt lat="48.993694" lon="2.274606">
        <ele>51.299225</ele>
        <time>2023-11-09T13:52:26.044Z</time>
      </trkpt>
      <trkpt lat="48.993675" lon="2.274534">
        <ele>51.203084</ele>
        <time>2023-11-09T13:52:26.979Z</time>
      </trkpt>
      <trkpt lat="48.993619" lon="2.274470">
        <ele>51.200876</ele>
        <time>2023-11-09T13:52:28.277Z</time>
      </trkpt>
      <trkpt lat="48.993556" lon="2.274463">
        <ele>51.220452</ele>
        <time>2023-11-09T13:52:29.429Z</time>
      </trkpt>
      <trkpt lat="48.993499" lon="2.274509">
        <ele>51.240441</ele>
        <time>2023-11-09T13:52:30.556Z</time>
      </trkpt>
      <trkpt lat="48.993465" lon="2.274615">
        <ele>51.264433</ele>
        <time>2023-11-09T13:52:31.975Z</time>
      </trkpt>
      <trkpt lat="48.993381" lon="2.274643">
        <ele>51.291081</ele>
        <time>2023-11-09T13:52:33.249Z</time>
      </trkpt>
      <trkpt lat="48.993152" lon="2.274690">
        <ele>51.362692</ele>
        <time>2023-11-09T13:52:36.507Z</time>
      </trkpt>
      <trkpt lat="48.993030" lon="2.274703">
        <ele>51.400594</ele>
        <time>2023-11-09T13:52:38.468Z</time>
      </trkpt>
      <trkpt lat="48.991900" lon="2.274752">
        <ele>51.760742</ele>
        <time>2023-11-09T13:52:59.160Z</time>
      </trkpt>
      <trkpt lat="48.991821" lon="2.274758">
        <ele>51.807184</ele>
        <time>2023-11-09T13:53:00.638Z</time>
      </trkpt>
      <trkpt lat="48.991777" lon="2.274758">
        <ele>51.833018</ele>
        <time>2023-11-09T13:53:01.439Z</time>
      </trkpt>
      <trkpt lat="48.991642" lon="2.274786">
        <ele>51.913014</ele>
        <time>2023-11-09T13:53:03.902Z</time>
      </trkpt>
      <trkpt lat="48.991636" lon="2.274770">
        <ele>51.920114</ele>
        <time>2023-11-09T13:53:04.117Z</time>
      </trkpt>
      <trkpt lat="48.991533" lon="2.274659">
        <ele>51.994182</ele>
        <time>2023-11-09T13:53:06.428Z</time>
      </trkpt>
      <trkpt lat="48.991411" lon="2.274698">
        <ele>52.067373</ele>
        <time>2023-11-09T13:53:08.598Z</time>
      </trkpt>
      <trkpt lat="48.991343" lon="2.274857">
        <ele>52.140493</ele>
        <time>2023-11-09T13:53:10.717Z</time>
      </trkpt>
      <trkpt lat="48.991342" lon="2.274921">
        <ele>52.165157</ele>
        <time>2023-11-09T13:53:11.449Z</time>
      </trkpt>
      <trkpt lat="48.991266" lon="2.274950">
        <ele>52.211158</ele>
        <time>2023-11-09T13:53:12.861Z</time>
      </trkpt>
      <trkpt lat="48.991106" lon="2.275011">
        <ele>52.307996</ele>
        <time>2023-11-09T13:53:15.623Z</time>
      </trkpt>
      <trkpt lat="48.990847" lon="2.275033">
        <ele>52.460303</ele>
        <time>2023-11-09T13:53:19.969Z</time>
      </trkpt>
      <trkpt lat="48.990245" lon="2.274846">
        <ele>52.854801</ele>
        <time>2023-11-09T13:53:29.717Z</time>
      </trkpt>
      <trkpt lat="48.989666" lon="2.274597">
        <ele>53.685326</ele>
        <time>2023-11-09T13:53:40.350Z</time>
      </trkpt>
      <trkpt lat="48.988905" lon="2.274260">
        <ele>54.779343</ele>
        <time>2023-11-09T13:53:56.985Z</time>
      </trkpt>
      <trkpt lat="48.988105" lon="2.273909">
        <ele>56.225860</ele>
        <time>2023-11-09T13:54:17.023Z</time>
      </trkpt>
      <trkpt lat="48.987972" lon="2.273854">
        <ele>56.503171</ele>
        <time>2023-11-09T13:54:20.479Z</time>
      </trkpt>
      <trkpt lat="48.987310" lon="2.273559">
        <ele>57.891081</ele>
        <time>2023-11-09T13:54:37.401Z</time>
      </trkpt>
      <trkpt lat="48.986695" lon="2.273291">
        <ele>58.888889</ele>
        <time>2023-11-09T13:54:50.894Z</time>
      </trkpt>
      <trkpt lat="48.986508" lon="2.273214">
        <ele>58.875613</ele>
        <time>2023-11-09T13:54:54.514Z</time>
      </trkpt>
      <trkpt lat="48.985993" lon="2.272993">
        <ele>58.838946</ele>
        <time>2023-11-09T13:55:03.342Z</time>
      </trkpt>
      <trkpt lat="48.985239" lon="2.272669">
        <ele>58.785257</ele>
        <time>2023-11-09T13:55:13.453Z</time>
      </trkpt>
      <trkpt lat="48.985006" lon="2.272570">
        <ele>58.567278</ele>
        <time>2023-11-09T13:55:16.257Z</time>
      </trkpt>
      <trkpt lat="48.984661" lon="2.272418">
        <ele>57.776820</ele>
        <time>2023-11-09T13:55:20.227Z</time>
      </trkpt>
      <trkpt lat="48.984236" lon="2.272287">
        <ele>56.822437</ele>
        <time>2023-11-09T13:55:24.889Z</time>
      </trkpt>
      <trkpt lat="48.984040" lon="2.272210">
        <ele>56.376929</ele>
        <time>2023-11-09T13:55:27.071Z</time>
      </trkpt>
      <trkpt lat="48.982878" lon="2.271762">
        <ele>53.364789</ele>
        <time>2023-11-09T13:55:39.585Z</time>
      </trkpt>
      <trkpt lat="48.982332" lon="2.271453">
        <ele>51.637925</ele>
        <time>2023-11-09T13:55:45.462Z</time>
      </trkpt>
      <trkpt lat="48.981705" lon="2.271022">
        <ele>49.598541</ele>
        <time>2023-11-09T13:55:52.434Z</time>
      </trkpt>
      <trkpt lat="48.981649" lon="2.270925">
        <ele>49.430631</ele>
        <time>2023-11-09T13:55:53.294Z</time>
      </trkpt>
      <trkpt lat="48.981301" lon="2.270690">
        <ele>48.992651</ele>
        <time>2023-11-09T13:55:57.329Z</time>
      </trkpt>
      <trkpt lat="48.981064" lon="2.270521">
        <ele>48.691568</ele>
        <time>2023-11-09T13:56:00.285Z</time>
      </trkpt>
      <trkpt lat="48.981020" lon="2.270503">
        <ele>48.639147</ele>
        <time>2023-11-09T13:56:00.807Z</time>
      </trkpt>
      <trkpt lat="48.980637" lon="2.270369">
        <ele>48.186990</ele>
        <time>2023-11-09T13:56:05.584Z</time>
      </trkpt>
      <trkpt lat="48.980552" lon="2.270348">
        <ele>48.087910</ele>
        <time>2023-11-09T13:56:06.734Z</time>
      </trkpt>
      <trkpt lat="48.980278" lon="2.270331">
        <ele>47.772378</ele>
        <time>2023-11-09T13:56:10.593Z</time>
      </trkpt>
      <trkpt lat="48.980202" lon="2.270333">
        <ele>47.684918</ele>
        <time>2023-11-09T13:56:11.772Z</time>
      </trkpt>
      <trkpt lat="48.980141" lon="2.270257">
        <ele>47.594252</ele>
        <time>2023-11-09T13:56:13.089Z</time>
      </trkpt>
      <trkpt lat="48.980084" lon="2.270165">
        <ele>47.498709</ele>
        <time>2023-11-09T13:56:14.439Z</time>
      </trkpt>
      <trkpt lat="48.980082" lon="2.270037">
        <ele>47.419500</ele>
        <time>2023-11-09T13:56:15.834Z</time>
      </trkpt>
      <trkpt lat="48.980042" lon="2.269898">
        <ele>47.471969</ele>
        <time>2023-11-09T13:56:17.442Z</time>
      </trkpt>
      <trkpt lat="48.979897" lon="2.269633">
        <ele>47.591243</ele>
        <time>2023-11-09T13:56:21.323Z</time>
      </trkpt>
      <trkpt lat="48.979736" lon="2.269427">
        <ele>47.701983</ele>
        <time>2023-11-09T13:56:24.962Z</time>
      </trkpt>
      <trkpt lat="48.979177" lon="2.268974">
        <ele>48.035485</ele>
        <time>2023-11-09T13:56:36.255Z</time>
      </trkpt>
      <trkpt lat="48.978937" lon="2.268791">
        <ele>48.176848</ele>
        <time>2023-11-09T13:56:41.225Z</time>
      </trkpt>
      <trkpt lat="48.978323" lon="2.268315">
        <ele>48.399941</ele>
        <time>2023-11-09T13:56:52.398Z</time>
      </trkpt>
      <trkpt lat="48.978164" lon="2.268187">
        <ele>48.420407</ele>
        <time>2023-11-09T13:56:55.018Z</time>
      </trkpt>
      <trkpt lat="48.977002" lon="2.267238">
        <ele>48.577546</ele>
        <time>2023-11-09T13:57:14.346Z</time>
      </trkpt>
      <trkpt lat="48.976974" lon="2.267229">
        <ele>48.586130</ele>
        <time>2023-11-09T13:57:14.808Z</time>
      </trkpt>
      <trkpt lat="48.976878" lon="2.267224">
        <ele>48.614944</ele>
        <time>2023-11-09T13:57:16.385Z</time>
      </trkpt>
      <trkpt lat="48.976799" lon="2.267142">
        <ele>48.643619</ele>
        <time>2023-11-09T13:57:17.847Z</time>
      </trkpt>
      <trkpt lat="48.976724" lon="2.267047">
        <ele>48.672876</ele>
        <time>2023-11-09T13:57:19.349Z</time>
      </trkpt>
      <trkpt lat="48.976646" lon="2.266986">
        <ele>48.699176</ele>
        <time>2023-11-09T13:57:20.812Z</time>
      </trkpt>
      <trkpt lat="48.976276" lon="2.266703">
        <ele>48.823366</ele>
        <time>2023-11-09T13:57:27.579Z</time>
      </trkpt>
      <trkpt lat="48.975212" lon="2.265929">
        <ele>49.189858</ele>
        <time>2023-11-09T13:57:46.876Z</time>
      </trkpt>
      <trkpt lat="48.974384" lon="2.265477">
        <ele>49.501025</ele>
        <time>2023-11-09T13:58:00.773Z</time>
      </trkpt>
      <trkpt lat="48.974109" lon="2.265318">
        <ele>49.605085</ele>
        <time>2023-11-09T13:58:05.467Z</time>
      </trkpt>
      <trkpt lat="48.973972" lon="2.265236">
        <ele>49.657160</ele>
        <time>2023-11-09T13:58:07.796Z</time>
      </trkpt>
      <trkpt lat="48.973532" lon="2.264988">
        <ele>49.973475</ele>
        <time>2023-11-09T13:58:15.588Z</time>
      </trkpt>
      <trkpt lat="48.973052" lon="2.264714">
        <ele>50.490736</ele>
        <time>2023-11-09T13:58:24.963Z</time>
      </trkpt>
      <trkpt lat="48.973097" lon="2.264526">
        <ele>50.623287</ele>
        <time>2023-11-09T13:58:27.434Z</time>
      </trkpt>
      <trkpt lat="48.973209" lon="2.264042">
        <ele>50.963224</ele>
        <time>2023-11-09T13:58:34.048Z</time>
      </trkpt>
      <trkpt lat="48.973249" lon="2.263746">
        <ele>51.163404</ele>
        <time>2023-11-09T13:58:38.062Z</time>
      </trkpt>
      <trkpt lat="48.973230" lon="2.263465">
        <ele>51.350522</ele>
        <time>2023-11-09T13:58:41.833Z</time>
      </trkpt>
      <trkpt lat="48.973171" lon="2.263241">
        <ele>51.510397</ele>
        <time>2023-11-09T13:58:45.086Z</time>
      </trkpt>
      <trkpt lat="48.973051" lon="2.262956">
        <ele>51.745227</ele>
        <time>2023-11-09T13:58:49.671Z</time>
      </trkpt>
      <trkpt lat="48.972864" lon="2.262755">
        <ele>51.989884</ele>
        <time>2023-11-09T13:58:54.363Z</time>
      </trkpt>
      <trkpt lat="48.972641" lon="2.262677">
        <ele>52.234478</ele>
        <time>2023-11-09T13:58:59.017Z</time>
      </trkpt>
      <trkpt lat="48.972329" lon="2.262763">
        <ele>52.573429</ele>
        <time>2023-11-09T13:59:05.212Z</time>
      </trkpt>
      <trkpt lat="48.971751" lon="2.262901">
        <ele>53.198865</ele>
        <time>2023-11-09T13:59:15.974Z</time>
      </trkpt>
      <trkpt lat="48.971615" lon="2.262927">
        <ele>53.345393</ele>
        <time>2023-11-09T13:59:18.514Z</time>
      </trkpt>
      <trkpt lat="48.971281" lon="2.262996">
        <ele>53.572289</ele>
        <time>2023-11-09T13:59:24.394Z</time>
      </trkpt>
      <trkpt lat="48.971219" lon="2.263011">
        <ele>53.599765</ele>
        <time>2023-11-09T13:59:25.465Z</time>
      </trkpt>
      <trkpt lat="48.970951" lon="2.263114">
        <ele>53.720738</ele>
        <time>2023-11-09T13:59:30.059Z</time>
      </trkpt>
      <trkpt lat="48.970908" lon="2.263138">
        <ele>53.740781</ele>
        <time>2023-11-09T13:59:30.813Z</time>
      </trkpt>
      <trkpt lat="48.970437" lon="2.263384">
        <ele>53.958706</ele>
        <time>2023-11-09T13:59:38.645Z</time>
      </trkpt>
      <trkpt lat="48.970343" lon="2.263402">
        <ele>54.000171</ele>
        <time>2023-11-09T13:59:40.136Z</time>
      </trkpt>
      <trkpt lat="48.969876" lon="2.263286">
        <ele>54.207265</ele>
        <time>2023-11-09T13:59:47.612Z</time>
      </trkpt>
      <trkpt lat="48.969799" lon="2.263260">
        <ele>54.241784</ele>
        <time>2023-11-09T13:59:48.845Z</time>
      </trkpt>
      <trkpt lat="48.969758" lon="2.263242">
        <ele>54.260459</ele>
        <time>2023-11-09T13:59:49.496Z</time>
      </trkpt>
      <trkpt lat="48.969689" lon="2.263211">
        <ele>54.333238</ele>
        <time>2023-11-09T13:59:50.625Z</time>
      </trkpt>
      <trkpt lat="48.969131" lon="2.262988">
        <ele>55.003962</ele>
        <time>2023-11-09T14:00:00.747Z</time>
      </trkpt>
      <trkpt lat="48.968555" lon="2.262765">
        <ele>55.694950</ele>
        <time>2023-11-09T14:00:12.967Z</time>
      </trkpt>
      <trkpt lat="48.967832" lon="2.262495">
        <ele>56.632871</ele>
        <time>2023-11-09T14:00:28.846Z</time>
      </trkpt>
      <trkpt lat="48.967605" lon="2.262405">
        <ele>57.003260</ele>
        <time>2023-11-09T14:00:33.942Z</time>
      </trkpt>
      <trkpt lat="48.967369" lon="2.262311">
        <ele>57.388447</ele>
        <time>2023-11-09T14:00:39.344Z</time>
      </trkpt>
      <trkpt lat="48.967243" lon="2.262261">
        <ele>57.594049</ele>
        <time>2023-11-09T14:00:42.186Z</time>
      </trkpt>
      <trkpt lat="48.967113" lon="2.262206">
        <ele>57.807098</ele>
        <time>2023-11-09T14:00:45.223Z</time>
      </trkpt>
      <trkpt lat="48.966769" lon="2.262068">
        <ele>58.368816</ele>
        <time>2023-11-09T14:00:53.061Z</time>
      </trkpt>
      <trkpt lat="48.966651" lon="2.262024">
        <ele>58.560647</ele>
        <time>2023-11-09T14:00:55.573Z</time>
      </trkpt>
      <trkpt lat="48.966353" lon="2.261901">
        <ele>59.048176</ele>
        <time>2023-11-09T14:01:01.942Z</time>
      </trkpt>
      <trkpt lat="48.966274" lon="2.261866">
        <ele>59.178091</ele>
        <time>2023-11-09T14:01:03.534Z</time>
      </trkpt>
      <trkpt lat="48.966201" lon="2.261837">
        <ele>59.228771</ele>
        <time>2023-11-09T14:01:04.988Z</time>
      </trkpt>
      <trkpt lat="48.966105" lon="2.261756">
        <ele>59.282026</ele>
        <time>2023-11-09T14:01:07.158Z</time>
      </trkpt>
      <trkpt lat="48.965624" lon="2.261580">
        <ele>59.522075</ele>
        <time>2023-11-09T14:01:15.985Z</time>
      </trkpt>
      <trkpt lat="48.965527" lon="2.261544">
        <ele>59.570522</ele>
        <time>2023-11-09T14:01:17.628Z</time>
      </trkpt>
      <trkpt lat="48.965472" lon="2.261453">
        <ele>59.609927</ele>
        <time>2023-11-09T14:01:19.052Z</time>
      </trkpt>
      <trkpt lat="48.965395" lon="2.261495">
        <ele>59.649616</ele>
        <time>2023-11-09T14:01:20.349Z</time>
      </trkpt>
      <trkpt lat="48.965319" lon="2.261478">
        <ele>59.686891</ele>
        <time>2023-11-09T14:01:21.595Z</time>
      </trkpt>
      <trkpt lat="48.965065" lon="2.261326">
        <ele>59.819318</ele>
        <time>2023-11-09T14:01:25.938Z</time>
      </trkpt>
      <trkpt lat="48.964470" lon="2.261005">
        <ele>60.023996</ele>
        <time>2023-11-09T14:01:35.403Z</time>
      </trkpt>
      <trkpt lat="48.964361" lon="2.260954">
        <ele>59.975980</ele>
        <time>2023-11-09T14:01:37.040Z</time>
      </trkpt>
      <trkpt lat="48.964265" lon="2.260903">
        <ele>59.933167</ele>
        <time>2023-11-09T14:01:38.491Z</time>
      </trkpt>
      <trkpt lat="48.963707" lon="2.260584">
        <ele>59.682189</ele>
        <time>2023-11-09T14:01:46.766Z</time>
      </trkpt>
      <trkpt lat="48.963654" lon="2.260556">
        <ele>59.658567</ele>
        <time>2023-11-09T14:01:47.497Z</time>
      </trkpt>
      <trkpt lat="48.963281" lon="2.260349">
        <ele>59.491397</ele>
        <time>2023-11-09T14:01:52.652Z</time>
      </trkpt>
      <trkpt lat="48.963113" lon="2.260244">
        <ele>59.414928</ele>
        <time>2023-11-09T14:01:54.978Z</time>
      </trkpt>
      <trkpt lat="48.962792" lon="2.260034">
        <ele>59.194391</ele>
        <time>2023-11-09T14:01:59.378Z</time>
      </trkpt>
      <trkpt lat="48.962535" lon="2.259864">
        <ele>58.888052</ele>
        <time>2023-11-09T14:02:02.791Z</time>
      </trkpt>
      <trkpt lat="48.961563" lon="2.259251">
        <ele>57.737844</ele>
        <time>2023-11-09T14:02:15.491Z</time>
      </trkpt>
      <trkpt lat="48.960927" lon="2.258851">
        <ele>56.898874</ele>
        <time>2023-11-09T14:02:23.659Z</time>
      </trkpt>
      <trkpt lat="48.960403" lon="2.258482">
        <ele>56.116498</ele>
        <time>2023-11-09T14:02:30.325Z</time>
      </trkpt>
      <trkpt lat="48.960358" lon="2.258419">
        <ele>56.033662</ele>
        <time>2023-11-09T14:02:31.037Z</time>
      </trkpt>
      <trkpt lat="48.960345" lon="2.258354">
        <ele>55.973200</ele>
        <time>2023-11-09T14:02:31.572Z</time>
      </trkpt>
      <trkpt lat="48.960292" lon="2.258247">
        <ele>55.853934</ele>
        <time>2023-11-09T14:02:32.610Z</time>
      </trkpt>
      <trkpt lat="48.960242" lon="2.258205">
        <ele>55.776550</ele>
        <time>2023-11-09T14:02:33.259Z</time>
      </trkpt>
      <trkpt lat="48.960131" lon="2.258198">
        <ele>55.625990</ele>
        <time>2023-11-09T14:02:34.516Z</time>
      </trkpt>
      <trkpt lat="48.960080" lon="2.258235">
        <ele>55.549432</ele>
        <time>2023-11-09T14:02:35.167Z</time>
      </trkpt>
      <trkpt lat="48.959661" lon="2.258043">
        <ele>54.956444</ele>
        <time>2023-11-09T14:02:40.291Z</time>
      </trkpt>
      <trkpt lat="48.959529" lon="2.257954">
        <ele>54.753377</ele>
        <time>2023-11-09T14:02:42.002Z</time>
      </trkpt>
      <trkpt lat="48.958607" lon="2.257355">
        <ele>53.327136</ele>
        <time>2023-11-09T14:02:53.791Z</time>
      </trkpt>
      <trkpt lat="48.956786" lon="2.256230">
        <ele>50.161792</ele>
        <time>2023-11-09T14:03:16.330Z</time>
      </trkpt>
      <trkpt lat="48.955655" lon="2.255529">
        <ele>47.862332</ele>
        <time>2023-11-09T14:03:29.599Z</time>
      </trkpt>
      <trkpt lat="48.954904" lon="2.255065">
        <ele>46.233077</ele>
        <time>2023-11-09T14:03:38.578Z</time>
      </trkpt>
      <trkpt lat="48.954600" lon="2.254875">
        <ele>45.575912</ele>
        <time>2023-11-09T14:03:42.143Z</time>
      </trkpt>
      <trkpt lat="48.954082" lon="2.254568">
        <ele>44.504360</ele>
        <time>2023-11-09T14:03:48.205Z</time>
      </trkpt>
      <trkpt lat="48.953768" lon="2.254371">
        <ele>43.849675</ele>
        <time>2023-11-09T14:03:51.925Z</time>
      </trkpt>
      <trkpt lat="48.953569" lon="2.254322">
        <ele>43.461063</ele>
        <time>2023-11-09T14:03:54.135Z</time>
      </trkpt>
      <trkpt lat="48.953188" lon="2.254178">
        <ele>42.704292</ele>
        <time>2023-11-09T14:03:58.567Z</time>
      </trkpt>
      <trkpt lat="48.952649" lon="2.253965">
        <ele>41.715795</ele>
        <time>2023-11-09T14:04:04.836Z</time>
      </trkpt>
      <trkpt lat="48.952429" lon="2.253906">
        <ele>41.350761</ele>
        <time>2023-11-09T14:04:07.300Z</time>
      </trkpt>
      <trkpt lat="48.952084" lon="2.253837">
        <ele>40.782157</ele>
        <time>2023-11-09T14:04:11.114Z</time>
      </trkpt>
      <trkpt lat="48.951724" lon="2.253798">
        <ele>40.192396</ele>
        <time>2023-11-09T14:04:15.157Z</time>
      </trkpt>
      <trkpt lat="48.950874" lon="2.253710">
        <ele>38.916221</ele>
        <time>2023-11-09T14:04:25.232Z</time>
      </trkpt>
      <trkpt lat="48.949551" lon="2.253559">
        <ele>37.307973</ele>
        <time>2023-11-09T14:04:41.280Z</time>
      </trkpt>
      <trkpt lat="48.949201" lon="2.253483">
        <ele>36.786891</ele>
        <time>2023-11-09T14:04:45.397Z</time>
      </trkpt>
      <trkpt lat="48.948931" lon="2.253297">
        <ele>36.252571</ele>
        <time>2023-11-09T14:04:48.782Z</time>
      </trkpt>
      <trkpt lat="48.948859" lon="2.253467">
        <ele>36.013043</ele>
        <time>2023-11-09T14:04:50.319Z</time>
      </trkpt>
      <trkpt lat="48.946744" lon="2.254114">
        <ele>31.894182</ele>
        <time>2023-11-09T14:05:13.997Z</time>
      </trkpt>
      <trkpt lat="48.946338" lon="2.254234">
        <ele>31.048091</ele>
        <time>2023-11-09T14:05:18.413Z</time>
      </trkpt>
      <trkpt lat="48.944647" lon="2.254795">
        <ele>28.009974</ele>
        <time>2023-11-09T14:05:37.485Z</time>
      </trkpt>
      <trkpt lat="48.944207" lon="2.254978">
        <ele>27.254512</ele>
        <time>2023-11-09T14:05:42.897Z</time>
      </trkpt>
      <trkpt lat="48.943898" lon="2.255056">
        <ele>27.120559</ele>
        <time>2023-11-09T14:05:46.862Z</time>
      </trkpt>
      <trkpt lat="48.943689" lon="2.255222">
        <ele>27.078075</ele>
        <time>2023-11-09T14:05:50.093Z</time>
      </trkpt>
      <trkpt lat="48.943658" lon="2.255248">
        <ele>27.071696</ele>
        <time>2023-11-09T14:05:50.569Z</time>
      </trkpt>
      <trkpt lat="48.943560" lon="2.255310">
        <ele>27.052570</ele>
        <time>2023-11-09T14:05:51.989Z</time>
      </trkpt>
      <trkpt lat="48.943520" lon="2.255226">
        <ele>27.040289</ele>
        <time>2023-11-09T14:05:53.083Z</time>
      </trkpt>
      <trkpt lat="48.943398" lon="2.255135">
        <ele>27.015805</ele>
        <time>2023-11-09T14:05:55.177Z</time>
      </trkpt>
      <trkpt lat="48.943318" lon="2.255143">
        <ele>27.001356</ele>
        <time>2023-11-09T14:05:56.335Z</time>
      </trkpt>
      <trkpt lat="48.943245" lon="2.255195">
        <ele>26.986830</ele>
        <time>2023-11-09T14:05:57.558Z</time>
      </trkpt>
      <trkpt lat="48.943181" lon="2.255078">
        <ele>26.968807</ele>
        <time>2023-11-09T14:05:59.302Z</time>
      </trkpt>
      <trkpt lat="48.942643" lon="2.254053">
        <ele>26.826876</ele>
        <time>2023-11-09T14:06:12.914Z</time>
      </trkpt>
      <trkpt lat="48.942602" lon="2.253970">
        <ele>26.820087</ele>
        <time>2023-11-09T14:06:13.825Z</time>
      </trkpt>
      <trkpt lat="48.942355" lon="2.253480">
        <ele>26.779706</ele>
        <time>2023-11-09T14:06:19.331Z</time>
      </trkpt>
      <trkpt lat="48.942327" lon="2.253412">
        <ele>26.774460</ele>
        <time>2023-11-09T14:06:20.016Z</time>
      </trkpt>
      <trkpt lat="48.942234" lon="2.253196">
        <ele>26.757575</ele>
        <time>2023-11-09T14:06:22.441Z</time>
      </trkpt>
      <trkpt lat="48.942190" lon="2.253102">
        <ele>26.750029</ele>
        <time>2023-11-09T14:06:23.475Z</time>
      </trkpt>
      <trkpt lat="48.942144" lon="2.253000">
        <ele>26.741940</ele>
        <time>2023-11-09T14:06:24.582Z</time>
      </trkpt>
      <trkpt lat="48.942068" lon="2.253078">
        <ele>26.732818</ele>
        <time>2023-11-09T14:06:25.762Z</time>
      </trkpt>
      <trkpt lat="48.941978" lon="2.253180">
        <ele>26.721650</ele>
        <time>2023-11-09T14:06:27.551Z</time>
      </trkpt>
      <trkpt lat="48.941701" lon="2.253489">
        <ele>26.687471</ele>
        <time>2023-11-09T14:06:32.486Z</time>
      </trkpt>
      <trkpt lat="48.941199" lon="2.254034">
        <ele>26.925673</ele>
        <time>2023-11-09T14:06:41.552Z</time>
      </trkpt>
      <trkpt lat="48.940100" lon="2.255192">
        <ele>27.834258</ele>
        <time>2023-11-09T14:07:12.564Z</time>
      </trkpt>
      <trkpt lat="48.939284" lon="2.256054">
        <ele>29.025501</ele>
        <time>2023-11-09T14:07:39.149Z</time>
      </trkpt>
      <trkpt lat="48.939233" lon="2.256106">
        <ele>29.101829</ele>
        <time>2023-11-09T14:07:40.669Z</time>
      </trkpt>
      <trkpt lat="48.939188" lon="2.256155">
        <ele>29.170627</ele>
        <time>2023-11-09T14:07:41.751Z</time>
      </trkpt>
      <trkpt lat="48.939015" lon="2.256340">
        <ele>29.433521</ele>
        <time>2023-11-09T14:07:45.769Z</time>
      </trkpt>
      <trkpt lat="48.938464" lon="2.256976">
        <ele>30.184697</ele>
        <time>2023-11-09T14:07:59.084Z</time>
      </trkpt>
      <trkpt lat="48.938143" lon="2.257396">
        <ele>30.373913</ele>
        <time>2023-11-09T14:08:06.836Z</time>
      </trkpt>
      <trkpt lat="48.937742" lon="2.257916">
        <ele>30.609394</ele>
        <time>2023-11-09T14:08:15.613Z</time>
      </trkpt>
      <trkpt lat="48.937589" lon="2.257981">
        <ele>30.680404</ele>
        <time>2023-11-09T14:08:18.203Z</time>
      </trkpt>
      <trkpt lat="48.937483" lon="2.258009">
        <ele>30.728498</ele>
        <time>2023-11-09T14:08:19.753Z</time>
      </trkpt>
      <trkpt lat="48.937285" lon="2.257974">
        <ele>30.817606</ele>
        <time>2023-11-09T14:08:22.877Z</time>
      </trkpt>
      <trkpt lat="48.936631" lon="2.257499">
        <ele>30.799534</ele>
        <time>2023-11-09T14:08:33.317Z</time>
      </trkpt>
      <trkpt lat="48.936194" lon="2.257178">
        <ele>30.669421</ele>
        <time>2023-11-09T14:08:40.059Z</time>
      </trkpt>
      <trkpt lat="48.936063" lon="2.257080">
        <ele>30.630281</ele>
        <time>2023-11-09T14:08:42.087Z</time>
      </trkpt>
      <trkpt lat="48.935415" lon="2.256599">
        <ele>30.434624</ele>
        <time>2023-11-09T14:08:51.584Z</time>
      </trkpt>
      <trkpt lat="48.935110" lon="2.256406">
        <ele>30.321686</ele>
        <time>2023-11-09T14:08:56.105Z</time>
      </trkpt>
      <trkpt lat="48.934941" lon="2.256316">
        <ele>30.260468</ele>
        <time>2023-11-09T14:08:58.462Z</time>
      </trkpt>
      <trkpt lat="48.934387" lon="2.255947">
        <ele>30.053704</ele>
        <time>2023-11-09T14:09:06.576Z</time>
      </trkpt>
      <trkpt lat="48.934290" lon="2.255882">
        <ele>30.017466</ele>
        <time>2023-11-09T14:09:08.004Z</time>
      </trkpt>
      <trkpt lat="48.933891" lon="2.255615">
        <ele>29.868439</ele>
        <time>2023-11-09T14:09:14.211Z</time>
      </trkpt>
      <trkpt lat="48.933798" lon="2.255571">
        <ele>29.835140</ele>
        <time>2023-11-09T14:09:15.721Z</time>
      </trkpt>
      <trkpt lat="48.933244" lon="2.255440">
        <ele>29.576464</ele>
        <time>2023-11-09T14:09:24.133Z</time>
      </trkpt>
      <trkpt lat="48.932528" lon="2.255375">
        <ele>29.243374</ele>
        <time>2023-11-09T14:09:33.858Z</time>
      </trkpt>
      <trkpt lat="48.932393" lon="2.255343">
        <ele>29.179927</ele>
        <time>2023-11-09T14:09:35.619Z</time>
      </trkpt>
      <trkpt lat="48.932289" lon="2.255317">
        <ele>29.130984</ele>
        <time>2023-11-09T14:09:36.879Z</time>
      </trkpt>
      <trkpt lat="48.932213" lon="2.255309">
        <ele>29.095607</ele>
        <time>2023-11-09T14:09:37.789Z</time>
      </trkpt>
      <trkpt lat="48.931674" lon="2.255251">
        <ele>28.776776</ele>
        <time>2023-11-09T14:09:44.269Z</time>
      </trkpt>
      <trkpt lat="48.930719" lon="2.255155">
        <ele>28.131816</ele>
        <time>2023-11-09T14:09:56.200Z</time>
      </trkpt>
      <trkpt lat="48.930277" lon="2.255080">
        <ele>27.832115</ele>
        <time>2023-11-09T14:10:02.179Z</time>
      </trkpt>
      <trkpt lat="48.929842" lon="2.254943">
        <ele>28.054551</ele>
        <time>2023-11-09T14:10:08.790Z</time>
      </trkpt>
      <trkpt lat="48.928247" lon="2.254052">
        <ele>29.376893</ele>
        <time>2023-11-09T14:10:40.938Z</time>
      </trkpt>
      <trkpt lat="48.927635" lon="2.253725">
        <ele>30.044016</ele>
        <time>2023-11-09T14:10:53.092Z</time>
      </trkpt>
      <trkpt lat="48.927339" lon="2.253574">
        <ele>30.365108</ele>
        <time>2023-11-09T14:10:58.733Z</time>
      </trkpt>
      <trkpt lat="48.927070" lon="2.253453">
        <ele>30.653614</ele>
        <time>2023-11-09T14:11:03.898Z</time>
      </trkpt>
      <trkpt lat="48.926127" lon="2.253002">
        <ele>32.651290</ele>
        <time>2023-11-09T14:11:23.831Z</time>
      </trkpt>
      <trkpt lat="48.926086" lon="2.252986">
        <ele>32.753888</ele>
        <time>2023-11-09T14:11:24.762Z</time>
      </trkpt>
      <trkpt lat="48.924761" lon="2.252724">
        <ele>36.277550</ele>
        <time>2023-11-09T14:12:01.507Z</time>
      </trkpt>
      <trkpt lat="48.924276" lon="2.252662">
        <ele>37.947586</ele>
        <time>2023-11-09T14:12:16.373Z</time>
      </trkpt>
      <trkpt lat="48.924179" lon="2.252593">
        <ele>38.314982</ele>
        <time>2023-11-09T14:12:19.510Z</time>
      </trkpt>
      <trkpt lat="48.924085" lon="2.252571">
        <ele>38.641315</ele>
        <time>2023-11-09T14:12:22.356Z</time>
      </trkpt>
      <trkpt lat="48.924022" lon="2.252600">
        <ele>38.867158</ele>
        <time>2023-11-09T14:12:24.343Z</time>
      </trkpt>
      <trkpt lat="48.923928" lon="2.252516">
        <ele>39.241189</ele>
        <time>2023-11-09T14:12:27.566Z</time>
      </trkpt>
      <trkpt lat="48.923359" lon="2.252338">
        <ele>41.234412</ele>
        <time>2023-11-09T14:12:44.148Z</time>
      </trkpt>
      <trkpt lat="48.923348" lon="2.252335">
        <ele>41.272758</ele>
        <time>2023-11-09T14:12:44.475Z</time>
      </trkpt>
      <trkpt lat="48.923181" lon="2.252404">
        <ele>41.642297</ele>
        <time>2023-11-09T14:12:49.184Z</time>
      </trkpt>
      <trkpt lat="48.923061" lon="2.252468">
        <ele>41.826311</ele>
        <time>2023-11-09T14:12:52.505Z</time>
      </trkpt>
      <trkpt lat="48.922875" lon="2.252546">
        <ele>42.105514</ele>
        <time>2023-11-09T14:12:57.366Z</time>
      </trkpt>
      <trkpt lat="48.922773" lon="2.252491">
        <ele>42.262115</ele>
        <time>2023-11-09T14:12:59.935Z</time>
      </trkpt>
      <trkpt lat="48.922762" lon="2.252495">
        <ele>42.278482</ele>
        <time>2023-11-09T14:13:00.203Z</time>
      </trkpt>
      <trkpt lat="48.922336" lon="2.252614">
        <ele>42.905271</ele>
        <time>2023-11-09T14:13:09.426Z</time>
      </trkpt>
      <trkpt lat="48.922097" lon="2.252626">
        <ele>43.251331</ele>
        <time>2023-11-09T14:13:13.773Z</time>
      </trkpt>
      <trkpt lat="48.922054" lon="2.252628">
        <ele>43.313588</ele>
        <time>2023-11-09T14:13:14.540Z</time>
      </trkpt>
      <trkpt lat="48.921963" lon="2.252630">
        <ele>43.445293</ele>
        <time>2023-11-09T14:13:16.145Z</time>
      </trkpt>
      <trkpt lat="48.921233" lon="2.252648">
        <ele>43.747492</ele>
        <time>2023-11-09T14:13:27.421Z</time>
      </trkpt>
      <trkpt lat="48.920817" lon="2.252641">
        <ele>43.268657</ele>
        <time>2023-11-09T14:13:32.867Z</time>
      </trkpt>
      <trkpt lat="48.920671" lon="2.252665">
        <ele>43.099637</ele>
        <time>2023-11-09T14:13:34.631Z</time>
      </trkpt>
      <trkpt lat="48.920476" lon="2.252647">
        <ele>42.874785</ele>
        <time>2023-11-09T14:13:36.842Z</time>
      </trkpt>
      <trkpt lat="48.920180" lon="2.252667">
        <ele>42.533761</ele>
        <time>2023-11-09T14:13:40.086Z</time>
      </trkpt>
      <trkpt lat="48.919936" lon="2.252658">
        <ele>42.252840</ele>
        <time>2023-11-09T14:13:42.752Z</time>
      </trkpt>
      <trkpt lat="48.919479" lon="2.252658">
        <ele>41.708155</ele>
        <time>2023-11-09T14:13:47.748Z</time>
      </trkpt>
      <trkpt lat="48.919421" lon="2.252660">
        <ele>41.636997</ele>
        <time>2023-11-09T14:13:48.369Z</time>
      </trkpt>
      <trkpt lat="48.919044" lon="2.252660">
        <ele>41.174588</ele>
        <time>2023-11-09T14:13:52.642Z</time>
      </trkpt>
      <trkpt lat="48.918987" lon="2.252659">
        <ele>41.104670</ele>
        <time>2023-11-09T14:13:53.314Z</time>
      </trkpt>
      <trkpt lat="48.918699" lon="2.252670">
        <ele>40.751312</ele>
        <time>2023-11-09T14:13:56.737Z</time>
      </trkpt>
      <trkpt lat="48.918321" lon="2.252688">
        <ele>40.287449</ele>
        <time>2023-11-09T14:14:01.376Z</time>
      </trkpt>
      <trkpt lat="48.918114" lon="2.252688">
        <ele>40.033554</ele>
        <time>2023-11-09T14:14:04.002Z</time>
      </trkpt>
      <trkpt lat="48.917473" lon="2.252705">
        <ele>39.935008</ele>
        <time>2023-11-09T14:14:12.632Z</time>
      </trkpt>
      <trkpt lat="48.917355" lon="2.252710">
        <ele>39.968640</ele>
        <time>2023-11-09T14:14:14.484Z</time>
      </trkpt>
      <trkpt lat="48.916821" lon="2.252732">
        <ele>40.120839</ele>
        <time>2023-11-09T14:14:23.929Z</time>
      </trkpt>
      <trkpt lat="48.916739" lon="2.252737">
        <ele>40.144221</ele>
        <time>2023-11-09T14:14:25.380Z</time>
      </trkpt>
      <trkpt lat="48.916596" lon="2.252743">
        <ele>40.184979</ele>
        <time>2023-11-09T14:14:27.990Z</time>
      </trkpt>
      <trkpt lat="48.916279" lon="2.252754">
        <ele>40.275319</ele>
        <time>2023-11-09T14:14:33.668Z</time>
      </trkpt>
      <trkpt lat="48.915963" lon="2.252777">
        <ele>40.369107</ele>
        <time>2023-11-09T14:14:39.091Z</time>
      </trkpt>
      <trkpt lat="48.915490" lon="2.252782">
        <ele>40.514207</ele>
        <time>2023-11-09T14:14:46.455Z</time>
      </trkpt>
      <trkpt lat="48.915095" lon="2.252853">
        <ele>40.636219</ele>
        <time>2023-11-09T14:14:52.281Z</time>
      </trkpt>
      <trkpt lat="48.914964" lon="2.252857">
        <ele>40.676412</ele>
        <time>2023-11-09T14:14:54.308Z</time>
      </trkpt>
      <trkpt lat="48.914905" lon="2.252861">
        <ele>40.694529</ele>
        <time>2023-11-09T14:14:55.262Z</time>
      </trkpt>
      <trkpt lat="48.914512" lon="2.252899">
        <ele>40.815327</ele>
        <time>2023-11-09T14:15:01.576Z</time>
      </trkpt>
      <trkpt lat="48.914183" lon="2.252951">
        <ele>41.018831</ele>
        <time>2023-11-09T14:15:07.014Z</time>
      </trkpt>
      <trkpt lat="48.914026" lon="2.252996">
        <ele>41.173711</ele>
        <time>2023-11-09T14:15:09.668Z</time>
      </trkpt>
      <trkpt lat="48.913887" lon="2.253035">
        <ele>41.310735</ele>
        <time>2023-11-09T14:15:11.942Z</time>
      </trkpt>
      <trkpt lat="48.913788" lon="2.253023">
        <ele>41.407014</ele>
        <time>2023-11-09T14:15:13.695Z</time>
      </trkpt>
      <trkpt lat="48.913685" lon="2.253059">
        <ele>41.509468</ele>
        <time>2023-11-09T14:15:15.533Z</time>
      </trkpt>
      <trkpt lat="48.913631" lon="2.253078">
        <ele>41.563199</ele>
        <time>2023-11-09T14:15:16.474Z</time>
      </trkpt>
      <trkpt lat="48.913369" lon="2.253234">
        <ele>41.835947</ele>
        <time>2023-11-09T14:15:21.684Z</time>
      </trkpt>
      <trkpt lat="48.913317" lon="2.253325">
        <ele>41.912777</ele>
        <time>2023-11-09T14:15:23.146Z</time>
      </trkpt>
      <trkpt lat="48.912704" lon="2.253710">
        <ele>42.555680</ele>
        <time>2023-11-09T14:15:36.844Z</time>
      </trkpt>
      <trkpt lat="48.912570" lon="2.253793">
        <ele>42.719493</ele>
        <time>2023-11-09T14:15:39.838Z</time>
      </trkpt>
      <trkpt lat="48.912267" lon="2.253990">
        <ele>43.129924</ele>
        <time>2023-11-09T14:15:47.071Z</time>
      </trkpt>
      <trkpt lat="48.911735" lon="2.254336">
        <ele>43.850586</ele>
        <time>2023-11-09T14:15:59.139Z</time>
      </trkpt>
      <trkpt lat="48.911346" lon="2.254554">
        <ele>44.366949</ele>
        <time>2023-11-09T14:16:07.103Z</time>
      </trkpt>
      <trkpt lat="48.911172" lon="2.254631">
        <ele>44.592666</ele>
        <time>2023-11-09T14:16:10.384Z</time>
      </trkpt>
      <trkpt lat="48.911022" lon="2.254670">
        <ele>44.782216</ele>
        <time>2023-11-09T14:16:13.179Z</time>
      </trkpt>
      <trkpt lat="48.910808" lon="2.254729">
        <ele>44.914075</ele>
        <time>2023-11-09T14:16:17.139Z</time>
      </trkpt>
      <trkpt lat="48.910641" lon="2.254781">
        <ele>44.978392</ele>
        <time>2023-11-09T14:16:20.177Z</time>
      </trkpt>
      <trkpt lat="48.909716" lon="2.255049">
        <ele>45.333678</ele>
        <time>2023-11-09T14:16:35.441Z</time>
      </trkpt>
      <trkpt lat="48.909642" lon="2.255065">
        <ele>45.361880</ele>
        <time>2023-11-09T14:16:36.545Z</time>
      </trkpt>
      <trkpt lat="48.909576" lon="2.255080">
        <ele>45.387059</ele>
        <time>2023-11-09T14:16:37.527Z</time>
      </trkpt>
      <trkpt lat="48.909272" lon="2.255169">
        <ele>45.503866</ele>
        <time>2023-11-09T14:16:42.262Z</time>
      </trkpt>
      <trkpt lat="48.908934" lon="2.255268">
        <ele>45.550268</ele>
        <time>2023-11-09T14:16:47.513Z</time>
      </trkpt>
      <trkpt lat="48.908865" lon="2.255286">
        <ele>45.554946</ele>
        <time>2023-11-09T14:16:48.554Z</time>
      </trkpt>
      <trkpt lat="48.908307" lon="2.255446">
        <ele>45.592884</ele>
        <time>2023-11-09T14:16:57.164Z</time>
      </trkpt>
      <trkpt lat="48.908125" lon="2.255498">
        <ele>45.605257</ele>
        <time>2023-11-09T14:16:59.937Z</time>
      </trkpt>
      <trkpt lat="48.907875" lon="2.255547">
        <ele>45.622099</ele>
        <time>2023-11-09T14:17:03.801Z</time>
      </trkpt>
      <trkpt lat="48.907451" lon="2.255593">
        <ele>45.650500</ele>
        <time>2023-11-09T14:17:10.101Z</time>
      </trkpt>
      <trkpt lat="48.906623" lon="2.255676">
        <ele>45.626679</ele>
        <time>2023-11-09T14:17:22.020Z</time>
      </trkpt>
      <trkpt lat="48.906401" lon="2.255711">
        <ele>45.619482</ele>
        <time>2023-11-09T14:17:25.221Z</time>
      </trkpt>
      <trkpt lat="48.906375" lon="2.255715">
        <ele>45.618639</ele>
        <time>2023-11-09T14:17:25.606Z</time>
      </trkpt>
      <trkpt lat="48.906298" lon="2.255724">
        <ele>45.616149</ele>
        <time>2023-11-09T14:17:26.707Z</time>
      </trkpt>
      <trkpt lat="48.906051" lon="2.255751">
        <ele>45.608163</ele>
        <time>2023-11-09T14:17:30.507Z</time>
      </trkpt>
      <trkpt lat="48.905862" lon="2.255753">
        <ele>45.602068</ele>
        <time>2023-11-09T14:17:33.481Z</time>
      </trkpt>
      <trkpt lat="48.905661" lon="2.255705">
        <ele>45.595507</ele>
        <time>2023-11-09T14:17:36.798Z</time>
      </trkpt>
      <trkpt lat="48.905636" lon="2.255706">
        <ele>45.594700</ele>
        <time>2023-11-09T14:17:37.165Z</time>
      </trkpt>
      <trkpt lat="48.905504" lon="2.255715">
        <ele>45.552151</ele>
        <time>2023-11-09T14:17:39.017Z</time>
      </trkpt>
      <trkpt lat="48.905484" lon="2.255697">
        <ele>45.544300</ele>
        <time>2023-11-09T14:17:39.396Z</time>
      </trkpt>
      <trkpt lat="48.905349" lon="2.255677">
        <ele>45.498474</ele>
        <time>2023-11-09T14:17:41.418Z</time>
      </trkpt>
      <trkpt lat="48.905255" lon="2.255771">
        <ele>45.460469</ele>
        <time>2023-11-09T14:17:42.976Z</time>
      </trkpt>
      <trkpt lat="48.905213" lon="2.255934">
        <ele>45.421589</ele>
        <time>2023-11-09T14:17:44.544Z</time>
      </trkpt>
      <trkpt lat="48.905215" lon="2.256002">
        <ele>45.406473</ele>
        <time>2023-11-09T14:17:45.146Z</time>
      </trkpt>
      <trkpt lat="48.905110" lon="2.256093">
        <ele>45.365645</ele>
        <time>2023-11-09T14:17:46.976Z</time>
      </trkpt>
      <trkpt lat="48.905016" lon="2.256188">
        <ele>45.327518</ele>
        <time>2023-11-09T14:17:48.501Z</time>
      </trkpt>
      <trkpt lat="48.904642" lon="2.256566">
        <ele>45.175817</ele>
        <time>2023-11-09T14:17:54.651Z</time>
      </trkpt>
      <trkpt lat="48.904602" lon="2.256660">
        <ele>45.150949</ele>
        <time>2023-11-09T14:17:55.681Z</time>
      </trkpt>
      <trkpt lat="48.904552" lon="2.256712">
        <ele>45.130486</ele>
        <time>2023-11-09T14:17:56.547Z</time>
      </trkpt>
      <trkpt lat="48.904299" lon="2.256960">
        <ele>45.028801</ele>
        <time>2023-11-09T14:18:00.391Z</time>
      </trkpt>
      <trkpt lat="48.904213" lon="2.257045">
        <ele>44.994152</ele>
        <time>2023-11-09T14:18:01.704Z</time>
      </trkpt>
      <trkpt lat="48.904088" lon="2.257171">
        <ele>44.873457</ele>
        <time>2023-11-09T14:18:03.563Z</time>
      </trkpt>
      <trkpt lat="48.903633" lon="2.257614">
        <ele>44.395784</ele>
        <time>2023-11-09T14:18:10.374Z</time>
      </trkpt>
      <trkpt lat="48.903300" lon="2.257923">
        <ele>44.050877</ele>
        <time>2023-11-09T14:18:15.021Z</time>
      </trkpt>
      <trkpt lat="48.903030" lon="2.258187">
        <ele>43.767070</ele>
        <time>2023-11-09T14:18:18.727Z</time>
      </trkpt>
      <trkpt lat="48.902994" lon="2.258223">
        <ele>43.728975</ele>
        <time>2023-11-09T14:18:19.242Z</time>
      </trkpt>
      <trkpt lat="48.902691" lon="2.258530">
        <ele>43.407064</ele>
        <time>2023-11-09T14:18:23.765Z</time>
      </trkpt>
      <trkpt lat="48.902267" lon="2.258929">
        <ele>43.562235</ele>
        <time>2023-11-09T14:18:30.696Z</time>
      </trkpt>
      <trkpt lat="48.902186" lon="2.259012">
        <ele>43.595539</ele>
        <time>2023-11-09T14:18:32.182Z</time>
      </trkpt>
      <trkpt lat="48.902081" lon="2.259120">
        <ele>43.638762</ele>
        <time>2023-11-09T14:18:34.239Z</time>
      </trkpt>
      <trkpt lat="48.901864" lon="2.259341">
        <ele>43.727814</ele>
        <time>2023-11-09T14:18:38.717Z</time>
      </trkpt>
      <trkpt lat="48.901430" lon="2.259788">
        <ele>43.906544</ele>
        <time>2023-11-09T14:18:48.246Z</time>
      </trkpt>
      <trkpt lat="48.901283" lon="2.259926">
        <ele>43.965449</ele>
        <time>2023-11-09T14:18:51.301Z</time>
      </trkpt>
      <trkpt lat="48.900515" lon="2.260689">
        <ele>44.708198</ele>
        <time>2023-11-09T14:19:08.879Z</time>
      </trkpt>
      <trkpt lat="48.900415" lon="2.260773">
        <ele>44.809521</ele>
        <time>2023-11-09T14:19:11.163Z</time>
      </trkpt>
      <trkpt lat="48.900293" lon="2.260888">
        <ele>44.936825</ele>
        <time>2023-11-09T14:19:14.077Z</time>
      </trkpt>
      <trkpt lat="48.900189" lon="2.260992">
        <ele>45.047218</ele>
        <time>2023-11-09T14:19:16.616Z</time>
      </trkpt>
      <trkpt lat="48.899818" lon="2.261358">
        <ele>45.439433</ele>
        <time>2023-11-09T14:19:25.126Z</time>
      </trkpt>
      <trkpt lat="48.899496" lon="2.261689">
        <ele>45.258860</ele>
        <time>2023-11-09T14:19:31.538Z</time>
      </trkpt>
      <trkpt lat="48.898752" lon="2.262416">
        <ele>43.742214</ele>
        <time>2023-11-09T14:19:42.293Z</time>
      </trkpt>
      <trkpt lat="48.898294" lon="2.262879">
        <ele>42.799038</ele>
        <time>2023-11-09T14:19:47.868Z</time>
      </trkpt>
      <trkpt lat="48.898196" lon="2.262971">
        <ele>42.601523</ele>
        <time>2023-11-09T14:19:48.994Z</time>
      </trkpt>
      <trkpt lat="48.897987" lon="2.263175">
        <ele>41.866016</ele>
        <time>2023-11-09T14:19:51.415Z</time>
      </trkpt>
      <trkpt lat="48.897933" lon="2.263226">
        <ele>41.659050</ele>
        <time>2023-11-09T14:19:52.044Z</time>
      </trkpt>
      <trkpt lat="48.897822" lon="2.263340">
        <ele>41.222951</ele>
        <time>2023-11-09T14:19:53.336Z</time>
      </trkpt>
      <trkpt lat="48.897740" lon="2.263416">
        <ele>40.910288</ele>
        <time>2023-11-09T14:19:54.268Z</time>
      </trkpt>
      <trkpt lat="48.897545" lon="2.263637">
        <ele>40.118481</ele>
        <time>2023-11-09T14:19:56.651Z</time>
      </trkpt>
      <trkpt lat="48.897246" lon="2.263875">
        <ele>39.019651</ele>
        <time>2023-11-09T14:19:59.989Z</time>
      </trkpt>
      <trkpt lat="48.896959" lon="2.264151">
        <ele>37.914039</ele>
        <time>2023-11-09T14:20:03.438Z</time>
      </trkpt>
      <trkpt lat="48.896761" lon="2.264306">
        <ele>37.188953</ele>
        <time>2023-11-09T14:20:05.776Z</time>
      </trkpt>
      <trkpt lat="48.896693" lon="2.264370">
        <ele>36.928577</ele>
        <time>2023-11-09T14:20:06.629Z</time>
      </trkpt>
      <trkpt lat="48.896650" lon="2.264407">
        <ele>36.767713</ele>
        <time>2023-11-09T14:20:07.139Z</time>
      </trkpt>
      <trkpt lat="48.896510" lon="2.264527">
        <ele>36.519537</ele>
        <time>2023-11-09T14:20:08.850Z</time>
      </trkpt>
      <trkpt lat="48.895745" lon="2.265311">
        <ele>35.487443</ele>
        <time>2023-11-09T14:20:19.699Z</time>
      </trkpt>
      <trkpt lat="48.895362" lon="2.265696">
        <ele>34.973787</ele>
        <time>2023-11-09T14:20:25.720Z</time>
      </trkpt>
      <trkpt lat="48.895318" lon="2.265740">
        <ele>34.914870</ele>
        <time>2023-11-09T14:20:26.430Z</time>
      </trkpt>
      <trkpt lat="48.895260" lon="2.265798">
        <ele>34.837206</ele>
        <time>2023-11-09T14:20:27.498Z</time>
      </trkpt>
      <trkpt lat="48.895204" lon="2.265859">
        <ele>34.760139</ele>
        <time>2023-11-09T14:20:28.582Z</time>
      </trkpt>
      <trkpt lat="48.895085" lon="2.265920">
        <ele>34.638142</ele>
        <time>2023-11-09T14:20:30.425Z</time>
      </trkpt>
      <trkpt lat="48.894808" lon="2.266199">
        <ele>34.485227</ele>
        <time>2023-11-09T14:20:35.426Z</time>
      </trkpt>
      <trkpt lat="48.894160" lon="2.266843">
        <ele>34.128947</ele>
        <time>2023-11-09T14:20:46.258Z</time>
      </trkpt>
      <trkpt lat="48.894080" lon="2.266960">
        <ele>34.077865</ele>
        <time>2023-11-09T14:20:47.633Z</time>
      </trkpt>
      <trkpt lat="48.893818" lon="2.267227">
        <ele>33.932708</ele>
        <time>2023-11-09T14:20:51.455Z</time>
      </trkpt>
      <trkpt lat="48.893817" lon="2.267343">
        <ele>33.897602</ele>
        <time>2023-11-09T14:20:52.351Z</time>
      </trkpt>
      <trkpt lat="48.893779" lon="2.267404">
        <ele>33.872173</ele>
        <time>2023-11-09T14:20:53.009Z</time>
      </trkpt>
      <trkpt lat="48.893735" lon="2.267492">
        <ele>33.838717</ele>
        <time>2023-11-09T14:20:53.901Z</time>
      </trkpt>
      <trkpt lat="48.893705" lon="2.267584">
        <ele>33.814683</ele>
        <time>2023-11-09T14:20:54.714Z</time>
      </trkpt>
      <trkpt lat="48.893681" lon="2.267672">
        <ele>33.798896</ele>
        <time>2023-11-09T14:20:55.498Z</time>
      </trkpt>
      <trkpt lat="48.893621" lon="2.267659">
        <ele>33.783621</ele>
        <time>2023-11-09T14:20:56.214Z</time>
      </trkpt>
      <trkpt lat="48.893548" lon="2.267650">
        <ele>33.765161</ele>
        <time>2023-11-09T14:20:57.120Z</time>
      </trkpt>
      <trkpt lat="48.893441" lon="2.267667">
        <ele>33.738046</ele>
        <time>2023-11-09T14:20:58.502Z</time>
      </trkpt>
      <trkpt lat="48.893335" lon="2.267716">
        <ele>33.710123</ele>
        <time>2023-11-09T14:20:59.986Z</time>
      </trkpt>
      <trkpt lat="48.892278" lon="2.268809">
        <ele>33.387978</ele>
        <time>2023-11-09T14:21:18.503Z</time>
      </trkpt>
      <trkpt lat="48.890694" lon="2.270425">
        <ele>33.962346</ele>
        <time>2023-11-09T14:21:48.618Z</time>
      </trkpt>
      <trkpt lat="48.890597" lon="2.270578">
        <ele>34.132319</ele>
        <time>2023-11-09T14:21:51.317Z</time>
      </trkpt>
      <trkpt lat="48.890300" lon="2.271160">
        <ele>34.721494</ele>
        <time>2023-11-09T14:22:00.840Z</time>
      </trkpt>
      <trkpt lat="48.890273" lon="2.271293">
        <ele>34.832812</ele>
        <time>2023-11-09T14:22:02.881Z</time>
      </trkpt>
      <trkpt lat="48.890037" lon="2.271745">
        <ele>35.294398</ele>
        <time>2023-11-09T14:22:10.762Z</time>
      </trkpt>
      <trkpt lat="48.889934" lon="2.271620">
        <ele>35.454673</ele>
        <time>2023-11-09T14:22:13.293Z</time>
      </trkpt>
      <trkpt lat="48.889674" lon="2.272110">
        <ele>35.958228</ele>
        <time>2023-11-09T14:22:42.064Z</time>
      </trkpt>
      <trkpt lat="48.889934" lon="2.271620">
        <ele>36.269843</ele>
        <time>2023-11-09T14:23:10.834Z</time>
      </trkpt>
      <trkpt lat="48.890037" lon="2.271745">
        <ele>36.343848</ele>
        <time>2023-11-09T14:23:13.708Z</time>
      </trkpt>
      <trkpt lat="48.889483" lon="2.272770">
        <ele>36.833810</ele>
        <time>2023-11-09T14:23:27.549Z</time>
      </trkpt>
      <trkpt lat="48.889377" lon="2.272960">
        <ele>36.925823</ele>
        <time>2023-11-09T14:23:29.810Z</time>
      </trkpt>
      <trkpt lat="48.889283" lon="2.272850">
        <ele>36.992433</ele>
        <time>2023-11-09T14:23:31.561Z</time>
      </trkpt>
      <trkpt lat="48.888926" lon="2.272423">
        <ele>37.204167</ele>
        <time>2023-11-09T14:23:38.806Z</time>
      </trkpt>
      <trkpt lat="48.888217" lon="2.271571">
        <ele>37.545259</ele>
        <time>2023-11-09T14:23:53.688Z</time>
      </trkpt>
      <trkpt lat="48.887895" lon="2.271171">
        <ele>37.702200</ele>
        <time>2023-11-09T14:24:00.288Z</time>
      </trkpt>
      <trkpt lat="48.887643" lon="2.270862">
        <ele>37.843886</ele>
        <time>2023-11-09T14:24:05.647Z</time>
      </trkpt>
      <trkpt lat="48.887430" lon="2.270601">
        <ele>38.013972</ele>
        <time>2023-11-09T14:24:10.387Z</time>
      </trkpt>
      <trkpt lat="48.887113" lon="2.270210">
        <ele>38.267765</ele>
        <time>2023-11-09T14:24:17.717Z</time>
      </trkpt>
      <trkpt lat="48.886046" lon="2.268916">
        <ele>38.912685</ele>
        <time>2023-11-09T14:24:41.495Z</time>
      </trkpt>
      <trkpt lat="48.885981" lon="2.268837">
        <ele>38.912685</ele>
        <time>2023-11-09T14:24:42.971Z</time>
      </trkpt>
      <trkpt lat="48.885688" lon="2.269388">
        <ele>38.912685</ele>
        <time>2023-11-09T14:24:50.640Z</time>
      </trkpt>
      <trkpt lat="48.885457" lon="2.269824">
        <ele>38.912685</ele>
        <time>2023-11-09T14:24:56.737Z</time>
      </trkpt>
      <trkpt lat="48.885395" lon="2.269772">
        <ele>38.912685</ele>
        <time>2023-11-09T14:24:57.953Z</time>
      </trkpt>
      <trkpt lat="48.884583" lon="2.269124">
        <ele>38.912685</ele>
        <time>2023-11-09T14:25:12.951Z</time>
      </trkpt>
      <trkpt lat="48.884439" lon="2.269026">
        <ele>38.912685</ele>
        <time>2023-11-09T14:25:15.568Z</time>
      </trkpt>
      <trkpt lat="48.884372" lon="2.269326">
        <ele>38.912685</ele>
        <time>2023-11-09T14:25:18.741Z</time>
      </trkpt>
    </trkseg>
  </trk>
</gpx>